     2              OBSERVATION DATA    GPS                 RINEX VERSION / TYPE
teqc 1997Sep10 19970910 19:01:45UTC                         PGM / RUN BY / DATE
                                                            COMMENT
BIT 2 OF LLI FLAGS DATA COLLECTED UNDER A-S CONDITION       COMMENT
BIT 2 OF LLI FLAGS DATA COLLECTED UNDER A-S CONDITION       COMMENT
Original Marker Name: unknown                               COMMENT
Campaign Name: Southern California GPS Survey March - A     COMMENT
4-Character Station Name: F726                              COMMENT
6-Character Antenna Code: TI4100                            COMMENT
Vertical Measurement Point: PAE                             COMMENT
Vertical Offset to Rinex Ref. Point: 0.0000                 COMMENT
Radial Measurement Point: RRP                               COMMENT
Radial Offset to Rinex Ref. Point: 0.0000                   COMMENT
Antenna Height from Field Measurement: 1.4393 m             COMMENT
Original XYZ: 0.0000 0.0000 0.0000                          COMMENT
New XYZ position is based on association with SCEC monument COMMENT
E1D0Y0B1+0011. Position of that monument is believed to be  COMMENT
valid to within 1 m horizontally; vertical accuracy         COMMENT
should be no worse than 3-times this value.                 COMMENT
                                                            COMMENT
Revised Rinex header created by UCSD GPS archive for        COMMENT
GSAC on 17-Apr-1999 (1999:107) 00:20:03 GMT                 COMMENT
For assistance contact dagnew@ucsd.edu or hjohnson@ucsd.edu COMMENT
                                                            COMMENT
BM F726                                                     MARKER NAME
unknown NATIONAL GEODETIC SURVEY                            OBSERVER / AGENCY
5 TI 4100 GSI TI4100                                        REC # / TYPE / VERS
4021 TI 4100                                                ANT # / TYPE
 -2321375.0000 -4759815.0000  3544637.0000                  APPROX POSITION XYZ
        1.4393        0.0000        0.0000                  ANTENNA: DELTA H/E/N
     1     1     0                                          WAVELENGTH FACT L1/2
     6    L1    L2    P1    P2    D1    D2                  # / TYPES OF OBSERV
     0                                                      INTERVAL
  1988     3    23     3    11   37.000000                  TIME OF FIRST OBS
  1988     3    23     8    28    2.000000                  TIME OF LAST OBS
     0                                                      # OF SATELLITES
                                                            END OF HEADER
 88  3 23  3 11 36.9800000  0  3G 6G 9G11
   3755727.562 9  -5605258.983 8  22065356.843    22065358.564        1869.476
      1461.451
    881000.832 8  -2424575.764 8  24823533.502    24823538.275        2985.089
      2329.094
    758110.974 9  -2441190.035 8  23474380.937    23474384.104        3347.276
      2620.912
 88  3 23  3 48 32.0800000  0  3G 6G 9G11
    139242.782 9  -8423297.518 8  21377160.918    21377161.507        1329.325
      1035.658
  -5815110.294 9  -7642318.331 8  23549302.963    23549304.809        3024.370
      2355.528
  -5725635.303 9  -7493457.341 7  22240562.570    22240565.933        2418.487
      1903.077
 88  3 23  3 49  2.0800000  0  3G 6G 9G11
     99606.816 9  -8454182.664 7  21369619.319    21369620.913        1298.464
      1021.378
  -5905579.427 9  -7712813.674 9  23532086.675    23532088.917        3012.146
      2342.485
  -5798233.536 9  -7550027.372 7  22226747.813    22226750.722        2417.330
      1876.550
 88  3 23  3 49 32.0800000  0  3G 6G 9G11
     60277.260 9  -8484829.061 9  21362134.981    21362135.613        1310.235
      1018.887
  -5996000.872 9  -7783271.883 8  23514879.292    23514881.798        3013.804
      2353.446
  -5870372.026 9  -7606239.162 8  22213020.953    22213023.534        2397.036
      1860.892
 88  3 23  3 50  2.0800000  0  3G 6G 9G11
     21255.522 9  -8515235.608 8  21354708.594    21354710.415        1298.456
      1014.860
  -6086373.438 8  -7853692.009 9  23497683.463    23497684.668        2997.569
      2357.013
  -5942049.854 9  -7662091.994 8  22199379.945    22199382.922        2393.064
      1863.321
 88  3 23  3 50 32.0800000  0  3G 6G 9G11
    -17456.344 9  -8545400.687 8  21347342.075    21347343.937        1289.509
      1001.426
  -6176695.666 9  -7924072.896 8  23480494.986    23480496.948        3015.136
      2353.856
  -6013265.348 9  -7717584.567 7  22185828.090    22185831.762        2369.213
      1834.688
 88  3 23  3 51  2.0800000  0  3G 6G 9G11
    -55855.362 9  -8575321.979 9  21340034.745    21340035.477        1284.461
      1000.096
  -6266964.884 9  -7994412.487 8  23463316.932    23463319.195        2999.769
      2357.448
  -6084016.357 8  -7772715.197 7  22172364.001    22172367.904        2347.467
      1836.714
 88  3 23  3 51 32.0800000  0  3G 6G 9G11
    -93938.800 8  -8604997.383 8  21332787.830    21332789.480        1260.084
       986.581
  -6357179.031 9  -8064709.171 9  23446150.035    23446152.322        3010.607
      2338.694
  -6154300.582 8  -7827482.108 8  22158989.866    22158991.746        2349.556
      1823.957
 88  3 23  3 52  2.0800000  0  3G 6G 9G11
   -131705.440 9  -8634425.920 9  21325601.804    21325602.935        1261.878
       981.331
  -6447336.807 9  -8134961.941 8  23428992.858    23428995.516        3005.064
      2349.767
  -6224117.407 9  -7881884.797 7  22145704.168    22145707.168        2307.667
      1802.880
 88  3 23  3 52 32.0800000  0  3G 6G 9G11
   -169154.245 9  -8663606.802 8  21318474.090    21318477.678        1247.851
       956.003
  -6537437.754 9  -8205170.401 8  23411847.955    23411849.531        3008.462
      2350.979
  -6293466.180 9  -7935922.772 8  22132508.788    22132511.286        2309.031
      1779.050
 88  3 23  3 53  2.0800000  0  3G 6G 9G11
   -206282.323 9  -8692537.764 8  21311409.523    21311412.396        1238.426
       954.195
  -6627479.304 9  -8275332.591 8  23394712.758    23394714.724        3009.012
      2327.833
  -6362344.446 9  -7989594.120 8  22119401.129    22119403.523        2295.482
      1783.940
 88  3 23  3 53 32.0800000  0  3G 6G 9G11
   -243084.668 9  -8721214.897 9  21304406.661    21304408.093        1219.486
       946.540
  -6717456.589 9  -8345444.712 7  23377590.371    23377592.408        2998.191
      2347.313
  -6430748.260 9  -8042895.774 8  22106384.463    22106386.876        2265.339
      1771.687
 88  3 23  3 54  2.0800000  0  3G 6G 9G11
   -279559.555 9  -8749636.884 9  21297466.476    21297466.927        1207.756
       950.249
  -6807368.391 9  -8415505.820 8  23360481.534    23360483.043        3014.682
      2346.257
  -6498676.377 9  -8095826.753 8  22093457.143    22093460.344        2260.443
      1775.614
 88  3 23  3 54 32.0800000  0  3G 6G 9G11
   -315707.287 9  -8777803.943 8  21290586.920    21290588.681        1195.523
       924.126
  -6897215.056 9  -8485516.164 8  23343384.100    23343385.798        3005.758
      2315.517
  -6566129.770 9  -8148387.821 8  22080621.937    22080624.745        2245.005
      1743.575
 88  3 23  3 55  2.0800000  0  3G 6G 9G11
   -351525.150 9  -8805713.966 8  21283771.313    21283773.526        1200.109
       922.846
  -6986994.330 9  -8555474.016 8  23326299.840    23326301.672        2991.803
      2329.107
  -6633106.682 9  -8200577.601 7  22067876.508    22067878.708        2214.718
      1734.031
 88  3 23  3 55 32.0800000  0  3G 6G 9G11
   -387009.668 9  -8833364.232 7  21277018.015    21277020.438        1170.237
       916.104
  -7076703.201 9  -8625376.975 8  23309228.355    23309231.011        2992.290
      2317.481
  -6699603.881 9  -8252393.597 6  22055222.805    22055225.236        2204.918
      1700.688
 88  3 23  3 56  2.0800000  0  3G 6G 9G11
   -422159.247 9  -8860753.504 8  21270328.661    21270332.118        1181.401
       904.199
  -7166339.902 9  -8695223.712 7  23292171.494    23292173.031        2987.816
      2338.415
  -6765620.784 9  -8303835.316 8  22042659.989    22042662.041        2190.404
      1737.126
 88  3 23  3 56 32.0800000  0  3G 6G 9G11
   -456970.380 9  -8887879.049 8  21263705.763    21263707.881        1168.211
       905.280
  -7255901.639 9  -8765012.018 9  23275128.561    23275130.082        2997.927
      2317.766
  -6831154.656 9  -8354900.655 8  22030189.473    22030191.089        2178.833
      1690.255
 88  3 23  3 57  2.0800000  0  3G 6G 9G11
   -491441.487 9  -8914739.641 8  21257146.460    21257147.131        1147.486
       882.612
  -7345386.747 9  -8834740.622 9  23258100.440    23258101.645        2986.699
      2333.661
  -6896204.639 9  -8405588.936 8  22017810.897    22017813.053        2158.610
      1696.680
 88  3 23  3 57 32.0800000  0  3G 6G 9G11
   -525571.057 8  -8941334.100 8  21250650.933    21250653.653        1136.130
       883.644
  -7434793.899 9  -8904408.470 8  23241086.656    23241088.573        2986.516
      2313.858
  -6960770.081 9  -8455899.648 8  22005524.598    22005526.068        2150.660
      1673.975
 88  3 23  3 58  2.0800000  0  3G 6G 9G11
   -559356.745 9  -8967660.600 8  21244221.609    21244224.158        1122.056
       871.440
  -7524121.129 9  -8974014.052 8  23224087.709    23224089.535        2990.990
      2319.276
  -7024849.010 9  -8505831.259 7  21993330.839    21993332.271        2129.105
      1669.830
 88  3 23  3 58 32.0800000  0  3G 6G 9G11
   -592796.755 9  -8993717.742 8  21237859.238    21237860.976        1103.555
       867.531
  -7613366.627 9  -9043555.973 8  23207104.911    23207106.528        2975.655
      2303.531
  -7088440.695 9  -8555383.198 8  21981228.574    21981232.075        2106.602
      1639.345
 88  3 23  3 59  2.0800000  0  3G 6G 9G11
   -625886.957 9  -9019502.297 8  21231561.629    21231562.848        1095.828
       855.831
  -7702526.381 9  -9113031.062 8  23190138.619    23190140.450        2967.449
      2313.181
  -7151541.950 8  -8604552.986 7  21969220.914    21969223.314        2082.846
      1637.127
 88  3 23  3 59 32.0800000  0  3G 6G 9G11
   -658625.704 9  -9045013.007 9  21225331.466    21225333.576        1087.614
       856.769
  -7791599.064 9  -9182438.290 8  23173189.532    23173190.593        2972.306
      2321.631
  -7214151.862 8  -8653339.912 8  21957306.576    21957309.147        2097.016
      1622.021
 88  3 23  4  0  2.0800000  0  3G 6G 9G11
   -691011.873 9  -9070248.976 9  21219168.411    21219170.343        1080.828
       836.785
  -7880583.834 9  -9251777.016 8  23156254.888    23156257.292        2966.134
      2324.341
  -7276270.409 9  -8701743.967 8  21945485.794    21945489.404        2065.478
      1603.672
 88  3 23  4  0 32.0800000  0  3G 6G 9G11
   -723041.867 9  -9095207.400 8  21213073.315    21213075.329        1086.689
       836.009
  -7969476.931 9  -9321044.334 8  23139339.466    23139341.098        2964.004
      2296.124
  -7337894.575 9  -8749762.769 8  21933759.284    21933761.287        2040.821
      1590.542
 88  3 23  4  1  2.0800000  0  3G 6G 9G11
   -754713.582 9  -9119886.657 8  21207047.697    21207048.302        1056.427
       823.476
  -8058276.580 9  -9390238.827 8  23122440.575    23122444.038        2951.828
      2300.306
  -7399023.001 9  -8797395.310 7  21922126.848    21922128.946        2039.035
      1587.858
 88  3 23  4  1 32.0800000  0  3G 6G 9G11
   -786025.383 9  -9144285.455 9  21201087.553    21201089.754        1047.902
       804.244
  -8146981.086 9  -9459359.174 9  23105561.177    23105563.485        2958.606
      2296.702
  -7459655.401 9  -8844641.313 8  21910588.920    21910592.713        2027.943
      1572.181
 88  3 23  4  2  2.0800000  0  3G 6G 9G11
   -816975.099 8  -9168402.124 9  21195198.861    21195200.445        1043.540
       798.968
  -8235588.391 9  -9528403.780 8  23088700.413    23088702.475        2946.628
      2316.132
  -7519790.397 9  -8891499.731 8  21899145.968    21899148.829        2003.390
      1542.939
 88  3 23  4  2 32.0800000  0  3G 6G 9G11
   -847559.851 9  -9192234.404 8  21189378.384    21189380.247        1010.191
       787.902
  -8324095.621 9  -9597370.413 9  23071856.993    23071859.800        2949.595
      2303.860
  -7579425.847 9  -8937968.891 8  21887797.868    21887800.101        1985.240
      1547.419
 88  3 23  4  3  2.0800000  0  3G 6G 9G11
   -877777.704 9  -9215780.769 9  21183628.446    21183631.058         995.566
       786.025
  -8412501.048 9  -9666257.710 8  23055034.777    23055036.110        2958.088
      2295.540
  -7638561.134 9  -8984048.333 8  21876544.113    21876547.681        1965.814
      1543.927
 88  3 23  4  3 32.0800000  0  3G 6G 9G11
 -18648234.234 8  -9165407.517 1                                       980.296
      2272.132
  -8500803.324 9  -9735064.641 8  23038231.018    23038232.802        2938.510
      2297.093
  -7697195.302 8  -9029737.275 8  21865386.764    21865388.500        1943.869
      1520.631
 88  3 23  4  4  2.0800000  0  3G 6G 9G11
 -18677713.019 9  23670187.401 9  21172338.172    21172339.742         990.957
       748.854
  -8588999.729 8  -9803789.061 8  23021447.210    23021449.606        2944.228
      2280.825
  -7755327.218 9  -9075034.838 8  21854324.734    21854327.645        1931.046
      1489.761
 88  3 23  4  4 32.0800000  0  3G 6G 9G11
 -18706817.286 9  23647508.760 9  21166801.828    21166801.478         958.518
       753.483
  -8677086.812 9  -9872428.320 8  23004684.698    23004687.347        2948.662
      2286.455
  -7812954.577 9  -9119939.264 7  21843358.293    21843360.621        1901.972
      1488.605
 88  3 23  4  5  2.0800000  0  3G 6G 9G11
 -18735545.914 9  23625122.824 8  21161333.985    21161334.279         947.609
       731.928
  -8765063.312 9  -9940981.398 8  22987944.596    22987944.994        2934.739
      2270.392
  -7870076.629 8  -9164449.929 7  21832488.759    21832492.180        1893.383
      1471.890
 88  3 23  4  5 32.0800000  0  3G 6G 9G11
 -18763897.278 9  23603030.859 8  21155938.863    21155939.368         947.146
       722.346
  -8852927.597 9 -10009447.041 8  22971223.477    22971225.496        2932.928
      2282.634
  -7926693.056 9  -9208566.618 8  21821714.298    21821718.050        1880.903
      1471.064
 88  3 23  4  6  2.0800000  0  3G 6G 9G11
 -18791868.178 9  23581235.355 9  21150615.343    21150617.171         926.867
       716.685
  -8940676.129 9 -10077822.478 8  22954525.109    22954526.420        2911.924
      2286.604
  -7982801.688 9  -9252287.622 7  21811036.902    21811041.381        1869.141
      1454.840
 88  3 23  4  6 32.0800000  0  3G 6G 9G11
 -18819456.904 9  23559737.652 8  21145364.629    21145367.052         915.536
       720.681
  -9028307.413 9 -10146106.559 8  22937850.009    22937852.094        2910.146
      2268.926
  -8038401.786 9  -9295612.352 8  21800457.684    21800459.393        1852.172
      1442.654
 88  3 23  4  7  2.0800000  0  3G 6G 9G11
 -18846661.255 9  23538539.461 8  21140188.559    21140190.807         904.515
       708.390
  -9115819.293 9 -10214297.598 9  22921197.051    22921199.342        2914.835
      2279.160
  -8093492.531 9  -9338540.196 8  21789972.878    21789976.440        1833.129
      1417.557
 88  3 23  4  7 32.0800000  0  3G 6G 9G11
 -18873478.537 9  23517642.877 8  21135086.239    21135086.235         908.383
       685.418
  -9203208.859 9 -10282393.323 9  22904566.925    22904568.285        2910.138
      2267.273
  -8148072.314 9  -9381069.878 8  21779587.816    21779590.205        1800.131
      1406.173
 88  3 23  4  8  2.0800000  0  3G 6G 9G11
 -18899907.077 9  23497049.218 9  21130056.906    21130057.798         873.997
       688.195
  -9290474.270 9 -10350392.307 9  22887960.926    22887963.360        2922.530
      2265.179
  -8202140.622 9  -9423201.000 7  21769298.738    21769301.375        1796.782
      1418.607
 88  3 23  4  8 32.0800000  0  3G 6G 9G11
 -18925944.463 9  23476760.350 8  21125101.039    21125103.504         876.653
       672.450
  -9377612.896 9 -10418292.507 9  22871379.527    22871380.926        2895.074
      2275.295
  -8255695.707 8  -9464932.213 8  21759107.961    21759109.957        1775.387
      1385.655
 88  3 23  4  9  2.0800000  0  3G 6G 9G11
 -18951587.977 9  23456778.398 9  21120222.062    21120222.628         844.755
       667.696
  -9464622.126 9 -10486091.858 8  22854822.345    22854823.963        2897.658
      2255.162
  -8308736.328 9  -9506262.542 7  21749014.865    21749015.977        1760.012
      1379.957
 88  3 23  4  9 32.0800000  0  3G 6G 9G11
 -18976836.718 9  23437104.060 8  21115416.657    21115418.741         823.408
       655.057
  -9551500.815 9 -10553789.516 8  22838290.667    22838291.206        2888.822
      2278.004
  -8361262.956 9  -9547192.371 7  21739019.393    21739021.428        1745.746
      1366.380
 88  3 23  4 10  2.0800000  0  3G 6G 9G11
 -19001688.515 9  23417739.022 8  21110687.878    21110689.611         844.692
       638.777
  -9638246.531 9 -10621383.542 9  22821782.527    22821784.832        2898.631
      2254.429
  -8413274.436 9  -9587720.773 8  21729120.465    21729124.053        1730.212
      1343.948
 88  3 23  4 10 32.0800000  0  3G 6G 9G11
 -19026140.407 9  23398685.616 8  21106034.588    21106037.440         830.489
       635.391
  -9724856.033 9 -10688871.432 8  22805300.098    22805302.956        2897.004
      2238.820
  -8464769.042 9  -9627846.423 7  21719321.817    21719324.196        1704.423
      1319.286
 88  3 23  4 11  2.0800000  0  3G 6G 9G11
 -19050189.357 9  23379946.172 8  21101459.183    21101460.144         801.200
       609.479
  -9811326.485 9 -10756250.961 9  22788845.999    22788848.384        2878.288
      2241.654
  -8515744.925 9  -9667567.879 7  21709621.281    21709623.114        1691.297
      1328.569
 88  3 23  4 11 32.0800000  0  3G 6G 9G11
 -19073833.969 9  23361521.789 8  21096959.709    21096961.847         792.053
       603.675
  -9897655.809 9 -10823520.531 8  22772417.551    22772419.049        2870.984
      2245.444
  -8566201.842 8  -9706884.943 7  21700019.155    21700021.835        1686.656
      1304.429
 88  3 23  4 12  2.0800000  0  3G 6G 9G11
 -19097073.206 9  23343413.299 8  21092537.586    21092538.562         765.889
       597.834
  -9983842.772 9 -10890679.172 9  22756017.798    22756019.441        2871.925
      2235.614
  -8616140.251 9  -9745797.970 8  21690517.362    21690519.579        1656.457
      1301.775
 88  3 23  4 12 32.0800000  0  3G 6G 9G11
 -19119904.009 9  23325623.063 8  21088192.808    21088193.508         756.344
       590.210
 -10069884.186 9 -10957724.406 8  22739645.007    22739646.921        2874.835
      2239.914
  -8665558.198 8  -9784305.451 8  21681113.988    21681116.408        1636.003
      1272.738
 88  3 23  4 13  2.0800000  0  3G 6G 9G11
 -19142323.872 9  23308153.036 8  21083926.036    21083927.955         750.802
       566.560
 -10155777.474 9 -11024654.212 9  22723299.791    22723300.746        2863.264
      2230.543
  -8714454.643 9  -9822406.578 7  21671808.009    21671811.573        1615.932
      1256.036
 88  3 23  4 13 32.0800000  0  3G 6G 9G11
 -19164331.202 9  23291004.486 9  21079738.549    21079739.693         705.930
       565.821
 -10241520.371 9 -11091466.837 9  22706983.181    22706983.864        2865.011
      2226.169
  -8762829.207 9  -9860101.033 8  21662601.904    21662606.336        1613.220
      1252.575
 88  3 23  4 14  2.0800000  0  3G 6G 9G11
 -19185924.148 8  23274178.814 8  21075629.801    21075631.330         722.971
       559.980
 -10327110.980 9 -11158160.796 9  22690695.182    22690696.720        2848.065
      2223.043
  -8810681.211 9  -9897388.286 8  21653495.792    21653500.110        1591.546
      1235.692
 88  3 23  4 14 32.0800000  0  3G 6G 9G11
 -19207100.124 8  23257678.065 9  21071599.384    21071600.813         698.593
       541.401
 -10412546.023 9 -11224733.522 9  22674437.822    22674439.498        2843.472
      2222.316
  -8858009.195 8  -9934267.225 8  21644490.294    21644494.575        1561.036
      1213.558
 88  3 23  4 15  2.0800000  0  3G 6G 9G11
 -19227856.872 9  23241503.982 9  21067649.801    21067651.295         688.482
       546.596
 -10497823.216 9 -11291183.229 8  22658210.753    22658211.545        2834.477
      2210.386
  -8904812.558 9  -9970737.363 8  21635584.348    21635587.529        1563.022
      1208.879
 88  3 23  4 15 32.0800000  0  3G 6G 9G11
 -19248193.331 9  23225657.376 9  21063781.157    21063781.428         656.449
       529.358
 -10582940.858 9 -11357508.638 9  22642012.840    22642013.457        2844.238
      2214.325
  -8951091.630 8 -10006798.961 8  21626777.746    21626780.987        1529.218
      1204.443
 88  3 23  4 16  2.0800000  0  3G 6G 9G11
 -19268106.816 9  23210140.369 9  21059989.761    21059991.748         670.723
       519.230
 -10667896.153 9 -11423707.543 9  22625845.473    22625846.671        2828.480
      2212.405
  -8996844.859 9 -10042450.808 8  21618071.604    21618074.225        1504.992
      1184.590
 88  3 23  4 16 32.0800000  0  3G 6G 9G11
 -19287594.453 9  23194955.202 9  21056281.822    21056283.973         647.095
       509.996
 -10752685.396 9 -11489777.060 8  22609711.450    22609712.511        2832.691
      2196.728
  -9042070.806 9 -10077691.795 8  21609464.544    21609467.723        1502.775
      1183.136
 88  3 23  4 17  2.0800000  0  3G 6G 9G11
 -19306655.925 8  23180102.097 9  21052655.054    21052655.806         638.116
       470.359
 -10837308.425 9 -11555717.064 8  22593607.828    22593609.436        2814.900
      2196.778
  -9086770.865 9 -10112522.996 8  21600959.219    21600960.772        1479.730
      1152.999
 88  3 23  4 17 32.0800000  0  3G 6G 9G11
 -19325288.479 9  23165583.228 7  21049108.417    21049110.930         630.078
       482.227
 -10921761.498 9 -11621524.653 8  22577537.168    22577538.590        2796.152
      2198.710
  -9130943.328 8 -10146943.084 7  21592552.662    21592554.936        1475.479
      1154.099
 88  3 23  4 18  2.0800000  0  3G 6G 9G11
 -19343488.747 9  23151401.189 8  21045645.738    21045647.768         598.228
       463.884
 -11006041.175 9 -11687197.077 9  22561498.594    22561501.347        2822.316
      2202.171
  -9174586.448 9 -10180950.699 7  21584248.118    21584250.680        1445.488
      1137.421
 88  3 23  4 18 32.0800000  0  3G 6G 9G11
 -19361255.068 9  23137557.306 8  21042265.026    21042265.802         577.862
       451.270
 -11090144.919 9 -11752732.427 9  22545494.904    22545495.948        2783.680
      2182.635
  -9217699.881 8 -10214545.579 7  21576043.921    21576046.295        1445.097
      1115.461
 88  3 23  4 19  2.0800000  0  4G 6G 9G11G13
 -19378586.412 9  23124052.377 8  21038967.177    21038968.800         574.066
       436.344
 -11174071.707 9 -11818129.904 8  22529523.752    22529525.719        2786.097
      2176.745
  -9260284.289 9 -10247728.219 8  21567940.379    21567943.545        1409.005
      1088.438
 -24227466.248 9  30690875.790 8  24605951.129    24605954.582        3736.361
      2926.220
 88  3 23  4 19 32.0800000  0  4G 6G 9G11G13
 -19395481.076 9  23110887.697 9  21035752.657    21035753.304         559.864
       437.761
 -11257818.855 9 -11883387.408 9  22513587.383    22513588.491        2786.017
      2166.455
  -9302339.121 8 -10280498.193 8  21559938.902    21559940.022        1376.860
      1078.924
 -24338950.850 7  30604004.224 9  24584735.771    24584739.361        3725.476
      2898.444
 88  3 23  4 20  2.0800000  0  4G 6G 9G11G13
 -19411936.714 9  23098065.126 9  21032620.741    21032622.102         553.117
       396.837
 -11341383.554 9 -11948502.732 8  22497685.104    22497687.628        2785.419
      2172.650
  -9343863.864 9 -10312855.135 7  21552035.357    21552037.349        1371.015
      1079.080
 -24450225.044 8  30517297.090 7  24563560.536    24563564.230        3722.764
      2890.808
 88  3 23  4 20 32.0800000  0  4G 6G 9G11G13
 -19427950.738 9  23085586.672 9  21029573.453    21029574.209         508.764
       412.670
 -11424762.757 9 -12013473.508 9  22481819.382    22481820.957        2772.253
      2167.747
  -9384857.299 9 -10344798.047 9  21544235.050    21544237.658        1361.908
      1067.373
 -24561285.783 8  30430756.317 9  24542426.924    24542430.624        3697.653
      2887.713
 88  3 23  4 21  2.0800000  0  4G 6G 9G11G13
 -19443520.879 9  23073454.071 8  21026611.240    21026612.803         504.290
       396.812
 -11507953.567 9 -12078297.502 9  22465988.854    22465990.634        2767.628
      2160.079
  -9425318.433 9 -10376326.198 8  21536534.839    21536538.183        1332.595
      1046.470
 -24672130.408 7  30344383.941 9  24521333.808    24521337.830        3676.657
      2884.445
 88  3 23  4 21 32.0800000  0  4G 6G 9G11G13
 -19458646.214 9  23061668.112 9  21023732.942    21023734.125         493.796
       380.762
 -11590954.419 9 -12142973.477 9  22450193.972    22450196.359        2771.400
      2143.302
  -9465248.113 9 -10407440.216 8  21528936.441    21528940.100        1331.486
      1046.060
 -24782757.872 8  30258180.745 8  24500281.797    24500286.583        3695.109
      2856.011
 88  3 23  4 22  2.0800000  0  4G 6G 9G11G13
 -19473324.127 9  23050230.773 9  21020939.834    21020941.084         478.142
       380.035
 -11673762.170 9 -12207498.986 9  22434435.924    22434436.839        2759.167
      2162.260
  -9504645.013 8 -10438139.084 7  21521440.553    21521444.238        1295.283
      1010.274
 -24893165.054 8  30172149.188 8  24479271.896    24479276.478        3664.775
      2874.652
 88  3 23  4 22 32.0800000  0  4G 6G 9G11G13
 -19487552.482 9  23039143.751 8  21018230.922    21018233.464         462.385
       352.340
 -11756374.024 9 -12271871.820 9  22418714.943    22418716.941        2761.639
      2150.429
  -9543508.472 9 -10468422.297 7  21514045.133    21514047.734        1286.487
      1010.995
 -25003348.969 9  30086291.649 9  24458304.959    24458308.413        3663.340
      2866.599
 88  3 23  4 23  2.0800000  0  4G 6G 9G11G13
 -19501330.213 9  23028407.859 8  21015609.997    21015611.431         469.945
       348.947
 -11838788.306 9 -12336090.735 9  22403031.994    22403034.295        2735.699
      2130.129
  -9581839.164 9 -10498290.350 8  21506750.778    21506753.244        1270.092
       979.603
 -25113308.632 9  30000608.807 8  24437380.079    24437384.354        3674.384
      2862.709
 88  3 23  4 23 32.0800000  0  4G 6G 9G11G13
 -19514655.678 8  23018024.369 9  21013074.447    21013076.310         433.518
       339.944
 -11921002.474 9 -12400153.697 9  22387387.492    22387389.119        2731.066
      2129.048
  -9619636.603 8 -10527742.880 7  21499558.110    21499560.882        1236.583
       971.016
 -25223041.515 9  29915102.681 7  24416498.799    24416502.413        3645.804
      2846.211
 88  3 23  4 24  2.0800000  0  4G 6G 9G11G13
 -19527526.990 9  23007994.774 9  21010625.382    21010626.189         445.934
       317.009
 -12003014.315 9 -12464058.994 9  22371780.425    22371783.120        2722.996
      2143.774
  -9656900.972 8 -10556780.030 8  21492466.368    21492469.474        1231.584
       955.972
 -25332545.565 9  29829774.857 8  24395661.295    24395664.041        3651.665
      2841.930
 88  3 23  4 24 32.0800000  0  4G 6G 9G11G13
 -19539940.399 9  22998321.986 9  21008262.910    21008263.830         400.839
       316.779
 -12084818.908 9 -12527802.815 9  22356214.476    22356216.524        2723.187
      2118.590
  -9693630.095 8 -10585400.113 7  21485476.320    21485480.121        1214.431
       943.315
 -25441816.904 9  29744628.373 7  24374866.956    24374870.259        3637.630
      2835.834
 88  3 23  4 25  2.0800000  0  4G 6G 9G11G13
 -19551893.767 8  22989007.675 9  21005988.491    21005990.067         389.707
       306.569
 -12166413.395 9 -12591382.917 9  22340687.180    22340688.828        2730.882
      2117.732
  -9729823.464 8 -10613602.731 8  21478589.921    21478591.774        1197.413
       962.695
 -25550852.229 9  29659665.787 8  24354118.495    24354121.953        3628.045
      2832.075
 88  3 23  4 25 32.0800000  0  4G 6G 9G11G13
 -19563386.605 9  22980052.213 8  21003799.956    21003802.620         380.879
       301.250
 -12247796.870 9 -12654798.583 9  22325200.851    22325202.521        2714.439
      2112.544
  -9765482.081 8 -10641388.641 7  21471804.256    21471807.603        1179.894
       922.747
 -25659650.823 8  29574887.690 8  24333415.341    24333418.195        3616.674
      2824.575
 88  3 23  4 26  2.0800000  0  4G 6G 9G11G13
 -19574417.443 8  22971456.745 9  21001701.444    21001703.229         351.725
       289.879
 -12328966.852 9 -12718047.900 9  22309753.867    22309755.949        2710.962
      2098.252
  -9800605.943 9 -10668757.865 7  21465120.476    21465123.297        1139.631
       914.756
 -25768211.070 8  29490295.335 8  24312756.507    24312760.619        3610.844
      2825.538
 88  3 23  4 26 32.0800000  0  4G 6G 9G11G13
 -19584984.250 9  22963222.878 8  20999691.669    20999692.096         346.055
       251.397
 -12409920.793 9 -12781128.869 9  22294349.721    22294351.300        2701.967
      2116.732
  -9835194.594 8 -10695710.047 7  21458538.175    21458542.977        1143.068
       893.368
 -25876531.038 8  29405890.206 8  24292144.449    24292148.084        3586.834
      2817.268
 88  3 23  4 27  2.0800000  0  4G 6G 9G11G13
 -19595086.175 9  22955351.243 9  20997768.434    20997769.295         347.618
       256.834
 -12490656.462 9 -12844039.765 9  22278985.533    22278987.290        2682.900
      2082.165
  -9869248.708 9 -10722245.709 9  21452057.571    21452061.605        1134.560
       887.291
 -25984608.635 8  29321673.946 8  24271577.335    24271579.898        3606.961
      2799.689
 88  3 23  4 27 32.0800000  0  4G 6G 9G11G13
 -19604719.846 9  22947844.480 8  20995935.585    20995937.316         313.344
       244.568
 -12571170.253 9 -12906777.763 8  22263665.234    22263665.528        2671.417
      2074.994
  -9902766.718 9 -10748363.622 9  21445680.173    21445683.223        1105.708
       854.694
 -26092439.942 9  29237649.602 8  24251057.404    24251061.847        3594.138
      2773.995
 88  3 23  4 28  2.0800000  0  4G 6G 9G11G13
 -19613882.361 9  22940704.858 9  20994192.267    20994193.314         294.493
       233.694
 -12651458.021 9 -12969339.643 9  22248386.455    22248388.198        2671.999
      2081.431
  -9935747.448 9 -10774062.887 8  21439404.058    21439406.819        1093.611
       852.879
 -26200022.019 8  29153819.449 9  24230584.562    24230588.725        3584.824
      2786.447
 88  3 23  4 28 32.0800000  0  4G 6G 9G11G13
 -19622573.091 9  22933932.868 8  20992538.447    20992539.927         285.035
       213.655
 -12731518.276 9 -13031724.251 9  22233151.575    22233152.630        2671.282
      2080.648
  -9968192.165 8 -10799344.472 8  21433229.325    21433232.882        1078.428
       834.418
 -26307353.704 8  29070184.417 8  24210161.928    24210164.196        3574.657
      2792.518
 88  3 23  4 29  2.0800000  0  4G 6G 9G11G13
 -19630791.924 9  22927528.580 8  20990973.961    20990975.934         267.516
       207.286
 -12811350.149 9 -13093930.887 9  22217959.937    22217961.622        2671.250
      2081.773
 -10000102.027 8 -10824209.283 8  21427158.626    21427160.115        1052.942
       817.784
 -26414434.206 9  28986745.076 8  24189784.958    24189786.796        3584.226
      2772.926
 88  3 23  4 29 32.0800000  0  4G 6G 9G11G13
 -19638535.635 9  22921494.511 9  20989500.807    20989502.301         253.002
       185.829
 -12890949.501 9 -13155956.339 9  22202812.233    22202815.358        2649.592
      2065.599
 -10031475.705 9 -10848656.286 7  21421186.279    21421189.308        1025.773
       808.072
 -26521260.079 9  28903504.150 9  24169456.545    24169459.376        3560.566
      2773.448
 88  3 23  4 30  2.0800000  0  4G 6G 9G11G13
 -19645801.463 9  22915832.816 9  20988117.602    20988120.080         243.672
       190.651
 -12970312.204 9 -13217797.396 9  22187709.672    22187712.038        2637.758
      2067.842
 -10062312.011 9 -10872684.557 7  21415319.480    21415320.729        1031.411
       794.258
 -26627827.893 8  28820464.326 8  24149176.887    24149179.949        3559.856
      2765.817
 88  3 23  4 30 32.0800000  0  4G 6G 9G11G13
 -19652588.403 9  22910544.283 8  20986825.944    20986827.279         222.102
       180.728
 -13049436.848 9 -13279452.937 8  22172653.934    22172654.187        2625.653
      2062.572
 -10092611.863 8 -10896294.813 9  21409552.598    21409555.670        1011.077
       781.644
 -26734136.430 9  28737626.516 8  24128946.665    24128950.362        3533.334
      2765.383
 88  3 23  4 31  2.0800000  0  4G 6G 9G11G13
 -19658894.887 9  22905630.142 9  20985626.031    20985627.512         198.362
       161.335
 -13128320.463 9 -13340920.684 9  22157642.384    22157644.103        2613.356
      2034.020
 -10122375.075 9 -10919486.908 8  21403889.142    21403891.600         982.417
       769.006
 -26840183.531 9  28654992.437 8  24108766.059    24108771.020        3535.160
      2759.517
 88  3 23  4 31 32.0800000  0  4G 6G 9G11G13
 -19664720.093 8  22901091.031 9  20984517.964    20984519.734         181.608
       137.424
 -13206961.267 8 -13402199.206 9  22142676.868    22142679.178        2638.826
      2041.738
 -10151602.563 8 -10942261.563 8  21398327.221    21398330.299         960.575
       774.958
 -26945967.560 9  28572563.343 8  24088636.050    24088639.634        3527.217
      2758.715
 88  3 23  4 32  2.0800000  0  4G 6G 9G11G13
 -19670062.056 8  22896928.459 9  20983500.764    20983502.924         179.367
       120.050
 -13285356.646 9 -13463286.492 9  22127758.779    22127761.046        2610.748
      2027.558
 -10180294.085 8 -10964618.595 8  21392867.555    21392871.634         957.314
       728.007
 -27051485.938 8  28490341.268 9  24068558.594    24068560.451        3515.359
      2737.265
 88  3 23  4 32 32.0800000  0  4G 6G 9G11G13
 -19674918.492 9  22893144.220 9  20982577.224    20982579.339         150.923
       132.714
 -13363503.031 9 -13524179.757 8  22112888.859    22112890.487        2604.305
      2028.508
 -10208449.163 9 -10986557.604 8  21387510.010    21387512.658         938.151
       727.963
 -27156735.887 8  28408328.338 8  24048527.837    24048532.185        3501.851
      2726.857
 88  3 23  4 33  2.0800000  0  4G 6G 9G11G13
 -19679287.020 9  22889740.165 9  20981746.060    20981747.627         122.797
       103.149
 -13441396.553 9 -13584875.993 9  22098065.577    22098067.439        2607.312
      2011.253
 -10236067.346 9 -11008078.263 8  21382254.834    21382258.338         904.970
       706.588
 -27261714.777 9  28326526.635 8  24028552.977    24028556.170        3504.275
      2717.362
 88  3 23  4 33 32.0800000  0  4G 6G 9G11G13
 -19683167.579 9  22886716.335 8  20981007.068    20981009.999         123.706
        92.281
 -13519036.628 9 -13645374.733 9  22083291.327    22083293.876        2578.293
      2013.477
 -10263150.091 9 -11029181.681 7  21377101.445    21377103.567         900.759
       693.800
 -27366422.303 9  28244936.371 9  24008626.993    24008629.482        3498.294
      2719.668
 88  3 23  4 34  2.0800000  0  4G 6G 9G11G13
 -19686558.911 9  22884073.733 9  20980362.221    20980363.814         112.765
        91.355
 -13596420.787 9 -13705674.072 9  22068566.220    22068566.922        2573.747
      2012.688
 -10289697.973 8 -11049868.342 8  21372049.042    21372051.774         872.945
       685.449
 -27470855.950 9  28163559.519 8  23988753.992    23988756.697        3487.633
      2705.103
 88  3 23  4 34 32.0800000  0  4G 6G 9G11G13
 -19689457.807 9  22881814.863 8  20979809.650    20979811.870         100.565
        79.860
 -13673544.507 9 -13765770.463 9  22053889.720    22053891.066        2563.532
      2001.044
 -10315709.542 9 -11070137.085 8  21367099.300    21367101.535         872.315
       678.949
 -27575012.102 9  28082398.898 9  23968934.207    23968936.407        3479.188
      2713.752
 88  3 23  4 35  2.0800000  0  4G 6G 9G11G13
 -19691862.294 8  22879941.244 9  20979352.904    20979354.377          71.761
        56.626
 -13750404.588 9 -13825661.422 8  22039263.985    22039265.516        2550.749
      1994.271
 -10341184.664 9 -11089987.800 8  21362250.804    21362254.383         861.286
       655.380
 -27678888.912 8  28001455.978 9  23949166.411    23949170.061        3466.102
      2688.555
 88  3 23  4 35 32.0800000  0  4G 6G 9G11G13
 -19693771.161 9  22878453.801 9  20978988.894    20978990.436          57.160
        43.447
 -13826998.881 9 -13885345.251 9  22024689.087    22024690.033        2555.678
      1977.823
 -10366123.723 9 -11109420.832 7  21357505.184    21357508.359         831.893
       652.603
 -27782484.076 8  27920732.513 9  23929453.242    23929455.656        3450.974
      2688.574
 88  3 23  4 36  2.0800000  0  4G 6G 9G11G13
 -19695183.817 9  22877353.030 9  20978720.232    20978722.791          40.326
        28.061
 -13903325.601 9 -13944820.608 9  22010163.922    22010164.677        2540.016
      1971.118
 -10390527.886 9 -11128437.045 8  21352860.833    21352864.451         809.788
       620.335
 -27885796.647 8  27840229.234 8  23909793.820    23909795.482        3432.243
      2694.514
 88  3 23  4 36 32.0800000  0  4G 6G 9G11G13
 -19696098.520 8  22876640.258 9  20978546.617    20978549.012          21.762
        22.935
 -13979381.384 9 -14004084.839 8  21995690.961    21995692.168        2529.410
      1973.896
 -10414397.311 9 -11147036.583 9  21348319.385    21348323.352         783.592
       603.184
 -27988823.961 8  27759948.243 8  23890187.692    23890191.297        3412.921
      2680.738
 88  3 23  4 37  2.0800000  0  4G 6G 9G11G13
 -19696512.402 8  22876317.749 9  20978468.252    20978469.868          17.368
         9.613
 -14055162.420 9 -14063134.978 8  21981270.027    21981270.510        2513.310
      1958.703
 -10437730.865 8 -11165218.561 8  21343878.569    21343881.943         782.587
       598.319
 -28091562.737 8  27679892.055 9  23870636.662    23870640.966        3424.898
      2669.827
 88  3 23  4 37 32.0800000  0  4G 6G 9G11G13
 -19696424.390 9  22876386.330 9  20978484.123    20978485.985         -10.773
        -4.990
 -14130666.558 9 -14121969.363 8  21966902.511    21966903.337        2513.900
      1957.622
 -10460529.538 9 -11182983.755 8  21339540.506    21339544.889         757.739
       582.524
 -28194011.538 9  27600061.848 8  23851141.323    23851145.952        3406.972
      2660.655
 88  3 23  4 38  2.0800000  0  4G 6G 9G11G13
 -19695834.767 9  22876845.763 9  20978597.316    20978598.842         -33.875
       -15.298
 -14205892.312 9 -14180586.839 8  21952587.238    21952588.790        2498.749
      1942.062
 -10482795.240 9 -11200333.633 7  21335303.876    21335305.764         736.073
       576.186
 -28296170.026 8  27520457.845 8  23831701.978    23831705.034        3402.108
      2654.460
 88  3 23  4 38 32.0800000  0  4G 6G 9G11G13
 -19694740.978 9  22877698.053 9  20978805.142    20978806.007         -42.328
       -41.166
 -14280835.986 9 -14238984.502 9  21938325.802    21938327.200        2482.114
      1960.865
 -10504527.171 8 -11217267.589 9  21331167.327    21331170.852         716.344
       562.758
 -28398034.522 9  27441082.934 8  23812317.866    23812320.631        3374.748
      2651.273
 88  3 23  4 39  2.0800000  0  4G 6G 9G11G13
 -19693140.447 9  22878945.210 9  20979109.918    20979110.547         -59.895
       -45.547
 -14355493.695 9 -14297159.332 8  21924118.665    21924119.988        2483.837
      1939.334
 -10525724.569 9 -11233785.029 7  21327134.489    21327137.469         688.681
       529.825
 -28499602.478 9  27361939.095 8  23792989.439    23792992.709        3409.061
      2632.128
 88  3 23  4 39 32.0800000  0  4G 6G 9G11G13
 -19691033.342 9  22880587.102 8  20979509.594    20979511.804         -71.171
       -45.354
 -14429864.497 9 -14355110.588 9  21909966.869    21909968.125        2489.618
      1941.180
 -10546389.421 9 -11249887.500 8  21323201.432    21323205.968         699.734
       550.268
 -28600873.144 9  27283026.924 9  23773719.078    23773722.808        3361.885
      2624.435
 88  3 23  4 40  2.0800000  0  4G 6G 9G11G13
 -19688417.548 9  22882625.365 9  20980008.426    20980010.368         -96.330
       -79.524
 -14503944.609 9 -14412835.330 9  21895869.325    21895871.531        2467.473
      1911.192
 -10566521.286 8 -11265574.652 8  21319372.021    21319374.241         684.598
       517.217
 -28701843.805 8  27204348.503 7  23754503.738    23754507.955        3367.682
      2620.993
 88  3 23  4 40 32.0800000  0  4G 6G 9G11G13
 -19685290.891 9  22885061.718 9  20980603.373    20980604.648        -102.048
       -77.424
 -14577730.301 8 -14470330.656 8  21881828.915    21881830.297        2458.622
      1919.258
 -10586120.055 9 -11280846.404 8  21315642.468    21315644.456         634.065
       496.127
 -28802511.608 8  27125906.085 8  23735346.538    23735352.229        3374.636
      2601.488
 88  3 23  4 41  2.0800000  0  4G 6G 9G11G13
 -19681651.973 9  22887897.233 9  20981295.731    20981296.583        -117.454
      -117.670
 -14651219.506 9 -14527594.958 9  21867844.021    21867845.658        2462.059
      1895.962
 -10605186.071 9 -11295703.027 8  21312012.881    21312015.707         640.421
       498.140
 -28902874.930 9  27047700.919 8  23716250.129    23716252.324        3350.458
      2602.923
 88  3 23  4 41 32.0800000  0  4G 6G 9G11G13
 -19677500.760 9  22891131.923 9  20982085.989    20982087.473        -134.535
      -111.028
 -14724410.045 9 -14584626.553 9  21853916.716    21853918.473        2435.927
      1895.310
 -10623720.779 9 -11310145.642 8  21308487.352    21308488.693         616.474
       472.633
 -29002932.618 9  26969733.911 8  23697209.144    23697212.166        3322.452
      2597.561
 88  3 23  4 42  2.0800000  0  4G 6G 9G11G13
 -19672836.287 9  22894766.564 9  20982973.657    20982975.167        -166.154
      -138.356
 -14797299.544 9 -14641423.546 9  21840045.970    21840047.465        2425.616
      1899.200
 -10641725.214 8 -11324175.061 8  21305060.724    21305062.857         604.719
       452.705
 -29102683.635 9  26892005.852 8  23678226.415    23678230.477        3323.257
      2590.558
 88  3 23  4 42 32.0800000  0  4G 6G 9G11G13
 -19667656.151 9  22898803.019 8  20983958.410    20983960.825        -180.587
      -149.050
 -14869884.518 9 -14697983.259 9  21826233.340    21826234.507        2407.442
      1881.733
 -10659199.063 9 -11337791.029 8  21301734.833    21301736.702         569.855
       452.028
 -29202124.151 9  26814519.745 8  23659303.626    23659307.154        3304.956
      2573.954
 88  3 23  4 43  2.0800000  0  4G 6G 9G11G13
 -19661958.416 9  22903242.810 9  20985043.302    20985045.752        -193.753
      -148.472
 -14942161.123 9 -14754302.680 8  21812479.894    21812481.617        2387.929
      1874.264
 -10676142.463 8 -11350993.675 8  21298510.912    21298513.385         545.159
       426.446
 -29301252.000 8  26737277.286 9  23640440.196    23640443.725        3303.600
      2562.036
 88  3 23  4 43 32.0800000  0  4G 6G 9G11G13
 -19655742.440 9  22908086.425 8  20986225.414    20986227.247        -204.096
      -176.297
 -15014127.483 9 -14810380.346 8  21798784.787    21798786.418        2383.631
      1878.154
 -10692556.670 9 -11363783.960 8  21295387.702    21295390.833         519.402
       430.236
 -29400065.690 8  26660279.643 8  23621636.679    23621640.579        3302.891
      2561.688
 88  3 23  4 44  2.0800000  0  4G 6G 9G11G13
 -19649006.474 9  22913335.217 8  20987508.079    20987510.160        -238.577
      -178.329
 -15085780.150 9 -14866213.586 8  21785150.280    21785152.390        2406.031
      1849.682
 -10708441.117 8 -11376161.444 8  21292365.532    21292367.694         504.625
       404.592
 -29498562.938 9  26583528.564 8  23602894.382    23602897.895        3285.275
      2563.832
 88  3 23  4 44 32.0800000  0  4G 6G 9G11G13
 -19641749.321 9  22918990.122 9  20988888.824    20988891.435        -256.543
      -191.788
 -15157116.203 9 -14921800.101 8  21771575.284    21771576.647        2363.384
      1854.641
 -10723796.615 9 -11388126.750 9  21289441.294    21289445.383         523.389
       380.955
 -29596741.901 8  26507025.497 9  23584210.733    23584214.596        3279.534
      2549.652
 88  3 23  4 45  2.0800000  0  4G 6G 9G11G13
 -19633970.613 9  22925051.434 9  20990369.939    20990370.931        -273.465
      -207.795
 -15228134.156 9 -14977138.767 8  21758060.473    21758062.527        2356.677
      1839.976
 -10738624.813 8 -11399681.191 8  21286621.698    21286623.631         466.221
       375.934
 -29694601.629 8  26430771.208 8  23565590.042    23565591.162        3271.615
      2541.755
 88  3 23  4 45 32.0800000  0  4G 6G 9G11G13
 -19625669.299 9  22931519.986 8  20991949.535    20991951.522        -283.552
      -224.796
 -15298830.970 9 -15032227.186 8  21744607.722    21744609.102        2342.627
      1837.770
 -10752926.617 8 -11410825.436 9  21283899.778    21283901.025         465.830
       358.610
 -29792139.969 8  26354767.318 8  23547026.506    23547031.374        3243.761
      2516.744
 88  3 23  4 46  2.0800000  0  4G 6G 9G11G13
 -19616842.859 8  22938397.715 9  20993627.882    20993630.345        -310.665
      -239.467
 -15369202.445 9 -15087062.097 8  21731215.831    21731218.217        2343.584
      1827.455
 -10766701.180 9 -11421558.845 8  21281278.495    21281281.207         454.211
       354.242
 -29889352.979 9  26279016.945 9  23528528.970    23528531.906        3240.499
      2514.420
 88  3 23  4 46 32.0800000  0  4G 6G 9G11G13
 -19607489.656 9  22945685.919 9  20995407.732    20995410.543        -307.722
      -247.222
 -15439245.550 9 -15141641.117 9  21717887.149    21717888.601        2327.284
      1819.700
 -10779948.848 9 -11431881.692 8  21278757.275    21278759.178         429.419
       339.074
 -29986239.544 9  26203520.924 8  23510091.703    23510094.837        3250.858
      2518.142
 88  3 23  4 47  2.0800000  0  4G 6G 9G11G13
 -19597610.204 8  22953384.186 9  20997288.028    20997290.101        -351.063
      -256.517
 -15508958.846 8 -15195963.161 8  21704620.151    21704623.782        2326.184
      1811.616
 -10792671.651 8 -11441795.557 8  21276335.939    21276338.150         411.820
       320.401
 -30082798.915 9  26128279.873 9  23491717.456    23491720.173        3213.626
      2515.762
 88  3 23  4 47 32.0800000  0  4G 6G 9G11G13
 -19587203.315 9  22961493.436 8  20999268.945    20999270.202        -349.149
      -274.817
 -15578339.703 9 -15250026.146 8  21691416.990    21691420.207        2306.902
      1793.938
 -10804870.770 9 -11451301.351 8  21274014.410    21274017.105         401.636
       318.854
 -30179029.733 9  26053294.826 8  23473404.578    23473407.763        3191.497
      2490.920
 88  3 23  4 48  2.0800000  0  4G 6G 9G11G13
 -19576266.106 8  22970015.915 9  21001350.168    21001352.565        -356.765
      -284.337
 -15647383.189 9 -15303826.261 8  21678280.445    21678282.165        2289.948
      1801.264
 -10816545.049 9 -11460398.178 8  21271793.603    21271794.895         380.520
       287.984
 -30274928.060 9  25978568.863 8  23455156.109    23455159.304        3186.505
      2490.746
 88  3 23  4 48 32.0800000  0  4G 6G 9G11G13
 -19564798.635 9  22978951.593 8  21003531.686    21003533.626        -376.222
      -303.873
 -15716087.864 9 -15357362.367 8  21665206.178    21665208.514        2271.097
      1789.812
 -10827696.325 9 -11469087.469 7  21269671.626    21269673.855         350.736
       298.628
 -30370493.164 9  25904102.556 9  23436970.947    23436974.667        3182.733
      2473.005
 88  3 23  4 49  2.0800000  0  4G 6G 9G11G13
 -19552800.452 9  22988300.804 8  21005815.275    21005816.787        -421.245
      -319.022
 -15784451.911 9 -15410633.042 8  21652198.055    21652198.665        2277.476
      1777.782
 -10838325.910 9 -11477370.258 8  21267648.766    21267651.057         347.977
       268.653
 -30465723.909 9  25829896.798 9  23418848.778    23418851.592        3168.587
      2457.222
 88  3 23  4 49 32.0800000  0  4G 6G 9G11G13
 -19540269.890 8  22998064.866 9  21008199.177    21008201.288        -416.245
      -332.462
 -15852471.053 9 -15463634.978 9  21639253.870    21639254.609        2251.871
      1760.117
 -10848433.948 9 -11485246.638 8  21265725.584    21265726.301         326.526
       250.695
 -30560617.469 8  25755953.785 9  23400791.359    23400794.635        3160.078
      2466.736
 88  3 23  4 50  2.0800000  0  4G 6G 9G11G13
 -19527205.018 9  23008245.273 9  21010686.766    21010687.637        -450.272
      -354.428
 -15920142.311 9 -15516365.822 9  21626375.577    21626376.690        2256.982
      1758.625
 -10858020.892 8 -11492716.981 8  21263901.842    21263903.672         299.549
       234.956
 -30655171.755 8  25682275.151 9  23382798.227    23382801.030        3133.571
      2445.503
 88  3 23  4 50 32.0800000  0  4G 6G 9G11G13
 -19513605.721 9  23018842.121 8  21013275.167    21013275.751        -455.136
      -357.529
 -15987463.244 9 -15568823.682 8  21613565.170    21613567.079        2235.595
      1752.902
 -10867088.250 9 -11499782.450 7  21262175.413    21262177.669         277.819
       239.610
 -30749385.420 8  25608861.919 9  23364869.293    23364873.563        3145.405
      2441.787
 88  3 23  4 51  2.0800000  0  4G 6G 9G11G13
 -19499471.318 9  23029855.930 9  21015963.294    21015965.050        -469.961
      -370.317
 -16054431.514 8 -15621006.741 9  21600820.924    21600823.213        2236.241
      1736.622
 -10875636.891 8 -11506443.704 8  21260548.490    21260551.584         276.822
       206.646
 -30843257.153 8  25535715.175 9  23347005.736    23347009.377        3101.331
      2437.891
 88  3 23  4 51 32.0800000  0  4G 6G 9G11G13
 -19484800.546 9  23041287.686 8  21018756.160    21018757.336        -496.946
      -385.354
 -16121043.905 8 -15672912.484 9  21588144.075    21588147.659        2208.020
      1730.657
 -10883667.570 9 -11512701.380 8  21259020.933    21259022.506         261.391
       206.223
 -30936784.864 9  25462836.449 8  23329209.043    23329211.370        3120.015
      2426.334
 88  3 23  4 52  2.0800000  0  4G 6G 9G11G13
 -19469591.479 9  23053138.900 8  21021649.168    21021650.990        -520.542
      -398.968
 -16187296.758 9 -15724538.067 9  21575537.692    21575539.785        2195.269
      1723.828
 -10891180.481 8 -11518555.591 8  21257590.835    21257592.644         248.266
       178.864
 -31029965.809 9  25390227.939 9  23311477.780    23311479.654        3097.296
      2423.811
 88  3 23  4 52 32.0800000  0  4G 6G 9G11G13
 -19453842.933 9  23065410.484 8  21024646.607    21024648.431        -539.433
      -411.607
 -16253186.923 8 -15775881.034 9  21562999.259    21563000.949        2189.041
      1696.382
 -10898176.127 8 -11524006.741 7  21256259.174    21256261.537         219.717
       182.611
 -31122797.514 9  25317891.563 9  23293812.733    23293814.825        3078.062
      2406.804
 88  3 23  4 53  2.0800000  0  4G 6G 9G11G13
 -19437556.084 9  23078101.525 8  21027746.192    21027747.517        -538.205
      -428.186
 -16318713.473 9 -15826940.680 8  21550531.000    21550532.300        2186.521
      1703.030
 -10904657.384 9 -11529057.057 9  21255026.126    21255028.587         201.759
       159.471
 -31215281.178 9  25245826.377 9  23276212.935    23276215.576        3074.489
      2391.953
 88  3 23  4 53 32.0800000  0  4G 6G 9G11G13
 -19420729.033 9  23091213.496 8  21030947.912    21030949.671        -559.002
      -434.691
 -16383872.782 8 -15877714.156 9  21538130.756    21538133.507        2168.850
      1672.831
 -10910624.134 9 -11533706.474 8  21253890.707    21253893.994         191.648
       156.892
 -31307413.109 9  25174035.282 9  23258680.607    23258684.441        3073.955
      2379.252
 88  3 23  4 54  2.0800000  0  4G 6G 9G11G13
 -19403360.214 9  23104747.623 8  21034252.324    21034255.057        -598.133
      -449.437
 -16448661.283 9 -15928198.687 8  21525802.352    21525802.602        2152.446
      1684.209
 -10916076.973 8 -11537955.437 8  21252852.876    21252854.629         179.798
       140.332
 -31399191.670 9  25102519.515 8  23241216.031    23241219.755        3056.698
      2399.720
 88  3 23  4 54 32.0800000  0  4G 6G 9G11G13
 -19385449.174 9  23118704.273 9  21037661.507    21037663.715        -600.549
      -462.598
 -16513076.372 8 -15978392.269 9  21513544.581    21513544.970        2149.440
      1662.268
 -10921017.220 9 -11541804.981 8  21251912.852    21251915.762         163.275
       132.720
 -31490615.409 9  25031280.254 8  23223818.259    23223821.917        3045.175
      2359.989
 88  3 23  4 55  2.0800000  0  4G 6G 9G11G13
 -19366995.803 8  23133083.522 9  21041172.386    21041174.481        -618.411
      -492.772
 -16577116.133 9 -16028293.365 8  21501357.128    21501359.888        2133.045
      1657.943
 -10925446.687 9 -11545256.500 7  21251070.046    21251071.507         126.170
       110.332
 -31581683.746 9  24960317.939 8  23206489.440    23206491.975        3022.185
      2362.499
 88  3 23  4 55 32.0800000  0  4G 6G 9G11G13
 -19347998.832 9  23147886.351 9  21044788.242    21044790.220        -638.124
      -510.177
 -16640777.234 9 -16077899.406 8  21489244.096    21489245.894        2115.102
      1650.667
 -10929365.841 9 -11548310.380 9  21250324.788    21250326.913         123.467
        81.699
 -31672393.858 9  24889634.748 8  23189226.873    23189230.234        3019.825
      2348.605
 88  3 23  4 56  2.0800000  0  4G 6G 9G11G13
 -19328456.016 8  23163114.507 9  21048506.013    21048508.930        -649.057
      -508.983
 -16704055.339 8 -16127207.000 8  21477202.428    21477203.220        2092.463
      1642.297
 -10932774.191 9 -11550966.224 8  21249675.905    21249678.878          93.723
        80.139
 -31762742.958 8  24819232.859 8  23172033.652    23172036.971        3022.935
      2332.561
 88  3 23  4 56 32.0800000  0  4G 6G 9G11G13
 -19308367.797 9  23178767.656 8  21052330.023    21052331.802        -688.825
      -532.950
 -16766948.736 9 -16176214.831 9  21465234.286    21465235.413        2088.476
      1628.465
 -10935674.039 8 -11553225.826 8  21249123.690    21249125.290          91.163
        60.970
 -31852730.520 8  24749112.721 8  23154909.588    23154913.264        2997.712
      2347.561
 88  3 23  4 57  2.0800000  0  4G 6G 9G11G13
 -19287733.510 8  23194846.308 8  21056257.246    21056258.273        -710.930
      -539.823
 -16829454.969 9 -16224920.999 8  21453339.613    21453341.232        2068.995
      1632.510
 -10938066.838 9 -11555090.339 8  21248668.371    21248670.671          56.068
        64.984
 -31942354.897 8  24679275.579 9  23137854.635    23137858.926        2970.687
      2328.796
 88  3 23  4 57 32.0800000  0  4G 6G 9G11G13
 -19266553.260 9  23211350.379 8  21060286.052    21060288.185        -704.199
      -566.884
 -16891571.731 8 -16273323.665 8  21441518.799    21441520.216        2080.621
      1613.341
 -10939954.279 9 -11556561.065 8  21248309.019    21248311.964          46.490
        44.230
 -32031615.369 8  24609721.977 8  23120869.824    23120872.376        2967.856
      2312.317
 88  3 23  4 58  2.0800000  0  4G 6G 9G11G13
 -19244824.912 9  23228281.536 8  21064420.831    21064423.310        -750.323
      -561.254
 -16953294.854 9 -16321419.604 9  21429772.966    21429774.498        2067.647
      1598.241
 -10941336.276 8 -11557637.937 8  21248046.582    21248049.366          44.601
        34.853
 -32120508.921 8  24540454.304 8  23103953.549    23103957.161        2934.675
      2310.645
 88  3 23  4 58 32.0800000  0  4G 6G 9G11G13
 -19222547.526 9  23245640.522 9  21068660.844    21068662.798        -735.260
      -581.256
 -17014621.435 9 -16369206.555 8  21418104.085    21418104.948        2036.244
      1600.410
 -10942213.764 8 -11558321.683 8  21247878.726    21247880.988          37.511
         9.582
 -32209033.763 9  24471473.935 9  23087107.102    23087111.087        2938.742
      2305.656
 88  3 23  4 59  2.0800000  0  4G 6G 9G11G13
 -19199721.342 9  23263427.144 8  21073004.435    21073007.232        -765.092
      -586.364
 -17075549.257 8 -16416682.770 8  21406509.628    21406511.190        2010.997
      1587.808
 -10942588.543 9 -11558613.712 7  21247808.853    21247811.133          -4.123
       -13.614
 -32297189.145 9  24402781.443 8  23070332.244    23070334.742        2923.056
      2274.382
 88  3 23  4 59 32.0800000  0  4G 6G 9G11G13
 -19176346.216 9  23281641.521 8  21077452.642    21077454.171        -799.310
      -607.578
 -17136076.098 9 -16463846.537 8  21394991.095    21394992.742        2012.185
      1557.019
 -10942462.329 9 -11558515.354 8  21247831.692    21247833.453         -23.189
       -21.220
 -32384973.590 9  24334377.985 8  23053627.418    23053629.970        2934.794
      2277.942
 88  3 23  5  0  2.0800000  0  4G 6G 9G11G13
 -19152420.942 9  23300284.570 8  21082003.382    21082007.838        -807.340
      -623.920
 -17196198.590 9 -16510695.233 8  21383549.340    21383551.941        2007.783
      1566.072
 -10941835.754 9 -11558027.094 8  21247951.408    21247953.956         -21.180
       -19.225
 -32472385.666 9  24266264.705 9  23036993.538    23036997.138        2918.551
      2273.431
 88  3 23  5  0 32.0800000  0  4G 6G 9G11G13
 -19127944.236 9  23319357.314 8  21086663.193    21086664.716        -813.632
      -646.115
 -17255913.229 8 -16557226.122 8  21372186.419    21372188.712        2002.552
      1545.492
 -10940709.365 9 -11557149.395 8  21248165.085    21248167.465         -43.596
       -28.931
 -32559422.910 9  24198443.496 8  23020430.320    23020434.249        2903.104
      2250.993
 88  3 23  5  1  2.0800000  0  4G 6G 9G11G13
 -19102916.131 9  23338859.720 9  21091425.362    21091427.904        -832.012
      -653.703
 -17315217.730 9 -16603437.415 9  21360901.527    21360904.043        1964.275
      1527.758
 -10939084.834 9 -11555883.523 7  21248473.662    21248476.502         -52.232
       -55.060
 -32646084.159 9  24130915.245 9  23003939.934    23003942.962        2891.916
      2241.250
 88  3 23  5  1 32.0800000  0  4G 6G 9G11G13
 -19077336.991 9  23358791.493 9  21096292.779    21096294.928        -857.498
      -667.410
 -17374110.468 8 -16649327.849 8  21349694.584    21349697.098        1950.121
      1519.786
 -10936964.627 9 -11554231.417 8  21248877.821    21248879.978         -94.759
       -52.544
 -32732368.901 9  24063680.407 8  22987520.456    22987523.282        2851.542
      2236.465
 88  3 23  5  2  2.0800000  0  4G 6G 9G11G13
 -19051205.363 9  23379153.788 9  21101266.619    21101267.679        -874.189
      -677.632
 -17432587.426 9 -16694894.302 9  21338565.978    21338568.850        1938.279
      1513.665
 -10934348.931 9 -11552193.185 8  21249376.157    21249377.985         -86.498
       -59.764
 -32818274.842 9  23996740.718 9  22971172.220    22971175.158        2852.387
      2222.876
 88  3 23  5  2 32.0800000  0  4G 6G 9G11G13
 -19024519.638 9  23399947.829 9  21106343.914    21106346.189        -916.341
      -695.329
 -17490644.846 8 -16740133.828 8  21327519.674    21327521.337        1921.429
      1515.107
 -10931237.691 9 -11549768.822 8  21249967.526    21249969.731        -121.625
       -82.998
 -32903799.603 9  23930098.081 8  22954897.725    22954901.372        2833.576
      2219.651
 88  3 23  5  3  2.0800000  0  4G 6G 9G11G13
 -18997280.930 9  23421172.782 9  21111527.067    21111529.568        -923.741
      -721.377
 -17548281.315 9 -16785045.355 7  21316551.140    21316552.998        1913.040
      1485.592
 -10927634.082 9 -11546960.808 8  21250654.226    21250654.892        -134.057
       -87.950
 -32988943.135 8  23863752.489 8  22938696.193    22938697.618        2823.576
      2196.225
 88  3 23  5  3 32.0800000  0  4G 6G 9G11G13
 -18969489.339 9  23442828.553 9  21116816.359    21116818.864        -940.384
      -714.492
 -17605494.674 9 -16829627.200 9  21305663.525    21305664.919        1896.589
      1486.145
 -10923540.120 9 -11543770.697 8  21251432.295    21251434.497        -133.052
      -116.856
 -33073703.804 9  23797705.227 8  22922565.521    22922568.468        2844.828
      2192.422
 88  3 23  5  4  2.0800000  0  4G 6G 9G11G13
 -18941143.155 9  23464916.485 8  21122209.965    21122212.249        -955.918
      -734.898
 -17662280.812 9 -16873876.150 9  21294859.048    21294858.926        1882.793
      1475.699
 -10918955.679 9 -11540198.395 7  21252304.714    21252306.955        -171.839
      -118.453
 -33158079.530 9  23731957.939 7  22906509.583    22906512.386        2804.693
      2188.060
 88  3 23  5  4 32.0800000  0  4G 6G 9G11G13
 -18912241.310 9  23487437.386 8  21127710.010    21127711.739        -967.584
      -756.503
 -17718636.553 9 -16917789.721 9  21284134.772    21284135.753        1871.637
      1466.397
 -10913881.320 9 -11536244.361 8  21253270.520    21253273.421        -188.689
      -140.108
 -33242068.352 9  23666512.109 8  22890527.546    22890530.692        2776.065
      2193.677
 88  3 23  5  5  2.0800000  0  4G 6G 9G11G13
 -18882783.663 8  23510391.380 8  21133315.590    21133317.356        -992.536
      -762.083
 -17774559.346 9 -16961365.905 8  21273492.124    21273494.042        1860.218
      1439.001
 -10908318.949 9 -11531910.039 8  21254328.993    21254330.863        -186.672
      -149.603
 -33325669.214 9  23601368.608 8  22874619.257    22874621.219        2781.208
      2176.477
 88  3 23  5  5 32.0800000  0  4G 6G 9G11G13
 -18852771.342 9  23533777.566 9  21139027.140    21139029.053       -1011.994
      -795.414
 -17830047.684 9 -17004603.569 8  21262933.024    21262935.022        1844.540
      1438.814
 -10902271.371 9 -11527197.642 8  21255479.641    21255482.215        -205.571
      -157.147
 -33408882.194 8  23536527.335 9  22858784.614    22858786.014        2779.039
      2168.430
 88  3 23  5  6  2.0800000  0  4G 6G 9G11G13
 -18822203.891 8  23557596.347 8  21144844.127    21144844.797       -1033.070
      -790.195
 -17885098.904 9 -17047500.608 8  21252456.245    21252458.952        1832.268
      1416.681
 -10895739.906 9 -11522108.175 8  21256723.439    21256725.405        -207.844
      -190.751
 -33491705.139 9  23471990.011 9  22843023.213    22843025.705        2757.325
      2148.074
 88  3 23  5  6 32.0800000  0  4G 6G 9G11G13
 -18791079.615 9  23581849.017 9  21150766.835    21150768.438       -1042.376
      -813.235
 -17939708.705 9 -17090053.688 9  21242065.320    21242067.587        1802.268
      1413.226
 -10888724.380 9 -11516641.517 8  21258057.568    21258060.362        -237.620
      -195.324
 -33574135.694 9  23407758.416 9  22827336.518    22827340.484        2744.295
      2144.619
 88  3 23  5  7  2.0800000  0  4G 6G 9G11G13
 -18759398.209 9  23606535.805 8  21156794.880    21156797.855       -1060.629
      -829.310
 -17993874.471 9 -17132260.772 8  21231757.868    21231759.155        1813.488
      1408.609
 -10881226.359 9 -11510798.910 8  21259485.542    21259487.000        -245.961
      -204.489
 -33656172.397 8  23343833.732 9  22811726.608    22811728.796        2737.963
      2137.759
 88  3 23  5  7 32.0800000  0  4G 6G 9G11G13
 -18727160.162 9  23631656.360 9  21162929.675    21162931.282       -1081.466
      -836.835
 -18047594.139 9 -17174120.255 9  21221536.080    21221536.965        1784.462
      1386.047
 -10873248.176 9 -11504582.135 7  21261003.381    21261004.576        -268.210
      -210.200
 -33737814.876 8  23280216.223 9  22796190.468    22796193.940        2733.107
      2117.552
 88  3 23  5  8  2.0800000  0  4G 6G 9G11G13
 -18694365.909 9  23657210.306 8  21169171.295    21169172.982       -1116.266
      -850.928
 -18100865.688 9 -17215630.542 8  21211397.846    21211400.709        1782.484
      1379.721
 -10864791.886 8 -11497992.816 9  21262612.272    21262614.762        -282.898
      -224.784
 -33819062.369 9  23216906.523 8  22780729.365    22780732.545        2708.123
      2101.172
 88  3 23  5  8 32.0800000  0  4G 6G 9G11G13
 -18661014.121 9  23683198.707 8  21175516.481    21175519.839       -1104.967
      -881.898
 -18153685.365 9 -17256788.741 8  21201345.950    21201349.023        1751.815
      1363.217
 -10855857.727 9 -11491031.116 8  21264311.333    21264314.508        -298.727
      -243.916
 -33899912.274 9  23153906.610 8  22765343.618    22765347.274        2678.746
      2085.240
 88  3 23  5  9  2.0800000  0  4G 6G 9G11G13
 -18627105.194 9  23709621.238 8  21181969.279    21181970.914       -1126.163
      -871.738
 -18206050.845 9 -17297593.003 8  21191382.198    21191382.559        1732.772
      1364.013
 -10846447.959 9 -11483698.830 8  21266102.490    21266105.540        -315.163
      -232.942
 -33980364.197 9  23091216.827 8  22750033.766    22750037.765        2672.366
      2096.779
 88  3 23  5  9 32.0800000  0  4G 6G 9G11G13
 -18592638.404 9  23736478.461 8  21188529.244    21188529.857       -1165.452
      -909.512
 -18257959.066 8 -17338040.972 9  21181503.679    21181506.850        1723.609
      1349.162
 -10836563.610 9 -11475996.730 8  21267982.903    21267985.451        -330.960
      -246.998
 -34060416.323 9  23028838.568 9  22734800.499    22734804.156        2662.925
      2072.539
 88  3 23  5 10  2.0800000  0  4G 6G 9G11G13
 -18557613.064 9  23763770.898 8  21195193.142    21195195.440       -1176.505
      -920.765
 -18309406.765 9 -17378130.082 8  21171714.571    21171715.427        1708.091
      1331.564
 -10826205.385 9 -11467925.383 8  21269954.827    21269957.725        -356.199
      -278.185
 -34140066.683 9  22966773.375 7  22719644.173    22719646.543        2640.413
      2073.223
 88  3 23  5 10 32.0800000  0  4G 6G 9G11G13
 -18522029.623 9  23791498.231 8  21201964.293    21201967.129       -1190.292
      -923.182
 -18360391.754 9 -17417858.640 8  21162012.015    21162012.807        1679.974
      1318.590
 -10815375.935 9 -11459486.848 8  21272015.207    21272017.819        -358.049
      -293.800
 -34219314.432 9  22905021.895 8  22704563.820    22704566.714        2646.314
      2062.293
 88  3 23  5 11  2.0800000  0  4G 6G 9G11G13
 -18485888.898 9  23819659.821 9  21208842.301    21208843.599       -1221.201
      -956.252
 -18410912.243 8 -17457225.254 7  21152397.489    21152399.646        1673.283
      1304.994
 -10804077.265 9 -11450682.678 8  21274165.673    21274168.585        -387.362
      -303.425
 -34298159.453 9  22843584.228 9  22689559.380    22689563.600        2632.343
      2037.699
 88  3 23  5 11 32.0800000  0  4G 6G 9G11G13
 -18449190.341 9  23848256.095 8  21215826.291    21215826.373       -1231.296
      -965.852
 -18460965.191 8 -17496227.550 9  21142872.435    21142874.666        1662.853
      1289.658
 -10792310.365 9 -11441513.659 8  21276405.425    21276407.601        -401.852
      -328.560
 -34376600.611 9  22782461.264 8  22674633.114    22674636.676        2619.090
      2024.793
 88  3 23  5 12  2.0800000  0  4G 6G 9G11G13
 -18411933.850 9  23877287.110 8  21222915.283    21222917.207       -1251.942
      -966.063
 -18510547.812 9 -17534863.365 8  21133437.686    21133440.484        1625.349
      1275.970
 -10780076.990 8 -11431981.148 9  21278733.472    21278734.918        -407.211
      -319.761
 -34454636.564 9  22721654.045 9  22659784.001    22659786.842        2593.739
      2015.888
 88  3 23  5 12 32.0800000  0  4G 6G 9G11G13
 -18374118.868 9  23906753.301 9  21230112.017    21230113.203       -1269.151
      -990.707
 -18559656.952 9 -17573130.234 8  21124091.848    21124094.133        1633.674
      1275.833
 -10767378.301 9 -11422086.058 8  21281149.196    21281151.109        -436.867
      -318.108
 -34532265.165 9  22661164.243 9  22645011.131    22645013.839        2589.345
      2017.025
 88  3 23  5 13  2.0800000  0  4G 6G 9G11G13
 -18335744.915 9  23936655.063 8  21237413.620    21237415.827       -1277.532
     -1009.467
 -18608289.455 9 -17611025.675 9  21114838.917    21114840.145        1616.793
      1256.862
 -10754215.274 9 -11411829.148 8  21283654.395    21283656.681        -455.607
      -345.810
 -34609484.453 9  22600993.385 8  22630316.763    22630319.604        2561.547
      2011.961
 88  3 23  5 13 32.0800000  0  4G 6G 9G11G13
 -18296812.448 9  23966992.036 8  21244822.846    21244823.902       -1303.201
     -1019.085
 -18656443.104 9 -17648547.997 8  21105675.349    21105675.900        1592.551
      1247.212
 -10740590.258 8 -11401212.243 8  21286246.174    21286248.793        -454.467
      -356.789
 -34686293.957 9  22541141.843 9  22615699.622    22615703.507        2563.453
      1985.776
 88  3 23  5 14  2.0800000  0  4G 6G 9G11G13
 -18257322.746 9  23997763.227 8  21252336.981    21252338.343       -1328.783
     -1033.172
 -18704116.676 9 -17685696.226 8  21096603.095    21096604.727        1580.095
      1224.606
 -10726505.835 9 -11390237.362 9  21288926.627    21288928.425        -476.428
      -377.767
 -34762694.234 8  22481609.190 9  22601161.399    22601164.661        2552.360
      1980.967
 88  3 23  5 14 32.0800000  0  4G 6G 9G11G13
 -18217275.994 9  24028968.470 9  21259957.794    21259958.942       -1338.416
     -1056.213
 -18751307.599 9 -17722468.372 8  21087621.392    21087624.722        1575.725
      1229.316
 -10711963.904 9 -11378905.982 8  21291694.104    21291696.367        -498.389
      -377.873
 -34838684.362 9  22422396.132 9  22586701.105    22586703.673        2526.340
      1972.094
 88  3 23  5 15  2.0800000  0  4G 6G 9G11G13
 -18176670.398 9  24060609.177 8  21267684.939    21267685.681       -1364.676
     -1066.155
 -18798011.358 8 -17758860.908 8  21078735.241    21078736.398        1545.701
      1202.411
 -10696964.311 9 -11367217.975 9  21294547.996    21294551.048        -513.038
      -394.929
 -34914260.748 8  22363505.465 8  22572318.546    22572322.713        2513.541
      1958.131
 88  3 23  5 15 32.0800000  0  4G 6G 9G11G13
 -18135506.287 9  24092685.094 8  21275517.969    21275519.388       -1388.080
     -1080.888
 -18844225.523 9 -17794871.936 9  21069941.152    21069942.790        1531.100
      1201.373
 -10681508.854 9 -11355174.756 7  21297490.786    21297491.603        -539.617
      -409.737
 -34989422.190 8  22304938.132 9  22558017.781    22558020.518        2505.902
      1953.135
 88  3 23  5 16  2.0800000  0  4G 6G 9G11G13
 -18093784.798 9  24125195.330 8  21283457.934    21283457.871       -1394.197
     -1093.440
 -18889948.453 9 -17830500.198 8  21061240.751    21061241.778        1507.241
      1174.194
 -10665600.585 9 -11342778.706 8  21300516.874    21300519.358        -552.264
      -414.223
 -35064169.469 9  22246693.517 8  22543794.410    22543795.259        2485.408
      1930.467
 88  3 23  5 16 32.0800000  0  4G 6G 9G11G13
 -18051505.876 9  24158139.918 7  21291503.370    21291504.556       -1427.904
     -1113.734
 -18935177.340 8 -17865743.486 8  21052634.840    21052634.961        1528.572
      1171.646
 -10649240.828 9 -11330030.823 9  21303629.760    21303632.654        -551.897
      -436.972
 -35138501.157 8  22188772.730 9  22529647.964    22529649.976        2489.985
      1930.138
 88  3 23  5 17  2.0800000  0  4G 6G 9G11G13
 -18008669.111 9  24191519.203 8  21299654.725    21299655.530       -1453.797
     -1107.868
 -18979909.299 8 -17900599.554 8  21044121.062    21044123.635        1476.787
      1147.860
 -10632430.237 8 -11316931.667 8  21306828.500    21306829.804        -581.044
      -454.582
 -35212415.773 9  22131176.943 7  22515583.565    22515585.301        2472.019
      1900.853
 88  3 23  5 17 32.0800000  0  4G 6G 9G11G13
 -17965275.269 9  24225332.578 7  21307911.502    21307914.068       -1452.489
     -1126.683
 -19024142.151 9 -17935066.721 8  21035702.988    21035706.509        1466.380
      1134.096
 -10615171.279 9 -11303483.127 7  21310112.229    21310115.510        -581.809
      -447.150
 -35285912.741 9  22073906.583 8  22501595.467    22501599.729        2432.043
      1906.134
 88  3 23  5 18  2.0800000  0  4G 6G 9G11G13
 -17921324.774 9  24259579.709 9  21316275.379    21316277.703       -1475.200
     -1140.298
 -19067873.695 9 -17969143.247 8  21027382.401    21027384.604        1447.314
      1120.308
 -10597466.253 9 -11289686.998 9  21313480.538    21313484.824        -587.311
      -473.658
 -35358991.193 8  22016962.339 9  22487689.859    22487692.930        2443.319
      1900.473
 88  3 23  5 18 32.0800000  0  4G 6G 9G11G13
 -17876817.774 9  24294260.471 8  21324745.034    21324746.443       -1489.315
     -1151.408
 -19111101.137 9 -18002826.955 9  21019156.051    21019157.110        1429.866
      1106.116
 -10579316.646 9 -11275544.439 8  21316935.527    21316938.399        -601.912
      -462.660
 -35431650.038 9  21960345.078 9  22473863.629    22473866.794        2412.139
      1887.269
 88  3 23  5 19  2.0800000  0  4G 6G 9G11G13
 -17831754.576 8  24329374.630 9  21333319.118    21333321.804       -1503.549
     -1175.499
 -19153822.097 9 -18036116.008 8  21011026.785    21011028.604        1400.831
      1109.303
 -10560724.386 9 -11261056.969 8  21320474.412    21320476.098        -655.365
      -487.248
 -35503888.210 8  21904055.600 8  22460116.799    22460120.771        2388.958
      1868.168
 88  3 23  5 19 32.0800000  0  4G 6G 9G11G13
 -17786135.525 9  24364921.925 8  21342001.584    21342003.562       -1508.724
     -1189.747
 -19196033.919 9 -18069008.347 8  21002993.480    21002996.258        1407.681
      1085.113
 -10541690.974 8 -11246225.729 9  21324095.751    21324097.281        -635.955
      -494.611
 -35575704.868 8  21848094.600 8  22446449.658    22446453.797        2370.904
      1848.532
 88  3 23  5 20  2.0800000  0  4G 6G 9G11G13
 -17739960.361 9  24400902.562 8  21350787.438    21350790.694       -1540.709
     -1225.706
 -19237733.610 8 -18101501.611 8  20995057.683    20995060.189        1402.458
      1083.982
 -10522217.508 9 -11231051.600 8  21327801.213    21327804.061        -665.651
      -507.206
 -35647098.287 9  21792463.378 8  22432865.573    22432867.935        2362.571
      1857.946
 88  3 23  5 20 32.0800000  0  4G 6G 9G11G13
 -17693229.237 9  24437316.396 8  21359680.723    21359683.315       -1560.869
     -1214.472
 -19278918.589 9 -18133593.807 7  20987222.047    20987223.110        1384.564
      1065.540
 -10502306.153 9 -11215536.247 9  21331590.182    21331593.076        -676.576
      -520.417
 -35718067.835 9  21737162.441 8  22419359.323    22419362.013        2369.779
      1841.822
 88  3 23  5 21  2.0800000  0  4G 6G 9G11G13
 -17645943.338 9  24474162.529 8  21368679.536    21368680.513       -1569.521
     -1238.457
 -19319586.636 8 -18165283.186 8  20979483.383    20979483.449        1357.443
      1061.084
 -10481958.787 9 -11199681.159 9  21335462.125    21335464.825        -672.198
      -542.370
 -35788612.614 9  21682192.500 8  22405935.995    22405938.002        2356.398
      1825.827
 88  3 23  5 21 32.0800000  0  4G 6G 9G11G13
 -17598101.733 9  24511441.686 7  21377782.966    21377783.887       -1595.717
     -1256.614
 -19359735.578 8 -18196568.062 9  20971842.672    20971845.479        1347.196
      1034.278
 -10461177.391 9 -11183487.864 9  21339417.301    21339419.388        -687.876
      -559.924
 -35858732.054 9  21627553.993 8  22392593.479    22392594.866        2339.030
      1810.262
 88  3 23  5 22  2.0800000  0  4G 6G 9G11G13
 -17549707.951 9  24549151.110 8  21386991.242    21386994.969       -1636.473
     -1248.735
 -19399364.181 8 -18227447.491 9  20964300.943    20964303.482        1317.419
      1034.657
 -10439965.388 8 -11166959.019 8  21343453.424    21343456.342        -703.346
      -561.794
 -35928426.573 9  21573246.598 8  22379330.711    22379332.636        2316.335
      1813.251
 88  3 23  5 22 32.0800000  0  4G 6G 9G11G13
 -17500760.020 9  24587292.346 9  21396305.948    21396308.951       -1642.135
     -1281.419
 -19438468.825 8 -18257918.651 8  20956860.583    20956862.614        1281.910
       993.286
 -10418322.863 9 -11150094.704 9  21347571.068    21347574.933        -715.499
      -575.229
 -35997693.821 9  21519272.138 9  22366148.619    22366151.981        2308.760
      1786.985
 88  3 23  5 23  2.0800000  0  4G 6G 9G11G13
 -17451258.434 9  24625864.984 8  21405726.712    21405728.344       -1649.599
     -1301.508
 -19477046.680 9 -18287979.307 8  20949519.172    20949521.235        1295.012
       996.610
 -10396251.374 9 -11132896.139 8  21351772.750    21351775.041        -752.524
      -575.707
 -36066532.787 9  21465631.398 9  22353049.303    22353052.143        2280.076
      1782.853
 88  3 23  5 23 32.0800000  0  4G 6G 9G11G13
 -17401204.541 9  24664868.003 9  21415251.458    21415252.028       -1678.674
     -1310.512
 -19515096.260 8 -18317628.338 8  20942277.225    20942280.113        1264.470
       985.699
 -10373753.697 8 -11115365.476 9  21356052.815    21356055.793        -755.491
      -577.118
 -36134943.217 9  21412324.586 8  22340031.194    22340035.085        2274.550
      1765.317
 88  3 23  5 24  2.0800000  0  4G 6G 9G11G13
 -17350597.299 9  24704302.206 8  21424881.198    21424882.900       -1680.588
     -1309.505
 -19552613.474 8 -18346862.526 8  20935138.163    20935140.908        1241.583
       964.386
 -10350830.249 9 -11097503.043 9  21360416.273    21360417.843        -754.733
      -592.795
 -36202923.057 9  21359353.289 9  22327095.215    22327098.166        2261.240
      1761.850
 88  3 23  5 24 32.0800000  0  4G 6G 9G11G13
 -17299438.554 9  24744166.131 8  21434617.312    21434618.235       -1709.064
     -1321.548
 -19589597.543 9 -18375681.286 7  20928101.678    20928103.517        1224.367
       962.552
 -10327484.588 8 -11079311.608 8  21364857.500    21364860.123        -784.302
      -606.204
 -36270473.246 9  21306716.799 9  22314240.847    22314243.651        2248.170
      1752.877
 88  3 23  5 25  2.0800000  0  4G 6G 9G11G13
 -17247728.724 9  24784459.483 7  21444456.475    21444457.927       -1714.200
     -1347.496
 -19626045.833 9 -18404082.545 8  20921165.117    20921167.597        1222.293
       936.044
 -10303717.917 9 -11060792.121 8  21369380.787    21369383.218        -785.849
      -625.467
 -36337592.637 8  21254415.985 8  22301468.481    22301471.877        2235.635
      1724.648
 88  3 23  5 25 32.0800000  0  4G 6G 9G11G13
 -17195467.703 9  24825182.341 8  21454401.572    21454403.380       -1746.831
     -1371.587
 -19661955.445 9 -18432064.056 9  20914332.867    20914334.319        1191.377
       932.198
 -10279531.499 9 -11041945.570 9  21373983.331    21373985.979        -823.129
      -642.592
 -36404279.590 9  21202452.145 9  22288779.077    22288780.920        2208.681
      1731.838
 88  3 23  5 26  2.0800000  0  4G 6G 9G11G13
 -17142657.604 9  24866333.051 8  21464451.748    21464453.076       -1782.101
     -1388.688
 -19697325.378 9 -18459625.047 8  20907601.608    20907602.697        1182.071
       909.903
 -10254929.155 9 -11022774.910 8  21378665.076    21378668.031        -822.021
      -641.350
 -36470534.827 8  21150824.694 9  22276169.964    22276173.832        2205.372
      1710.381
 88  3 23  5 26 32.0800000  0  4G 6G 9G11G13
 -17089298.355 9  24907911.661 8  21474605.160    21474607.853       -1791.766
     -1393.093
 -19732152.484 9 -18486763.048 9  20900974.980    20900975.992        1148.905
       893.971
 -10229911.790 8 -11003280.852 9  21383426.322    21383428.332        -862.355
      -658.966
 -36536357.508 9  21099534.328 8  22263644.233    22263646.955        2182.948
      1709.344
 88  3 23  5 27  2.0800000  0  4G 6G 9G11G13
 -17035389.789 9  24949918.314 8  21484863.690    21484866.338       -1815.219
     -1392.702
 -19766433.884 9 -18513475.832 8  20894450.713    20894452.568        1130.022
       886.266
 -10204480.310 9 -10983464.119 8  21388264.191    21388267.647        -835.003
      -666.770
 -36601745.538 9  21048582.626 8  22251202.050    22251205.331        2176.824
      1676.839
 88  3 23  5 27 32.0800000  0  4G 6G 9G11G13
 -16980933.645 9  24992351.657 8  21495226.645    21495228.715       -1829.429
     -1431.681
 -19800168.281 8 -18539762.358 8  20888031.867    20888033.380        1128.124
       876.001
 -10178638.059 9 -10963327.300 9  21393182.589    21393185.807        -869.875
      -675.208
 -36666699.310 9  20997969.319 9  22238841.667    22238845.381        2158.339
      1679.822
 88  3 23  5 28  2.0800000  0  4G 6G 9G11G13
 -16925930.431 8  25035211.295 8  21505692.710    21505694.556       -1847.738
     -1421.037
 -19833353.305 9 -18565620.829 8  20881716.205    20881718.079        1102.224
       851.052
 -10152386.657 9 -10942871.661 9  21398178.539    21398181.022        -865.856
      -690.780
 -36731217.915 9  20947695.106 9  22226564.153    22226566.699        2151.186
      1670.066
 88  3 23  5 28 32.0800000  0  4G 6G 9G11G13
 -16870381.197 9  25078496.397 9  21516264.266    21516265.757       -1858.344
     -1444.636
 -19865987.000 8 -18591049.688 8  20875507.949    20875508.751        1091.841
       838.724
 -10125728.746 9 -10922099.264 8  21403251.527    21403253.527        -903.503
      -681.770
 -36795300.893 9  20897760.331 8  22214369.602    22214372.067        2135.046
      1662.200
 88  3 23  5 29  2.0800000  0  4G 6G 9G11G13
 -16814287.276 9  25122205.939 8  21526938.813    21526939.746       -1886.924
     -1465.714
 -19898067.675 8 -18616047.614 8  20869402.792    20869404.163        1054.664
       821.096
 -10098666.520 9 -10901011.823 8  21408400.085    21408403.358        -909.180
      -712.696
 -36858948.524 9  20848164.795 8  22202257.820    22202260.780        2114.680
      1650.729
 88  3 23  5 29 32.0800000  0  4G 6G 9G11G13
 -16757647.691 9  25166340.644 8  21537716.142    21537717.243       -1886.836
     -1472.922
 -19929591.366 9 -18640611.537 8  20863403.193    20863404.664        1044.848
       812.912
 -10071200.086 9 -10879609.399 8  21413627.246    21413630.402        -924.682
      -703.494
 -36922158.515 9  20798910.270 8  22190228.335    22190232.417        2114.791
      1630.174
 88  3 23  5 30  2.0800000  0  4G 6G 9G11G13
 -16700462.358 9  25210900.636 9  21548597.800    21548599.800       -1915.377
     -1498.759
 -19960555.222 8 -18664739.219 8  20857510.381    20857511.717        1010.415
       795.601
 -10043330.710 9 -10857893.010 8  21418931.181    21418932.573        -923.901
      -727.125
 -36984929.447 9  20749997.873 8  22178284.320    22178287.099        2077.296
      1627.166
 88  3 23  5 30 32.0800000  0  4G 6G 9G11G13
 -16642735.047 9  25255882.937 9  21559584.117    21559585.870       -1944.292
     -1505.401
 -19990959.958 9 -18688431.220 8  20851724.785    20851726.623        1006.547
       793.245
 -10015063.393 9 -10835866.523 8  21424309.440    21424312.133        -954.379
      -746.636
 -37047263.643 8  20701425.793 8  22166421.708    22166425.117        2064.704
      1611.104
 88  3 23  5 31  2.0800000  0  4G 6G 9G11G13
 -16584466.604 9  25301286.904 8  21570671.989    21570674.449       -1939.563
     -1509.223
 -20020803.364 8 -18711685.826 8  20846046.388    20846047.860         992.512
       767.036
  -9986400.240 9 -10813531.594 9  21429763.471    21429767.679        -960.296
      -751.470
 -37109160.414 9  20653194.567 8  22154642.889    22154647.524        2053.891
      1593.966
 88  3 23  5 31 32.0800000  0  4G 6G 9G11G13
 -16525655.447 9  25347113.752 8  21581862.941    21581865.132       -1974.475
     -1536.700
 -20050080.622 9 -18734499.283 9  20840474.806    20840475.894         978.190
       754.826
  -9957340.776 9 -10790887.845 9  21435293.844    21435296.560        -972.736
      -754.353
 -37170616.298 9  20605306.883 8  22142948.554    22142952.069        2043.253
      1581.576
 88  3 23  5 32  2.0800000  0  4G 6G 9G11G13
 -16466303.914 9  25393361.686 8  21593156.567    21593159.902       -1982.951
     -1561.959
 -20078791.522 8 -18756871.409 8  20835011.612    20835013.228         962.098
       742.373
  -9927888.494 9 -10767938.019 8  21440898.841    21440900.994        -987.074
      -769.944
 -37231633.536 9  20557760.995 7  22131336.342    22131340.701        2016.595
      1578.599
 88  3 23  5 32 32.0800000  0  4G 6G 9G11G13
 -16406413.530 9  25440029.489 8  21604552.793    21604555.948       -1995.208
     -1545.921
 -20106934.145 9 -18778800.726 7  20829656.280    20829657.078         934.969
       725.602
  -9898045.820 9 -10744683.983 8  21446577.562    21446579.377       -1001.396
      -791.916
 -37292211.219 7  20510557.618 8  22119809.465    22119812.507        2031.364
      1572.479
 88  3 23  5 33  2.0800000  0  4G 6G 9G11G13
 -16345983.571 9  25487117.756 8  21616052.887    21616054.788       -2027.671
     -1563.904
 -20134505.003 9 -18800284.511 8  20824408.688    20824411.581         905.161
       690.022
  -9867813.250 9 -10721126.137 8  21452330.216    21452332.150       -1005.893
      -773.293
 -37352346.976 9  20463698.602 8  22108366.017    22108368.462        1983.079
      1557.429
 88  3 23  5 33 32.0800000  0  4G 6G 9G11G13
 -16285015.351 9  25534625.429 8  21627655.045    21627658.096       -2032.057
     -1596.986
 -20161502.382 9 -18821321.429 8  20819271.506    20819273.408         887.131
       687.325
  -9837192.863 9 -10697266.084 8  21458157.069    21458160.560       -1016.651
      -789.983
 -37412041.400 9  20417183.464 8  22097007.976    22097009.573        1993.015
      1552.135
 88  3 23  5 34  2.0800000  0  4G 6G 9G11G13
 -16223510.982 9  25582550.897 8  21639359.625    21639361.180       -2054.505
     -1606.798
 -20187925.362 8 -18841910.749 9  20814243.757    20814245.458         869.627
       673.102
  -9806188.097 9 -10673106.520 8  21464058.209    21464060.034       -1052.360
      -818.610
 -37471295.148 9  20371011.727 8  22085731.172    22085733.108        1968.310
      1525.155
 88  3 23  5 34 32.0800000  0  4G 6G 9G11G13
 -16161471.694 9  25630893.187 8  21651165.110    21651166.673       -2077.144
     -1632.672
 -20213772.165 8 -18862051.125 8  20809324.944    20809327.371         844.110
       663.688
  -9774801.154 9 -10648649.156 9  21470031.114    21470032.010       -1050.279
      -805.070
 -37530107.465 9  20325183.963 8  22074539.430    22074542.614        1966.341
      1519.805
 88  3 23  5 35  2.0800000  0  4G 6G 9G11G13
 -16098897.152 9  25679652.549 8  21663071.868    21663073.604       -2108.635
     -1637.227
 -20239039.242 8 -18881739.743 8  20804517.140    20804518.492         838.623
       660.637
  -9743032.856 9 -10623894.627 8  21476075.365    21476077.938       -1054.098
      -847.840
 -37588477.069 8  20279701.155 9  22063433.111    22063436.297        1952.051
      1518.667
 88  3 23  5 35 32.0800000  0  4G 6G 9G11G13
 -16035788.072 9  25728828.442 8  21675082.267    21675083.883       -2121.578
     -1654.041
 -20263724.561 8 -18900975.062 8  20799818.549    20799820.658         814.062
       641.834
  -9710885.032 9 -10598844.375 9  21482193.850    21482195.175       -1072.814
      -820.878
 -37646403.130 9  20234563.979 8  22052409.927    22052411.814        1913.734
      1512.305
 88  3 23  5 36  2.0800000  0  4G 6G 9G11G13
 -15972147.453 9  25778418.496 8  21687191.735    21687194.900       -2134.305
     -1658.695
 -20287827.903 7 -18919756.886 8  20795231.534    20795233.323         802.906
       616.476
  -9678361.254 9 -10573501.156 9  21488382.249    21488385.670       -1095.110
      -841.769
 -37703887.252 9  20189771.188 9  22041470.560    22041474.775        1920.592
      1484.343
 88  3 23  5 36 32.0800000  0  4G 6G 9G11G13
 -15907976.476 9  25828421.842 8  21699402.586    21699405.032       -2137.630
     -1665.450
 -20311347.407 8 -18938083.775 9  20790757.428    20790757.855         777.851
       601.457
  -9645464.091 9 -10547867.006 8  21494641.818    21494644.547       -1097.598
      -859.460
 -37760928.589 9  20145323.409 9  22030615.601    22030618.944        1897.961
      1475.712
 88  3 23  5 37  2.0800000  0  4G 6G 9G11G13
 -15843274.062 9  25878839.304 8  21711715.759    21711717.413       -2155.596
     -1705.628
 -20334279.201 8 -18955952.703 8  20786391.710    20786395.194         754.629
       595.274
  -9612193.479 9 -10521941.852 8  21500972.394    21500975.312       -1116.394
      -866.947
 -37817525.218 8  20101222.160 9  22019845.499    22019849.451        1875.489
      1468.578
 88  3 23  5 37 32.0800000  0  4G 6G 9G11G13
 -15778041.516 9  25929669.829 8  21724128.334    21724130.535       -2200.213
     -1700.054
 -20356621.529 8 -18973362.308 9  20782141.465    20782143.589         726.408
       575.881
  -9578551.365 9 -10495727.217 8  21507375.672    21507377.230       -1143.347
      -874.801
 -37873676.835 9  20057467.661 8  22009159.757    22009163.868        1863.894
      1460.705
 88  3 23  5 38  2.0800000  0  4G 6G 9G11G13
 -15712281.726 9  25980911.210 8  21736642.884    21736645.033       -2193.865
     -1724.114
 -20378374.013 9 -18990312.297 8  20778001.490    20778004.161         719.550
       560.570
  -9544541.603 9 -10469226.094 9  21513847.319    21513849.899       -1115.644
      -878.231
 -37929384.558 9  20014059.057 9  21998559.228    21998562.281        1833.927
      1435.639
 88  3 23  5 38 32.0800000  0  4G 6G 9G11G13
 -15645995.832 9  26032562.549 8  21749257.398    21749258.965       -2234.191
     -1751.069
 -20399534.501 9 -19006800.995 7  20773976.051    20773977.061         690.507
       540.767
  -9510166.148 9 -10442440.034 9  21520387.746    21520391.282       -1154.830
      -890.485
 -37984648.333 9  19970996.390 9  21988043.537    21988046.546        1829.134
      1433.843
 88  3 23  5 39  2.0800000  0  4G 6G 9G11G13
 -15579184.280 9  26084623.461 8  21761970.060    21761973.025       -2239.933
     -1741.904
 -20420101.174 8 -19022826.975 7  20770062.093    20770063.224         672.749
       547.068
  -9475426.882 9 -10415370.478 9  21526998.667    21527001.484       -1152.143
      -909.710
 -38039467.607 9  19928280.095 9  21977611.534    21977614.404        1819.094
      1429.848
 88  3 23  5 39 32.0800000  0  4G 6G 9G11G13
 -15511848.222 9  26137093.091 7  21774783.835    21774786.390       -2238.777
     -1753.418
 -20440071.629 8 -19038388.372 8  20766261.223    20766263.020         647.845
       511.550
  -9440325.327 9 -10388018.621 9  21533678.499    21533680.398       -1187.286
      -929.203
 -38093841.689 8  19885910.702 9  21967265.500    21967267.430        1804.796
      1410.573
 88  3 23  5 40  2.0800000  0  4G 6G 9G11G13
 -15443989.314 9  26189970.147 8  21787697.160    21787699.340       -2266.177
     -1777.950
 -20459444.604 9 -19053484.202 8  20762574.078    20762576.997         641.266
       492.952
  -9404864.077 9 -10360386.472 9  21540426.090    21540429.311       -1191.042
      -931.533
 -38147770.597 9  19843888.186 8  21957003.515    21957005.995        1793.600
      1388.787
 88  3 23  5 40 32.0800000  0  4G 6G 9G11G13
 -15375609.048 9  26243253.446 9  21800710.476    21800713.047       -2285.411
     -1786.581
 -20478218.601 8 -19068113.286 8  20759002.662    20759004.071         613.140
       487.869
  -9369045.365 9 -10332475.793 8  21547242.191    21547245.100       -1192.142
      -938.281
 -38201254.409 9  19802212.505 8  21946826.040    21946827.416        1781.304
      1386.556
 88  3 23  5 41  2.0800000  0  4G 6G 9G11G13
 -15306708.328 9  26296942.317 9  21813820.665    21813823.155       -2306.870
     -1796.256
 -20496391.550 9 -19082274.021 8  20755544.154    20755546.354         586.737
       452.656
  -9332871.111 9 -10304288.060 8  21554126.620    21554128.382       -1204.016
      -941.357
 -38254292.446 9  19760884.170 9  21936733.041    21936735.230        1756.631
      1362.770
 88  3 23  5 41 32.0800000  0  4G 6G 9G11G13
 -15237288.464 9  26351035.686 8  21827031.193    21827033.392       -2320.817
     -1815.730
 -20513961.484 8 -19095964.886 8  20752200.624    20752203.198         573.396
       444.808
  -9296343.374 9 -10275824.886 8  21561078.199    21561079.855       -1226.105
      -963.000
 -38306884.279 8  19719903.550 8  21926724.773    21926726.517        1740.220
      1365.771
 88  3 23  5 42  2.0800000  0  4G 6G 9G11G13
 -15167351.457 9  26405532.036 9  21840339.595    21840342.385       -2339.891
     -1822.391
 -20530927.648 9 -19109185.283 8  20748972.855    20748974.320         566.155
       419.387
  -9259465.102 9 -10247088.572 9  21568096.212    21568097.953       -1222.437
      -964.671
 -38359030.716 9  19679269.981 8  21916800.244    21916804.624        1711.767
      1344.004
 88  3 23  5 42 32.0800000  0  4G 6G 9G11G13
 -15096897.750 8  26460431.004 8  21853746.906    21853748.634       -2344.931
     -1829.251
 -20547287.401 8 -19121933.144 8  20745859.443    20745860.209         528.883
       419.138
  -9222237.505 9 -10218080.050 8  21575179.753    21575182.266       -1237.126
      -964.050
 -38410731.197 8  19638983.907 8  21906962.472    21906964.778        1718.482
      1340.419
 88  3 23  5 43  2.0800000  0  4G 6G 9G11G13
 -15025929.542 8  26515730.885 8  21867251.231    21867253.893       -2390.281
     -1846.948
 -20563039.898 9 -19134207.821 9  20742861.800    20742864.198         523.190
       397.309
  -9184663.323 9 -10188801.476 8  21582329.338    21582332.660       -1243.697
      -978.460
 -38461985.848 8  19599045.226 7  21897208.783    21897211.962        1705.109
      1326.407
 88  3 23  5 43 32.0800000  0  4G 6G 9G11G13
 -14954447.479 9  26571431.173 8  21880854.894    21880855.929       -2391.470
     -1846.426
 -20578182.488 8 -19146007.239 8  20739980.295    20739981.527         500.096
       373.399
  -9146743.799 9 -10159253.786 8  21589544.969    21589548.348       -1251.695
      -983.449
 -38512793.696 8  19559454.713 8  21887539.859    21887542.936        1682.206
      1321.492
 88  3 23  5 44  2.0800000  0  4G 6G 9G11G13
 -14882452.918 9  26627530.792 8  21894554.614    21894556.305       -2408.766
     -1887.325
 -20592713.922 8 -19157330.449 7  20737215.182    20737216.521         475.734
       379.221
  -9108481.139 9 -10129438.726 9  21596826.358    21596829.606       -1275.690
      -991.944
 -38563154.586 8  19520212.478 9  21877957.648    21877960.226        1686.935
      1313.948
 88  3 23  5 44 32.0800000  0  4G 6G 9G11G13
 -14809948.193 9  26684027.973 8  21908351.676    21908353.264       -2423.806
     -1874.009
 -20606633.282 9 -19168176.697 7  20734566.342    20734567.528         452.991
       358.765
  -9069878.685 9 -10099358.893 9  21604172.881    21604175.077       -1299.278
     -1001.935
 -38613069.359 9  19481317.855 9  21868458.862    21868462.085        1664.368
      1293.020
 88  3 23  5 45  2.0800000  0  4G 6G 9G11G13
 -14736934.844 8  26740921.458 8  21922245.395    21922246.893       -2450.161
     -1911.236
 -20619939.044 8 -19178544.840 7  20732034.305    20732034.815         447.928
       345.928
  -9030938.737 9 -10069016.084 8  21611583.114    21611585.548       -1305.330
     -1020.216
 -38662538.290 8  19442770.644 8  21859045.567    21859048.368        1616.538
      1291.560
 88  3 23  5 45 32.0800000  0  4G 6G 9G11G13
 -14663412.686 9  26798211.432 8  21936236.166    21936238.727       -2460.193
     -1918.406
 -20632628.272 8 -19188432.555 8  20729619.565    20729620.732         404.356
       311.864
  -8991661.639 9 -10038410.556 8  21619056.409    21619059.293       -1316.638
     -1019.725
 -38711559.584 9  19404572.242 8  21849716.568    21849719.634        1635.517
      1261.914
 88  3 23  5 46  2.0800000  0  4G 6G 9G11G13
 -14589384.641 9  26855895.598 8  21950323.594    21950325.386       -2468.590
     -1932.344
 -20644700.818 9 -19197839.736 7  20727323.597    20727323.843         401.979
       302.748
  -8952051.060 9 -10007545.169 8  21626593.624    21626596.438       -1323.137
     -1034.365
 -38760134.973 9  19366721.304 8  21840473.092    21840475.939        1593.667
      1256.843
 88  3 23  5 46 32.0800000  0  4G 6G 9G11G13
 -14514852.844 8  26913972.292 8  21964506.407    21964507.919       -2485.990
     -1930.436
 -20656155.622 7 -19206765.561 8  20725142.749    20725144.830         354.436
       318.183
  -8912109.549 9  -9976421.915 9  21634195.179    21634197.580       -1341.000
     -1030.395
 -38808264.568 9  19329217.742 8  21831314.003    21831317.427        1614.345
      1239.569
 88  3 23  5 47  2.0800000  0  4G 6G 9G11G13
 -14439817.522 9  26972441.353 9  21978784.490    21978786.835       -2520.678
     -1952.769
 -20666990.190 8 -19215208.091 7  20723080.159    20723082.856         363.352
       271.536
  -8871837.840 9  -9945041.362 8  21641857.851    21641860.270       -1358.264
     -1057.008
 -38855947.626 9  19292062.116 8  21822240.630    21822244.382        1584.537
      1231.827
 88  3 23  5 47 32.0800000  0  4G 6G 9G11G13
 -14364280.286 8  27031301.529 9  21993159.773    21993161.655       -2546.898
     -1975.666
 -20677202.755 8 -19223165.937 8  20721137.685    20721138.888         341.988
       268.777
  -8831238.204 9  -9913405.283 9  21649583.845    21649587.022       -1353.591
     -1054.168
 -38903183.452 9  19255255.003 9  21813250.966    21813255.163        1567.854
      1204.399
 88  3 23  5 48  2.0800000  0  4G 6G 9G11G13
 -14288244.265 8  27090550.351 9  22007627.820    22007631.473       -2543.493
     -1990.493
 -20686793.719 8 -19230639.420 8  20719312.259    20719314.228         315.681
       241.455
  -8790314.553 9  -9881516.726 9  21657372.005    21657374.777       -1372.658
     -1081.863
 -38949974.080 9  19218794.778 8  21804346.922    21804350.243        1551.252
      1218.759
 88  3 23  5 48 32.0800000  0  4G 6G 9G11G13
 -14211710.712 9  27150186.865 9  22022192.670    22022194.879       -2555.789
     -1999.136
 -20695761.372 9 -19237627.207 8  20717605.485    20717608.620         292.826
       229.295
  -8749068.658 9  -9849377.065 9  21665220.441    21665223.140       -1391.445
     -1086.760
 -38996319.023 8  19182681.855 8  21795528.918    21795531.036        1516.914
      1191.419
 88  3 23  5 49  2.0800000  0  4G 6G 9G11G13
 -14134680.036 9  27210210.754 8  22036850.973    22036852.115       -2563.006
     -2010.153
 -20704103.025 8 -19244127.198 9  20716017.872    20716020.221         272.229
       214.220
  -8707501.292 9  -9816986.921 8  21673130.294    21673133.858       -1398.535
     -1084.181
 -39042217.282 9  19146916.999 9  21786794.496    21786797.947        1511.396
      1177.319
 88  3 23  5 49 32.0800000  0  4G 6G 9G11G13
 -14057154.252 9  27270620.457 9  22051604.028    22051605.981       -2594.951
     -2030.050
 -20711817.874 8 -19250138.773 7  20714550.546    20714551.841         231.001
       190.216
  -8665614.784 9  -9784348.078 8  21681102.552    21681104.375       -1418.558
     -1093.862
 -39087669.371 9  19111499.804 9  21778145.590    21778148.396        1508.254
      1183.875
 88  3 23  5 50  2.0800000  0  4G 6G 9G11G13
 -13979135.619 9  27331414.169 8  22066450.625    22066452.848       -2611.012
     -2028.297
 -20718905.161 8 -19255661.340 7  20713203.436    20713203.078         221.703
       186.476
  -8623412.018 9  -9751462.812 8  21689132.342    21689134.569       -1404.802
     -1105.507
 -39132675.836 9  19076429.848 8  21769581.193    21769583.699        1496.085
      1163.780
 88  3 23  5 50 32.0800000  0  4G 6G 9G11G13
 -13900625.475 9  27392590.898 8  22081391.201    22081393.131       -2624.935
     -2061.833
 -20725363.153 9 -19260693.540 7  20711972.277    20711973.721         197.349
       167.095
  -8580895.203 9  -9718332.819 8  21697222.889    21697225.602       -1420.010
     -1106.544
 -39177236.723 9  19041707.099 9  21761102.108    21761103.428        1485.965
      1149.761
 88  3 23  5 51  2.0800000  0  4G 6G 9G11G13
 -13821624.646 9  27454149.952 8  22096423.420    22096425.507       -2633.483
     -2041.564
 -20731189.992 9 -19265233.942 7  20710863.099    20710864.119         187.940
       155.960
  -8538065.704 9  -9684959.186 8  21705373.332    21705375.045       -1419.340
     -1117.064
 -39221351.550 9  19007331.929 9  21752705.934    21752708.912        1448.327
      1131.120
 88  3 23  5 51 32.0800000  0  4G 6G 9G11G13
 -13742136.518 8  27516088.732 8  22111550.433    22111550.923       -2665.556
     -2071.868
 -20736385.780 8 -19269282.610 8  20709875.267    20709876.944         174.327
       126.003
  -8494926.921 9  -9651344.548 8  21713582.469    21713584.330       -1439.866
     -1118.518
 -39265021.147 9  18973303.674 8  21744396.984    21744398.702        1444.890
      1131.294
 88  3 23  5 52  2.0800000  0  4G 6G 9G11G13
 -13662162.800 9  27578405.893 8  22126768.355    22126770.112       -2676.944
     -2074.130
 -20740949.476 8 -19272838.745 7  20709007.271    20709008.151         155.077
       109.518
  -8451481.396 9  -9617490.885 8  21721850.442    21721852.067       -1455.663
     -1135.103
 -39308246.715 9  18939621.422 8  21736171.739    21736173.828        1432.290
      1133.643
 88  3 23  5 52 32.0800000  0  4G 6G 9G11G13
 -13581704.832 9  27641100.402 9  22142079.018    22142080.886       -2692.246
     -2105.752
 -20744879.462 8 -19275901.088 8  20708259.520    20708259.802         113.228
       108.126
  -8407730.610 9  -9583399.366 9  21730175.821    21730177.409       -1461.333
     -1130.207
 -39351027.716 9  18906285.580 9  21728030.527    21728033.738        1418.742
      1080.819
 88  3 23  5 53  2.0800000  0  4G 6G 9G11G13
 -13500764.187 9  27704170.999 8  22157481.254    22157482.797       -2682.063
     -2120.939
 -20748174.462 9 -19278468.601 7  20707632.012    20707632.085          89.257
        70.626
  -8363676.511 9  -9549071.504 9  21738558.648    21738560.348       -1475.679
     -1130.306
 -39393364.451 9  18873295.930 8  21719973.816    21719976.439        1402.514
      1088.792
 88  3 23  5 53 32.0800000  0  4G 6G 9G11G13
 -13419342.229 9  27767616.663 8  22172975.003    22172976.626       -2724.527
     -2117.596
 -20750832.868 8 -19280540.092 8  20707126.791    20707127.680          65.182
        73.919
  -8319320.853 9  -9514508.661 8  21746997.820    21747000.952       -1458.406
     -1164.053
 -39435256.216 9  18840653.017 9  21712001.881    21712004.087        1384.731
      1079.763
 88  3 23  5 54  2.0800000  0  4G 6G 9G11G13
 -13337441.060 8  27831435.721 9  22188559.852    22188563.661       -2747.501
     -2136.995
 -20752853.889 8 -19282114.931 7  20706742.079    20706743.658          42.806
        34.095
  -8274666.118 9  -9479712.774 9  21755495.826    21755498.389       -1504.394
     -1177.152
 -39476703.732 9  18808356.267 8  21704114.483    21704117.260        1366.534
      1073.040
 88  3 23  5 54 32.0800000  0  4G 6G 9G11G13
 -13255063.086 9  27895626.333 8  22204235.901    22204238.922       -2743.904
     -2149.050
 -20754237.028 7 -19283192.707 8  20706478.835    20706479.997          36.036
        39.681
  -8229715.100 8  -9444686.018 9  21764048.806    21764052.345       -1475.033
     -1175.257
 -39517707.490 8  18776405.310 8  21696312.851    21696314.297        1356.701
      1065.123
 88  3 23  5 55  2.0800000  0  4G 6G 9G11G13
 -13172210.719 8  27960186.601 8  22220001.976    22220005.475       -2754.199
     -2151.784
 -20754981.796 8 -19283773.045 7  20706337.502    20706337.944          32.448
        -0.901
  -8184470.551 9  -9409430.523 8  21772659.855    21772662.052       -1508.637
     -1175.729
 -39558268.596 9  18744799.273 7  21688593.700    21688595.687        1322.978
      1058.568
 88  3 23  5 55 32.0800000  0  4G 6G 9G11G13
 -13088884.773 9  28025115.878 8  22235859.441    22235861.509       -2777.851
     -2169.829
 -20755086.157 9 -19283854.380 7  20706317.139    20706318.806           0.837
       -11.017
  -8138933.628 9  -9373947.210 8  21781324.802    21781327.059       -1517.855
     -1192.394
 -39598386.215 9  18713538.800 8  21680959.165    21680960.642        1331.072
      1036.453
 88  3 23  5 56  2.0800000  0  4G 6G 9G11G13
 -13005088.287 9  28090411.823 8  22251805.930    22251807.779       -2777.739
     -2186.780
 -20754550.392 8 -19283436.906 7  20706418.673    20706419.904         -36.826
       -25.750
  -8093107.518 9  -9338238.550 8  21790045.928    21790048.137       -1543.819
     -1189.902
 -39638062.189 9  18682622.463 8  21673408.514    21673411.782        1330.019
      1020.695
 88  3 23  5 56 32.0800000  0  4G 6G 9G11G13
 -12920822.035 9  28156073.832 9  22267839.216    22267843.876       -2812.962
     -2210.672
 -20753372.330 8 -19282518.954 8  20706643.052    20706643.870         -41.156
       -27.987
  -8046993.269 9  -9302305.372 8  21798821.478    21798823.253       -1540.486
     -1201.615
 -39677295.422 9  18652051.138 8  21665942.986    21665945.390        1293.106
      1016.358
 88  3 23  5 57  2.0800000  0  4G 6G 9G11G13
 -12836087.670 8  28222100.588 9  22283964.833    22283966.260       -2838.137
     -2213.101
 -20751550.686 8 -19281099.494 7  20706989.468    20706990.951         -71.315
       -55.812
  -8000593.002 9  -9266149.306 9  21807651.075    21807653.637       -1544.521
     -1204.753
 -39716085.802 9  18621824.851 8  21658560.888    21658563.613        1291.160
       984.785
 88  3 23  5 57 32.0800000  0  4G 6G 9G11G13
 -12750888.126 9  28288489.814 8  22300177.769    22300180.208       -2848.129
     -2228.449
 -20749085.691 8 -19279178.736 7  20707458.586    20707459.772         -94.807
       -67.886
  -7953909.990 9  -9229772.945 9  21816534.191    21816535.710       -1544.968
     -1212.415
 -39754435.462 9  18591942.012 8  21651263.461    21651266.984        1274.964
       990.763
 88  3 23  5 58  2.0800000  0  4G 6G 9G11G13
 -12665225.407 9  28355239.975 8  22316479.117    22316481.579       -2859.851
     -2239.379
 -20745976.630 9 -19276756.091 8  20708049.884    20708052.521        -117.941
      -113.134
  -7906945.867 8  -9193177.523 8  21825469.746    21825474.314       -1553.891
     -1231.529
 -39792344.143 9  18562402.792 8  21644050.535    21644052.457        1274.502
       980.305
 88  3 23  5 58 32.0800000  0  4G 6G 9G11G13
 -12579100.767 9  28422350.061 8  22332868.206    22332871.142       -2872.140
     -2234.228
 -20742221.610 8 -19273830.119 8  20708764.757    20708765.942        -148.347
      -110.537
  -7859702.348 9  -9156364.383 8  21834461.394    21834464.225       -1596.012
     -1229.254
 -39829811.797 9  18533207.232 9  21636921.348    21636923.353        1230.411
       968.238
 88  3 23  5 59  2.0800000  0  4G 6G 9G11G13
 -12492516.932 9  28489817.975 9  22349344.625    22349347.644       -2890.935
     -2250.241
 -20737820.846 9 -19270400.954 8  20709603.045    20709605.269        -162.645
      -127.277
  -7812182.455 9  -9119335.902 9  21843503.936    21843506.782       -1566.387
     -1242.999
 -39866839.761 9  18504354.286 9  21629874.585    21629876.632        1235.611
       965.355
 88  3 23  5 59 32.0800000  0  4G 6G 9G11G13
 -12405475.086 9  28557642.767 8  22365908.192    22365909.276       -2912.028
     -2256.138
 -20732772.580 8 -19266467.249 8  20710563.780    20710564.376        -164.670
      -149.423
  -7764387.557 9  -9082093.119 9  21852598.034    21852601.735       -1593.316
     -1247.604
 -39903427.301 9  18475844.527 9  21622911.441    21622914.607        1213.243
       934.914
 88  3 23  6  0  2.0800000  0  4G 6G 9G11G13
 -12317977.121 9  28625822.983 8  22382557.579    22382560.529       -2926.916
     -2279.011
 -20727076.006 9 -19262028.369 7  20711646.480    20711648.007        -184.176
      -156.047
  -7716319.649 9  -9044637.615 8  21861745.879    21861748.383       -1618.707
     -1251.779
 -39939574.576 9  18447677.831 8  21616033.466    21616034.914        1203.809
       937.318
 88  3 23  6  0 32.0800000  0  4G 6G 9G11G13
 -12230026.222 9  28694356.143 9  22399294.766    22399297.245       -2945.081
     -2291.842
 -20720731.510 8 -19257084.623 7  20712854.585    20712856.083        -235.387
      -166.088
  -7667982.037 9  -9006971.949 8  21870944.752    21870947.314       -1612.040
     -1257.260
 -39975283.542 9  18419852.685 8  21609238.083    21609240.874        1195.882
       941.152
 88  3 23  6  1  2.0800000  0  4G 6G 9G11G13
 -12141624.867 9  28763240.290 8  22416117.230    22416121.170       -2943.175
     -2285.237
 -20713738.892 8 -19251635.828 8  20714185.726    20714187.501        -235.491
      -201.923
  -7619377.308 9  -8969098.136 8  21880193.254    21880195.888       -1616.609
     -1261.858
 -40010554.590 9  18392368.758 8  21602526.316    21602529.337        1167.406
       917.826
 88  3 23  6  1 32.0800000  0  4G 6G 9G11G13
 -12052774.581 8  28832474.262 9  22433024.515    22433026.565       -2967.601
     -2310.043
 -20706096.740 8 -19245680.905 8  20715638.741    20715640.504        -245.028
      -199.810
  -7570507.182 9  -8931017.528 9  21889493.776    21889495.941       -1639.400
     -1261.957
 -40045388.488 9  18365225.479 8  21595896.380    21595900.032        1155.197
       895.133
 88  3 23  6  2  2.0800000  0  4G 6G 9G11G13
 -11963476.756 8  28902056.957 8  22450017.192    22450020.170       -2970.264
     -2327.534
 -20697803.794 8 -19239218.893 8  20717216.932    20717218.792        -282.539
      -218.843
  -7521372.902 9  -8892731.084 9  21898842.828    21898845.469       -1635.453
     -1271.552
 -40079784.871 9  18338423.108 7  21589351.608    21589354.331        1151.361
       886.185
 88  3 23  6  2 32.0800000  0  4G 6G 9G11G13
 -11873734.419 9  28971986.032 8  22467094.951    22467097.482       -3005.248
     -2329.709
 -20688860.384 7 -19232250.003 8  20718919.044    20718920.257        -301.263
      -251.882
  -7471977.636 9  -8854241.253 8  21908242.880    21908245.129       -1643.850
     -1290.118
 -40113744.556 8  18311961.041 8  21582888.655    21582891.490        1128.395
       886.514
 88  3 23  6  3  2.0800000  0  4G 6G 9G11G13
 -11783549.265 8  29042260.150 9  22484256.581    22484258.702       -3017.393
     -2349.419
 -20679265.704 8 -19224773.638 8  20720744.037    20720746.009        -340.864
      -258.114
  -7422323.302 9  -8815549.573 9  21917691.859    21917694.330       -1661.050
     -1311.295
 -40147268.314 9  18285838.654 8  21576510.327    21576512.219        1120.836
       869.781
 88  3 23  6  3 32.0800000  0  4G 6G 9G11G13
 -11692922.644 9  29112878.280 8  22501502.292    22501503.073       -3032.002
     -2355.260
 -20669018.172 8 -19216788.552 7  20722694.727    20722695.956        -350.313
      -278.980
  -7372410.936 9  -8776656.816 9  21927189.509    21927192.201       -1664.256
     -1305.783
 -40180355.702 9  18260056.286 8  21570214.994    21570215.628        1105.270
       844.435
 88  3 23  6  4  2.0800000  0  4G 6G 9G11G13
 -11601857.232 9  29183838.319 8  22518831.607    22518834.177       -3060.167
     -2374.778
 -20658117.989 9 -19208294.912 8  20724770.133    20724769.783        -366.956
      -309.807
  -7322243.159 9  -8737565.042 9  21936737.142    21936739.153       -1676.026
     -1310.810
 -40213007.726 9  18234613.137 7  21564000.674    21564002.651        1077.966
       844.776
 88  3 23  6  4 32.0800000  0  4G 6G 9G11G13
 -11510356.339 9  29255137.694 9  22536243.631    22536245.938       -3052.129
     -2374.759
 -20646565.644 9 -19199293.105 8  20726968.458    20726969.773        -387.067
      -326.068
  -7271823.566 9  -8698277.044 8  21946330.905    21946332.986       -1686.999
     -1309.480
 -40245226.107 9  18209507.933 8  21557870.033    21557872.182        1061.219
       834.586
 88  3 23  6  5  2.0800000  0  4G 6G 9G11G13
 -11418421.618 9  29326775.112 9  22553738.158    22553740.942       -3082.783
     -2379.668
 -20634360.249 9 -19189782.428 8  20729291.027    20729292.135        -407.266
      -328.560
  -7221153.878 9  -8658794.174 9  21955973.342    21955975.913       -1681.002
     -1321.349
 -40277011.129 9  18184740.412 9  21551820.794    21551821.995        1047.272
       838.283
 88  3 23  6  5 32.0800000  0  4G 6G 9G11G13
 -11326054.739 9  29398749.277 9  22571314.786    22571316.706       -3085.789
     -2401.056
 -20621500.651 9 -19179761.966 8  20731737.230    20731739.471        -435.583
      -342.746
  -7170235.354 9  -8619117.413 9  21965661.916    21965665.263       -1709.423
     -1317.509
 -40308362.720 9  18160310.601 8  21545855.247    21545856.725        1049.082
       812.794
 88  3 23  6  6  2.0800000  0  4G 6G 9G11G13
 -11233258.126 9  29471058.312 9  22588974.461    22588975.709       -3086.937
     -2405.082
 -20607986.853 9 -19169231.743 8  20734309.261    20734309.772        -461.867
      -360.921
  -7119070.377 9  -8579248.602 8  21975398.566    21975402.266       -1705.994
     -1335.491
 -40339281.956 9  18136217.711 8  21539971.451    21539974.085        1028.030
       804.225
 88  3 23  6  6 32.0800000  0  4G 6G 9G11G13
 -11140035.404 9  29543699.358 8  22606713.019    22606716.363       -3109.082
     -2439.190
 -20593819.818 8 -19158192.499 7  20737005.139    20737006.406        -488.039
      -383.024
  -7067662.637 8  -8539190.631 9  21985180.921    21985182.769       -1716.488
     -1353.406
 -40369770.486 9  18112460.423 8  21534169.437    21534171.371        1014.801
       784.987
 88  3 23  6  7  2.0800000  0  4G 6G 9G11G13
 -11046387.679 9  29616671.601 9  22624533.786    22624536.488       -3116.825
     -2442.054
 -20578998.114 8 -19146643.128 7  20739825.448    20739826.464        -501.643
      -376.033
  -7016012.953 9  -8498944.132 9  21995009.481    21995013.360       -1716.377
     -1339.443
 -40399827.880 9  18089039.093 8  21528449.617    21528452.866         979.363
       770.677
 88  3 23  6  7 32.0800000  0  4G 6G 9G11G13
 -10952316.833 9  29689973.546 7  22642435.464    22642437.834       -3139.472
     -2437.723
 -20563520.909 9 -19134582.968 8  20742771.050    20742772.081        -533.157
      -412.322
  -6964123.190 9  -8458510.564 9  22004883.069    22004887.412       -1726.002
     -1347.024
 -40429454.616 9  18065953.346 9  21522812.181    21522813.959         985.997
       762.133
 88  3 23  6  8  2.0800000  0  4G 6G 9G11G13
 -10857825.898 9  29763602.829 8  22660416.124    22660418.955       -3167.765
     -2457.763
 -20547388.728 9 -19122012.470 9  20745840.608    20745841.958        -551.164
      -428.018
  -6911996.388 9  -8417892.285 8  22014802.509    22014806.505       -1731.942
     -1364.783
 -40458652.700 8  18043201.593 9  21517255.625    21517258.133         972.202
       747.382
 88  3 23  6  8 32.0800000  0  4G 6G 9G11G13
 -10762917.451 9  29837557.448 8  22678477.157    22678479.833       -3149.392
     -2480.922
 -20530601.808 8 -19108931.755 7  20749034.726    20749035.237        -559.489
      -436.556
  -6859634.592 9  -8377090.886 9  22024768.451    22024771.247       -1755.913
     -1356.581
 -40487422.238 8  18020783.777 9  21511780.921    21511783.052         944.116
       760.238
 88  3 23  6  9  2.0800000  0  4G 6G 9G11G13
 -10667593.417 9  29911835.905 8  22696617.006    22696618.816       -3193.235
     -2467.761
 -20513159.292 7 -19095340.180 8  20752354.001    20752355.957        -593.515
      -463.256
  -6807039.866 9  -8336107.989 8  22034775.619    22034779.213       -1752.644
     -1370.301
 -40515763.936 8  17998699.349 9  21506387.494    21506390.468         922.139
       740.273
 88  3 23  6  9 32.0800000  0  4G 6G 9G11G13
 -10571855.598 9  29986436.764 9  22714834.587    22714837.140       -3200.165
     -2487.931
 -20495060.717 9 -19081237.389 9  20755798.179    20755798.832        -612.096
      -477.921
  -6754213.970 9  -8294944.951 9  22044829.041    22044831.525       -1764.031
     -1374.489
 -40543677.998 9  17976948.141 9  21501076.966    21501078.743         910.297
       710.391
 88  3 23  6 10  2.0800000  0  4G 6G 9G11G13
 -10475706.087 8  30061358.443 9  22733131.343    22733133.942       -3217.996
     -2496.835
 -20476305.383 9 -19066622.859 7  20759367.542    20759368.575        -640.437
      -509.624
  -6701158.208 9  -8253602.801 9  22054924.692    22054927.129       -1765.849
     -1390.645
 -40571164.865 9  17955529.797 9  21495845.050    21495848.603         917.785
       711.727
 88  3 23  6 10 32.0800000  0  4G 6G 9G11G13
 -10379147.885 9  30136598.601 8  22751506.523    22751507.772       -3227.007
     -2523.505
 -20456893.986 8 -19051497.104 8  20763061.294    20763062.673        -655.301
      -511.506
  -6647875.404 9  -8212083.742 8  22065063.793    22065066.717       -1778.098
     -1404.663
 -40598226.093 9  17934443.137 9  21490696.078    21490698.070         898.814
       702.593
 88  3 23  6 11  2.0800000  0  4G 6G 9G11G13
 -10282184.637 9  30212154.355 8  22769957.478    22769959.501       -3235.268
     -2514.103
 -20436827.830 9 -19035861.146 7  20766880.049    20766881.347        -676.696
      -528.725
  -6594369.149 8  -8170390.550 8  22075246.026    22075248.997       -1774.310
     -1392.024
 -40624863.860 8  17913686.441 9  21485627.695    21485629.372         885.042
       685.474
 88  3 23  6 11 32.0800000  0  4G 6G 9G11G13
 -10184817.553 9  30288024.776 8  22788485.871    22788487.379       -3243.155
     -2535.441
 -20416105.322 8 -19019713.748 8  20770822.745    20770824.487        -707.517
      -555.556
  -6540640.255 9  -8128523.887 8  22085470.604    22085473.396       -1782.731
     -1393.422
 -40651077.539 9  17893260.217 7  21480637.667    21480641.119         877.594
       677.619
 88  3 23  6 12  2.0800000  0  4G 6G 9G11G13
 -10087048.840 9  30364208.173 9  22807090.222    22807092.413       -3253.155
     -2548.497
 -20394726.527 9 -19003054.966 8  20774891.672    20774892.896        -708.928
      -562.577
  -6486690.952 9  -8086485.469 8  22095736.695    22095739.314       -1803.050
     -1402.283
 -40676868.406 9  17873163.466 9  21475731.607    21475733.340         848.137
       665.148
 88  3 23  6 12 32.0800000  0  4G 6G 9G11G13
  -9988880.574 9  30440702.900 9  22825771.203    22825772.994       -3275.315
     -2549.603
 -20372691.077 9 -18985884.496 8  20779084.407    20779086.889        -742.038
      -570.127
  -6432522.852 9  -8044276.558 8  22106044.258    22106047.007       -1806.048
     -1415.295
 -40702236.314 9  17853396.290 9  21470902.897    21470905.505         842.267
       652.770
 88  3 23  6 13  2.0800000  0  4G 6G 9G11G13
  -9890316.047 9  30517506.399 9  22844526.978    22844529.512       -3303.481
     -2559.377
 -20349999.868 8 -18968203.050 8  20783403.100    20783403.583        -783.863
      -606.093
  -6378139.068 9  -8001899.580 9  22116393.070    22116396.067       -1828.703
     -1406.372
 -40727183.695 9  17833956.790 8  21466156.380    21466156.740         837.682
       655.828
 88  3 23  6 13 32.0800000  0  4G 6G 9G11G13
  -9791358.668 9  30594616.025 9  22863357.806    22863361.135       -3317.922
     -2577.428
 -20326653.860 9 -18950011.365 8  20787844.257    20787847.437        -785.195
      -619.974
  -6323542.567 9  -7959356.846 9  22126783.847    22126785.692       -1821.798
     -1411.952
 -40751711.593 9  17814844.146 9  21461488.249    21461491.400         806.550
       627.673
 88  3 23  6 14  2.0800000  0  4G 6G 9G11G13
  -9692009.082 9  30672031.273 9  22882263.937    22882266.111       -3322.906
     -2589.303
 -20302651.422 8 -18931308.174 8  20792411.995    20792413.829        -807.276
      -637.540
  -6268733.333 9  -7916648.367 9  22137212.865    22137215.416       -1822.021
     -1439.262
 -40775819.334 9  17796058.907 8  21456900.652    21456903.631         796.678
       623.845
 88  3 23  6 14 32.0800000  0  4G 6G 9G11G13
  -9592269.640 9  30749750.289 8  22901243.343    22901246.657       -3312.093
     -2597.206
 -20277992.608 8 -18912093.520 8  20797103.935    20797106.337        -831.215
      -662.234
  -6213713.852 9  -7873776.036 8  22147682.938    22147684.671       -1843.105
     -1439.622
 -40799507.930 8  17777600.261 8  21452393.551    21452395.342         782.906
       621.006
 88  3 23  6 15  2.0800000  0  4G 6G 9G11G13
  -9492143.963 9  30827770.259 9  22920297.309    22920299.898       -3349.716
     -2608.540
 -20252678.499 9 -18892368.260 7  20801921.186    20801924.236        -837.993
      -675.339
  -6158486.536 9  -7830741.773 8  22158191.694    22158194.179       -1820.195
     -1426.467
 -40822778.849 9  17759467.079 8  21447964.157    21447966.236         774.254
       595.939
 88  3 23  6 15 32.0800000  0  4G 6G 9G11G13
  -9391634.975 9  30906088.938 8  22939423.212    22939426.045       -3374.205
     -2607.503
 -20226709.955 9 -18872133.044 7  20806863.097    20806864.931        -888.399
      -675.699
  -6103054.778 9  -7787548.192 9  22168740.694    22168742.679       -1842.491
     -1449.427
 -40845633.986 9  17741657.903 7  21443615.067    21443618.029         750.251
       595.597
 88  3 23  6 16  2.0800000  0  4G 6G 9G11G13
  -9290744.047 9  30984705.216 9  22958622.460    22958624.443       -3360.322
     -2623.199
 -20200086.098 9 -18851387.179 7  20811930.559    20811931.491        -904.467
      -700.704
  -6047419.153 9  -7744195.762 9  22179327.130    22179330.728       -1851.207
     -1438.218
 -40868073.320 9  17724172.725 7  21439346.096    21439348.201         740.826
       589.719
 88  3 23  6 16 32.0800000  0  4G 6G 9G11G13
  -9189473.326 9  31063617.456 9  22977893.115    22977895.483       -3386.837
     -2624.783
 -20172806.582 9 -18830130.442 7  20817121.637    20817121.978        -922.737
      -719.320
  -5991581.306 9  -7700685.753 9  22189952.549    22189955.014       -1851.191
     -1464.322
 -40890097.277 9  17707011.217 7  21435155.750    21435156.669         724.032
       563.739
 88  3 23  6 17  2.0800000  0  4G 6G 9G11G13
  -9087826.884 9  31142822.447 9  22997235.480    22997238.241       -3394.229
     -2643.226
 -20144873.319 9 -18808364.268 7  20822435.374    20822438.126        -941.947
      -712.920
  -5935544.910 9  -7657021.036 8  22200616.020    22200619.259       -1874.779
     -1447.992
 -40911708.073 9  17690171.625 8  21431041.697    21431043.990         720.882
       553.070
 88  3 23  6 17 32.0800000  0  4G 6G 9G11G13
  -8985806.688 9  31222318.688 9  23016650.501    23016651.918       -3410.521
     -2649.197
 -20116286.156 9 -18786088.590 7  20827876.425    20827877.022        -980.312
      -752.881
  -5879311.652 9  -7613202.921 9  22211317.123    22211319.860       -1862.124
     -1471.611
 -40932906.247 9  17673653.580 8  21427007.458    21427010.510         717.413
       548.062
 88  3 23  6 18  2.0800000  0  4G 6G 9G11G13
  -8883414.734 9  31302104.599 9  23036134.083    23036136.666       -3411.310
     -2665.782
 -20087044.780 9 -18763303.111 7  20833440.414    20833443.695        -963.573
      -772.355
  -5822882.641 9  -7569232.274 9  22222055.173    22222059.066       -1870.904
     -1459.071
 -40953692.514 9  17657456.506 7  21423053.440    21423054.272         692.142
       539.282
 88  3 23  6 18 32.0800000  0  4G 6G 9G11G13
  -8780655.151 9  31382176.974 9  23055689.435    23055692.063       -3435.823
     -2674.649
 -20057151.045 9 -18740009.305 7  20839128.534    20839131.398       -1015.128
      -785.683
  -5766261.543 9  -7525111.958 8  22232830.012    22232832.873       -1895.999
     -1461.942
 -40974068.745 9  17641578.921 7  21419174.825    21419176.271         679.327
       537.772
 88  3 23  6 19  2.0800000  0  4G 6G 9G11G13
  -8677529.247 9  31462534.802 8  23075314.151    23075314.942       -3437.538
     -2663.010
 -20026604.190 8 -18716206.569 7  20844942.562    20844943.887       -1028.556
      -791.605
  -5709449.315 9  -7480842.701 8  22243641.194    22243644.764       -1910.472
     -1482.969
 -40994035.469 9  17626020.429 8  21415375.001    21415377.453         662.039
       497.121
 88  3 23  6 19 32.0800000  0  4G 6G 9G11G13
  -8574039.117 9  31543176.436 8  23095007.937    23095009.061       -3458.143
     -2699.492
 -19995404.209 8 -18691894.879 7  20850879.559    20850881.730       -1050.701
      -820.760
  -5652447.455 9  -7436425.669 8  22254487.676    22254490.793       -1886.781
     -1493.707
 -41013592.993 9  17610780.812 8  21411652.905    21411656.857         656.473
       505.050
 88  3 23  6 20  2.0800000  0  4G 6G 9G11G13
  -8470187.943 9  31624099.409 8  23114768.884    23114771.646       -3467.370
     -2701.784
 -19963551.917 9 -18667074.935 8  20856941.231    20856942.305       -1075.773
      -836.506
  -5595258.535 9  -7391862.866 9  22265370.710    22265373.256       -1904.260
     -1482.068
 -41032742.297 9  17595859.299 7  21408009.794    21408012.799         633.874
       500.968
 88  3 23  6 20 32.0800000  0  4G 6G 9G11G13
  -8365978.303 9  31705301.698 9  23134599.077    23134602.300       -3481.787
     -2717.120
 -19931048.159 9 -18641747.348 6  20863126.260    20863126.427       -1081.817
      -846.100
  -5537884.828 9  -7347156.088 8  22276289.188    22276291.333       -1928.144
     -1487.449
 -41051485.976 9  17581253.850 8  21404444.006    21404445.196         618.188
       479.940
 88  3 23  6 21  2.0800000  0  4G 6G 9G11G13
  -8261413.595 9  31786780.674 8  23154496.795    23154498.878       -3491.221
     -2725.546
 -19897894.014 9 -18615912.969 7  20869435.195    20869436.739       -1107.407
      -847.330
  -5480329.006 9  -7302307.392 9  22287241.555    22287242.894       -1916.900
     -1491.625
 -41069824.613 9  17566964.011 7  21400953.280    21400955.960         608.978
       467.407
 88  3 23  6 21 32.0800000  0  4G 6G 9G11G13
  -8156495.332 9  31868535.136 8  23174462.591    23174465.479       -3490.982
     -2729.498
 -19864089.005 8 -18589571.419 7  20875868.257    20875868.632       -1130.580
      -890.131
  -5422591.836 9  -7257317.393 8  22298229.433    22298231.602       -1921.509
     -1499.312
 -41087759.081 9  17552989.134 8  21397540.521    21397543.629         594.377
       456.862
 88  3 23  6 22  2.0800000  0  4G 6G 9G11G13
  -8051225.639 9  31950563.444 8  23194495.032    23194496.980       -3513.007
     -2727.795
 -19829633.013 9 -18562722.605 7  20882424.059    20882426.582       -1147.295
      -915.638
  -5364674.692 9  -7212187.153 9  22309249.268    22309252.642       -1918.160
     -1511.944
 -41105289.079 9  17539329.399 8  21394205.511    21394207.447         587.343
       443.844
 88  3 23  6 22 32.0800000  0  4G 6G 9G11G13
  -7945608.397 9  32032862.565 8  23214592.903    23214596.276       -3532.720
     -2750.643
 -19794528.083 8 -18535368.122 8  20889104.362    20889107.786       -1172.278
      -918.049
  -5306580.800 9  -7166919.207 9  22320303.128    22320306.528       -1929.906
     -1505.327
 -41122417.069 9  17525982.919 8  21390945.364    21390947.598         563.643
       440.955
 88  3 23  6 23  2.0800000  0  4G 6G 9G11G13
  -7839647.550 9  32115429.418 9  23234757.083    23234759.728       -3537.983
     -2767.253
 -19758776.087 8 -18507509.433 8  20895908.391    20895910.120       -1190.284
      -926.295
  -5248313.573 9  -7121516.169 8  22331391.872    22331394.781       -1945.974
     -1491.725
 -41139146.123 9  17512947.297 7  21387761.856    21387763.608         564.194
       424.203
 88  3 23  6 23 32.0800000  0  4G 6G 9G11G13
  -7733344.269 9  32198263.123 9  23254985.940    23254989.210       -3546.914
     -2770.372
 -19722376.375 9 -18479146.039 7  20902835.018    20902836.918       -1215.372
      -962.062
  -5189873.481 9  -7075978.442 8  22342512.591    22342514.522       -1954.826
     -1508.359
 -41155475.219 9  17500223.344 7  21384653.768    21384657.218         537.464
       419.710
 88  3 23  6 24  2.0800000  0  4G 6G 9G11G13
  -7626700.294 9  32281362.311 8  23275280.257    23275281.633       -3562.097
     -2779.954
 -19685328.345 8 -18450277.453 8  20909885.441    20909887.169       -1240.060
      -979.870
  -5131261.496 9  -7030306.770 9  22353666.278    22353668.561       -1944.260
     -1514.691
 -41171404.987 9  17487810.538 8  21381624.222    21381625.713         528.325
       411.955
 88  3 23  6 24 32.0800000  0  4G 6G 9G11G13
  -7519720.156 9  32364723.441 9  23295637.876    23295639.778       -3564.984
     -2777.667
 -19647634.762 8 -18420905.847 7  20917057.510    20917059.334       -1262.141
      -987.687
  -5072481.712 9  -6984504.339 8  22364851.600    22364854.769       -1959.634
     -1515.045
 -41186937.871 9  17475707.008 8  21378666.744    21378669.624         526.419
       402.187
 88  3 23  6 25  2.0800000  0  4G 6G 9G11G13
  -7412405.934 9  32448344.877 8  23316057.727    23316061.211       -3574.059
     -2791.946
 -19609295.534 9 -18391031.147 6  20924353.796    20924353.558       -1294.557
     -1002.464
  -5013535.143 8  -6938571.943 8  22376067.686    22376071.824       -1950.113
     -1532.580
 -41202074.373 9  17463912.349 8  21375786.424    21375790.104         496.906
       392.568
 88  3 23  6 25 32.0800000  0  4G 6G 9G11G13
  -7304759.213 9  32532225.425 9  23336542.749    23336544.457       -3598.317
     -2799.863
 -19570310.904 8 -18360653.516 7  20931772.409    20931773.892       -1313.536
     -1026.001
  -4954422.998 9  -6892510.537 8  22387316.586    22387320.402       -1968.845
     -1538.521
 -41216815.330 9  17452425.894 8  21372982.396    21372984.962         481.085
       360.561
 88  3 23  6 26  2.0800000  0  4G 6G 9G11G13
  -7196784.044 9  32616361.889 9  23357089.880    23357092.664       -3598.875
     -2811.644
 -19530682.499 8 -18329774.250 7  20939313.648    20939314.596       -1322.252
     -1024.989
  -4895148.322 9  -6846322.480 8  22398597.330    22398601.171       -1980.551
     -1529.883
 -41231162.869 8  17441245.989 7  21370252.259    21370254.067         470.375
       351.980
 88  3 23  6 26 32.0800000  0  4G 6G 9G11G13
  -7088482.942 9  32700752.339 8  23377699.509    23377701.515       -3615.964
     -2818.827
 -19490411.472 8 -18298394.247 7  20946976.722    20946979.660       -1362.921
     -1056.350
  -4835712.741 9  -6800009.061 9  22409907.067    22409909.372       -1986.340
     -1551.414
 -41245118.560 9  17430371.437 8  21367596.218    21367598.381         458.573
       356.255
 88  3 23  6 27  2.0800000  0  4G 6G 9G11G13
  -6979858.877 9  32785394.458 8  23398369.834    23398371.347       -3618.851
     -2829.732
 -19449498.527 9 -18266514.034 8  20954762.031    20954764.445       -1374.006
     -1086.114
  -4776118.298 9  -6753571.836 9  22421247.492    22421251.671       -1989.969
     -1555.049
 -41258683.366 9  17419801.466 7  21365014.095    21365017.344         444.945
       351.147
 88  3 23  6 27 32.0800000  0  4G 6G 9G11G13
  -6870914.447 9  32870286.189 8  23419101.501    23419102.897       -3625.637
     -2832.218
 -19407944.555 9 -18234134.330 7  20962668.988    20962671.856       -1395.943
     -1108.589
  -4716367.193 9  -6707012.543 8  22432617.785    22432621.342       -1984.155
     -1550.613
 -41271858.488 9  17409535.141 8  21362508.091    21362509.565         430.926
       356.510
 88  3 23  6 28  2.0800000  0  4G 6G 9G11G13
  -6761651.673 9  32955425.985 9  23439891.677    23439894.034       -3641.785
     -2833.747
 -19365749.697 8 -18201255.232 7  20970699.069    20970699.098       -1427.362
     -1108.092
  -4656460.408 9  -6660331.924 9  22444017.534    22444020.711       -2003.860
     -1556.882
 -41284644.280 9  17399572.201 7  21360074.043    21360076.951         416.684
       320.588
 88  3 23  6 28 32.0800000  0  4G 6G 9G11G13
  -6652073.330 9  33040811.691 8  23460744.581    23460746.819       -3657.199
     -2844.565
 -19322915.030 9 -18167877.577 6  20978850.696    20978852.238       -1459.730
     -1127.075
  -4596399.993 9  -6613531.607 8  22455447.233    22455450.000       -2009.402
     -1547.282
 -41297042.124 9  17389911.557 7  21357715.510    21357716.384         412.147
       325.447
 88  3 23  6 29  2.0800000  0  4G 6G 9G11G13
  -6542183.365 9  33126440.207 8  23481657.440    23481658.537       -3672.725
     -2859.099
 -19279442.665 9 -18134003.026 8  20987124.103    20987123.681       -1461.173
     -1143.007
  -4536188.791 9  -6566613.786 8  22466904.753    22466908.510       -2002.520
     -1559.995
 -41309054.086 9  17380551.610 8  21355430.474    21355431.364         391.796
       301.499
 88  3 23  6 29 32.0800000  0  4G 6G 9G11G13
  -6431983.775 9  33212309.992 9  23502626.567    23502628.922       -3665.437
     -2850.965
 -19235332.856 9 -18099631.768 7  20995516.477    20995517.568       -1492.935
     -1158.666
  -4475828.167 9  -6519579.540 9  22478390.486    22478393.180       -1994.865
     -1573.541
 -41320680.876 9  17371491.777 8  21353217.293    21353218.856         387.809
       302.046
 88  3 23  6 30  2.0800000  0  4G 6G 9G11G13
  -6321477.561 9  33298418.715 8  23523656.131    23523656.887       -3697.406
     -2871.079
 -19190586.935 8 -18064764.825 8  21004031.013    21004032.391       -1502.273
     -1164.302
  -4415319.962 8  -6472430.299 8  22489904.889    22489908.230       -2022.121
     -1563.668
 -41331924.251 9  17362730.716 7  21351076.750    21351079.215         379.962
       289.295
 88  3 23  6 30 32.0800000  0  4G 6G 9G11G13
  -6210667.679 9  33384764.052 9  23544742.403    23544744.255       -3706.656
     -2880.275
 -19145206.115 8 -18029403.163 8  21012667.024    21012668.385       -1514.649
     -1175.642
  -4354666.513 8  -6425167.890 9  22501446.926    22501450.107       -2053.309
     -1577.848
 -41342784.995 9  17354267.801 7  21349011.304    21349012.320         344.923
       280.012
 88  3 23  6 31  2.0800000  0  4G 6G 9G11G13
  -6099556.367 9  33471344.284 9  23565886.290    23565886.346       -3707.757
     -2898.556
 -19099190.924 9 -17993547.191 7  21021423.276    21021425.086       -1549.457
     -1213.092
  -4293869.029 8  -6377793.241 9  22513016.313    22513019.262       -2012.169
     -1570.801
 -41353264.239 9  17346102.165 7  21347015.622    21347019.114         351.996
       277.930
 88  3 23  6 31 32.0800000  0  4G 6G 9G11G13
  -5988146.935 9  33558156.821 9  23587086.006    23587088.275       -3729.479
     -2869.942
 -19052543.127 9 -17957198.265 8  21030300.475    21030301.938       -1558.460
     -1222.842
  -4232930.139 9  -6330308.420 8  22524612.952    22524615.738       -2028.517
     -1586.963
 -41363364.235 9  17338232.054 7  21345094.920    21345096.271         335.194
       242.319
 88  3 23  6 32  2.0800000  0  4G 6G 9G11G13
  -5876441.249 9  33645200.177 8  23608342.190    23608344.945       -3742.868
     -2902.850
 -19005262.827 9 -17920356.498 7  21039297.792    21039299.535       -1579.170
     -1245.472
  -4171850.505 9  -6282713.890 8  22536236.522    22536238.861       -2033.309
     -1576.934
 -41373085.187 8  17330657.319 8  21343243.993    21343246.854         300.538
       253.131
 88  3 23  6 32 32.0800000  0  4G 6G 9G11G13
  -5764442.852 9  33732471.636 8  23629655.794    23629657.852       -3730.858
     -2916.638
 -18957352.026 8 -17883023.409 8  21048414.528    21048416.950       -1600.780
     -1254.433
  -4110632.616 9  -6235011.654 9  22547886.606    22547888.417       -2054.250
     -1601.796
 -41382428.968 9  17323376.454 8  21341466.208    21341468.158         305.968
       229.028
 88  3 23  6 33  2.0800000  0  4G 6G 9G11G13
  -5652155.525 9  33819968.235 8  23651022.375    23651025.355       -3749.670
     -2926.338
 -18908812.907 9 -17845200.726 7  21057651.116    21057651.747       -1631.274
     -1267.469
  -4049279.388 9  -6187203.959 9  22559560.518    22559564.038       -2050.111
     -1589.809
 -41391397.289 8  17316388.151 8  21339760.684    21339761.173         288.225
       229.550
 88  3 23  6 33 32.0800000  0  4G 6G 9G11G13
  -5539581.432 9  33907688.282 9  23672444.285    23672447.844       -3755.061
     -2921.572
 -18859646.028 8 -17806888.875 7  21067007.750    21067010.142       -1645.078
     -1290.702
  -3987791.954 9  -6139291.673 9  22571260.194    22571264.403       -2047.560
     -1603.392
 -41399991.456 9  17309691.418 8  21338124.051    21338126.885         290.219
       229.829
 88  3 23  6 34  2.0800000  0  4G 6G 9G11G13
  -5426723.538 9  33995629.467 8  23693920.866    23693924.603       -3766.671
     -2925.885
 -18809852.789 9 -17768088.975 6  21076482.598    21076485.268       -1658.068
     -1311.811
  -3926172.186 9  -6091276.286 8  22582987.150    22582990.214       -2052.296
     -1600.882
 -41408213.290 9  17303284.802 7  21336559.414    21336561.634         274.126
       213.959
 88  3 23  6 34 32.0800000  0  4G 6G 9G11G13
  -5313584.413 9  34083789.799 8  23715450.486    23715453.651       -3760.204
     -2934.149
 -18759434.283 9 -17728801.849 7  21086078.195    21086078.344       -1687.166
     -1321.156
  -3864421.618 9  -6043158.967 8  22594737.793    22594740.035       -2057.727
     -1610.358
 -41416063.354 9  17297167.868 8  21335066.756    21335067.574         265.418
       203.688
 88  3 23  6 35  2.0800000  0  4G 6G 9G11G13
  -5200166.277 9  34172167.564 8  23737033.863    23737035.560       -3772.413
     -2946.788
 -18708391.020 8 -17689027.888 7  21095790.985    21095791.497       -1723.713
     -1332.658
  -3802541.532 9  -5994940.718 8  22606512.271    22606515.642       -2056.371
     -1593.960
 -41423542.469 9  17291339.985 7  21333643.608    21333645.011         233.832
       201.731
 88  3 23  6 35 32.0800000  0  4G 6G 9G11G13
  -5086472.248 8  34260760.291 8  23758670.379    23758671.799       -3798.991
     -2944.079
 -18656725.020 9 -17648768.682 7  21105622.405    21105624.123       -1744.215
     -1353.542
  -3740534.053 9  -5946623.223 8  22618312.843    22618315.213       -2071.132
     -1619.499
 -41430652.529 9  17285799.684 7  21332289.805    21332291.883         252.851
       186.066
 88  3 23  6 36  2.0800000  0  4G 6G 9G11G13
  -4972506.404 8  34349564.818 8  23780355.936    23780358.810       -3802.022
     -2972.594
 -18604438.570 9 -17608026.007 7  21115571.378    21115572.616       -1749.414
     -1356.233
  -3678402.198 9  -5898208.800 9  22630135.866    22630138.450       -2073.085
     -1610.209
 -41437395.867 9  17280545.141 7  21331006.369    21331009.435         206.974
       158.924
 88  3 23  6 36 32.0800000  0  4G 6G 9G11G13
  -4858271.021 8  34438579.384 7  23802094.665    23802096.591       -3811.615
     -2953.592
 -18551532.715 9 -17566800.674 7  21125639.020    21125640.843       -1773.840
     -1386.637
  -3616147.198 9  -5849698.431 8  22641982.621    22641984.840       -2077.519
     -1620.344
 -41443773.089 9  17275575.885 7  21329793.482    21329794.529         208.107
       162.919
 88  3 23  6 37  2.0800000  0  4G 6G 9G11G13
  -4743768.001 8  34527802.497 8  23823883.590    23823886.034       -3818.210
     -2982.679
 -18498007.706 8 -17525092.906 7  21135824.933    21135826.417       -1791.383
     -1409.392
  -3553769.789 9  -5801092.669 8  22653854.431    22653855.772       -2069.034
     -1630.727
 -41449784.668 9  17270891.549 7  21328649.277    21328650.939         188.777
       147.236
 88  3 23  6 37 32.0800000  0  4G 6G 9G11G13
  -4629000.835 9  34617231.426 8  23845723.117    23845725.166       -3822.851
     -2980.982
 -18443865.701 9 -17482904.332 7  21146128.240    21146130.311       -1803.815
     -1418.961
  -3491272.139 9  -5752393.203 8  22665746.562    22665748.209       -2077.982
     -1622.351
 -41455432.857 9  17266490.374 8  21327574.067    21327575.444         190.085
       142.948
 88  3 23  6 38  2.0800000  0  4G 6G 9G11G13
  -4513973.578 9  34706863.043 8  23867613.943    23867615.355       -3829.884
     -2980.529
 -18389109.559 9 -17440237.232 6  21156546.452    21156549.604       -1807.372
     -1442.772
  -3428657.576 9  -5703602.638 8  22677662.155    22677662.994       -2082.982
     -1624.277
 -41460720.365 9  17262370.242 8  21326568.316    21326569.920         182.453
       148.161
 88  3 23  6 38 32.0800000  0  4G 6G 9G11G13
  -4398688.574 9  34796695.507 8  23889550.792    23889552.340       -3848.672
     -2982.175
 -18333740.067 9 -17397092.181 7  21167085.328    21167085.432       -1858.216
     -1442.872
  -3365927.213 9  -5654721.832 9  22689598.048    22689600.653       -2094.002
     -1638.917
 -41465647.904 9  17258530.625 8  21325630.848    21325632.454         165.396
       125.637
 88  3 23  6 39  2.0800000  0  4G 6G 9G11G13
  -4283147.444 8  34886727.522 8  23911537.454    23911538.825       -3867.515
     -3001.376
 -18277757.591 8 -17353469.479 7  21177736.958    21177739.206       -1875.736
     -1458.810
  -3303081.173 9  -5605750.901 9  22701557.168    22701559.996       -2096.107
     -1633.877
 -41470215.548 9  17254971.431 8  21324761.722    21324763.068         151.784
       123.667
 88  3 23  6 39 32.0800000  0  4G 6G 9G11G13
  -4167354.231 9  34976955.972 8  23933571.651    23933573.831       -3865.258
     -3007.465
 -18221164.912 8 -17309371.302 6  21188506.023    21188508.472       -1905.042
     -1481.956
  -3240122.300 9  -5556692.049 8  22713538.469    22713540.460       -2104.504
     -1636.549
 -41474426.133 9  17251690.441 8  21323960.183    21323962.491         144.910
       102.826
 88  3 23  6 40  2.0800000  0  4G 6G 9G11G13
  -4051311.943 8  35067378.519 8  23955654.054    23955655.762       -3868.631
     -3015.711
 -18163963.476 9 -17264798.769 7  21199392.008    21199393.411       -1920.273
     -1507.327
  -3177052.508 9  -5507546.754 9  22725540.222    22725542.692       -2087.559
     -1634.468
 -41478280.889 8  17248686.759 8  21323226.305    21323229.884         127.143
       100.489
 88  3 23  6 40 32.0800000  0  4G 6G 9G11G13
  -3935023.590 9  35157992.820 8  23977783.283    23977785.574       -3880.250
     -3017.277
 -18106155.110 9 -17219753.307 7  21210392.345    21210393.786       -1930.879
     -1493.396
  -3113873.903 9  -5458316.677 8  22737562.461    22737565.567       -2105.166
     -1635.095
 -41481781.506 9  17245959.015 8  21322559.020    21322561.871         124.528
        85.943
 88  3 23  6 41  2.0800000  0  4G 6G 9G11G13
  -3818491.374 9  35248797.133 8  23999959.287    23999961.054       -3888.240
     -3036.241
 -18047740.723 9 -17174235.612 7  21221508.981    21221509.780       -1959.244
     -1528.659
  -3050587.432 9  -5409002.570 9  22749605.890    22749609.141       -2090.948
     -1633.355
 -41484929.160 9  17243506.312 7  21321960.846    21321964.070         104.081
        69.837
 88  3 23  6 41 32.0800000  0  4G 6G 9G11G13
  -3701718.484 9  35339788.975 8  24022179.947    24022181.374       -3901.438
     -3016.711
 -17988722.590 9 -17128247.482 7  21232739.382    21232741.282       -1977.545
     -1528.796
  -2987194.636 9  -5359605.602 8  22761667.820    22761672.301       -2109.664
     -1655.265
 -41487725.129 9  17241327.637 8  21321429.097    21321432.249          89.249
        54.874
 88  3 23  6 42  2.0800000  0  4G 6G 9G11G13
  -3584707.880 9  35430966.048 8  24044446.764    24044448.112       -3892.052
     -3035.197
 -17929102.256 9 -17081790.099 7  21244084.636    21244085.091       -1989.578
     -1549.966
  -2923697.574 9  -5310127.383 9  22773752.735    22773754.883       -2121.147
     -1651.456
 -41490170.930 9  17239421.831 8  21320963.143    21320966.451          76.793
        51.289
 88  3 23  6 42 32.0800000  0  4G 6G 9G11G13
  -3467462.715 8  35522325.914 8  24066756.302    24066758.702       -3907.610
     -3041.038
 -17868881.556 9 -17034864.881 7  21255543.140    21255544.608       -2010.104
     -1569.726
  -2860098.231 9  -5260569.454 8  22785853.633    22785856.520       -2111.275
     -1655.445
 -41492268.211 9  17237787.574 8  21320564.461    21320566.651          73.093
        68.234
 88  3 23  6 43  2.0800000  0  4G 6G 9G11G13
  -3349984.709 9  35613867.192 8  24089112.794    24089114.744       -3915.752
     -3055.423
 -17808061.122 8 -16987472.364 7  21267117.140    21267119.201       -2045.694
     -1580.787
  -2796397.105 9  -5210932.211 9  22797976.304    22797979.081       -2121.530
     -1661.970
 -41494017.546 9  17236424.478 8  21320231.411    21320235.234          61.921
        44.702
 88  3 23  6 43 32.0800000  0  4G 6G 9G11G13
  -3232277.905 9  35705586.745 9  24111510.689    24111513.145       -3916.175
     -3067.683
 -17746644.083 8 -16939614.938 7  21278804.505    21278805.573       -2045.893
     -1598.633
  -2732596.529 9  -5161217.493 9  22810117.695    22810120.287       -2122.829
     -1655.880
 -41495421.580 9  17235330.433 8  21319965.487    21319967.867          56.211
        24.520
 88  3 23  6 44  2.0800000  0  4G 6G 9G11G13
  -3114346.034 9  35797481.705 8  24133952.136    24133955.307       -3939.579
     -3065.850
 -17684632.814 8 -16891294.482 7  21290604.036    21290605.228       -2071.235
     -1632.330
  -2668698.929 9  -5111427.154 9  22822277.514    22822279.354       -2130.373
     -1660.789
 -41496482.543 9  17234503.720 8  21319762.104    21319764.926          44.896
        27.533
 88  3 23  6 44 32.0800000  0  4G 6G 9G11G13
  -2996191.404 9  35889550.232 8  24156436.778    24156438.987       -3935.728
     -3060.146
 -17622028.262 8 -16842511.737 7  21302518.878    21302520.236       -2106.410
     -1642.092
  -2604705.537 9  -5061562.170 8  22834453.984    22834456.049       -2122.112
     -1675.777
 -41497200.951 9  17233943.932 8  21319625.825    21319629.005          23.700
        14.329
 88  3 23  6 45  2.0800000  0  4G 6G 9G11G13
  -2877816.353 9  35981790.493 8  24178963.834    24178965.684       -3949.260
     -3079.551
 -17558832.007 9 -16793267.932 7  21314544.398    21314545.077       -2120.070
     -1655.495
  -2540617.621 9  -5011623.535 9  22846650.088    22846652.068       -2145.963
     -1658.720
 -41497577.859 9  17233650.241 8  21319553.597    21319556.341           6.523
        35.767
 88  3 23  6 45 32.0800000  0  4G 6G 9G11G13
  -2759224.635 9  36074199.614 8  24201530.754    24201532.700       -3946.397
     -3075.606
 -17495046.753 9 -16743565.153 7  21326682.644    21326684.987       -2136.817
     -1681.195
  -2476437.392 9  -4961612.973 9  22858862.098    22858865.533       -2136.011
     -1663.119
 -41497615.475 9  17233620.944 8  21319546.816    21319550.238         -13.556
        -6.748
 88  3 23  6 46  2.0800000  0  4G 6G 9G11G13
  -2640418.865 9  36166775.517 7  24224138.372    24224139.671       -3962.442
     -3096.472
 -17430674.169 9 -16693404.702 6  21338931.694    21338933.461       -2173.283
     -1685.949
  -2412166.162 9  -4911531.519 9  22871093.285    22871095.917       -2160.149
     -1667.649
 -41497314.707 9  17233855.322 7  21319604.333    21319607.098          13.413
         3.995
 88  3 23  6 46 32.0800000  0  4G 6G 9G11G13
  -2521402.131 8  36259515.794 8  24246785.922    24246789.523       -3961.947
     -3082.677
 -17365716.069 9 -16642788.028 8  21351292.704    21351294.821       -2169.328
     -1699.439
  -2347805.587 9  -4861380.439 8  22883340.978    22883342.746       -2139.623
     -1667.109
 -41496678.046 9  17234351.427 9  21319725.336    21319726.939         -29.832
       -11.570
 88  3 23  6 47  2.0800000  0  4G 6G 9G11G13
  -2402177.408 9  36352418.175 8  24269474.462    24269476.670       -3979.403
     -3115.212
 -17300174.648 9 -16591716.797 7  21363765.774    21363767.544       -2185.452
     -1705.143
  -2283357.214 9  -4811160.955 8  22895605.050    22895606.891       -2143.627
     -1682.115
 -41495706.596 9  17235108.410 8  21319909.636    21319912.128         -29.689
       -21.531
 88  3 23  6 47 32.0800000  0  4G 6G 9G11G13
  -2282748.188 9  36445479.903 7  24292200.975    24292202.411       -3985.360
     -3099.802
 -17234052.237 9 -16540192.848 8  21376347.761    21376349.006       -2220.930
     -1726.115
  -2218823.314 9  -4760874.816 9  22907886.108    22907887.453       -2154.719
     -1672.042
 -41494402.587 9  17236124.526 7  21320157.901    21320160.107         -42.886
       -39.998
 88  3 23  6 48  2.0800000  0  4G 6G 9G11G13
  -2163116.669 9  36538699.256 7  24314966.481    24314967.489       -3967.163
     -3118.543
 -17167350.206 9 -16488217.261 7  21389040.957    21389042.416       -2228.522
     -1748.459
  -2154204.640 9  -4710522.612 8  22920181.787    22920184.356       -2151.242
     -1670.719
 -41492766.798 9  17237399.171 8  21320469.610    21320471.543         -65.932
       -48.275
 88  3 23  6 48 32.0800000  0  4G 6G 9G11G13
  -2043285.632 9  36632074.057 8  24337769.618    24337770.295       -3990.232
     -3125.179
 -17100070.271 9 -16435791.369 8  21401844.161    21401845.972       -2255.507
     -1748.832
  -2089502.204 9  -4660105.147 9  22932494.141    22932496.270       -2153.403
     -1687.875
 -41490800.525 9  17238931.332 7  21320844.422    21320846.086         -60.733
       -62.436
 88  3 23  6 49  2.0800000  0  4G 6G 9G11G13
  -1923258.410 9  36725601.751 8  24360610.512    24360611.315       -4009.610
     -3116.306
 -17032215.096 9 -16382917.221 8  21414756.972    21414758.458       -2270.012
     -1769.307
  -2024718.347 9  -4609624.219 8  22944822.399    22944825.089       -2147.183
     -1678.206
 -41488506.035 9  17240719.249 7  21321281.017    21321282.423         -85.493
       -73.428
 88  3 23  6 49 32.0800000  0  4G 6G 9G11G13
  -1803038.069 9  36819279.946 7  24383487.284    24383488.044       -4020.471
     -3123.806
 -16963786.411 9 -16329596.180 8  21427778.261    21427778.339       -2290.395
     -1765.305
  -1959854.547 9  -4559081.011 9  22957166.526    22957168.086       -2159.272
     -1685.731
 -41485884.548 9  17242761.977 8  21321780.009    21321781.726         -96.609
       -70.123
 88  3 23  6 50  2.0800000  0  4G 6G 9G11G13
  -1682627.285 9  36913106.518 8  24406400.359    24406401.285       -3994.794
     -3130.828
 -16894786.452 9 -16275829.991 8  21440908.579    21440909.364       -2309.190
     -1800.500
  -1894912.056 9  -4508476.472 8  22969524.955    22969527.060       -2173.204
     -1696.922
 -41482937.410 9  17245058.459 9  21322339.832    21322343.300         -91.849
       -91.262
 88  3 23  6 50 32.0800000  0  4G 6G 9G11G13
  -1562029.165 9  37007079.046 9  24429349.713    24429352.047       -4014.929
     -3138.203
 -16825217.488 9 -16221620.422 7  21454147.545    21454149.823       -2326.590
     -1807.845
  -1829892.419 9  -4457811.809 9  22981896.336    22981899.837       -2151.721
     -1687.577
 -41479666.496 9  17247607.234 7  21322962.791    21322964.453        -111.912
       -87.639
 88  3 23  6 51  2.0800000  0  4G 6G 9G11G13
  -1441245.852 9  37101195.902 8  24452333.604    24452336.065       -4012.178
     -3128.653
 -16755080.395 9 -16166968.154 7  21467493.784    21467494.615       -2350.569
     -1829.779
  -1764796.537 9  -4407087.752 9  22994283.131    22994286.102       -2178.650
     -1698.035
 -41476072.347 9  17250407.882 8  21323646.223    21323648.844        -124.017
      -107.175
 88  3 23  6 51 32.0800000  0  4G 6G 9G11G13
  -1320282.125 9  37195453.334 7  24475352.212    24475353.939       -4034.131
     -3139.614
 -16684379.462 9 -16111876.548 8  21480947.181    21480948.869       -2362.762
     -1852.982
  -1699627.559 9  -4356306.742 9  23006684.338    23006687.830       -2168.706
     -1687.471
 -41472158.070 9  17253457.964 7  21324391.263    21324393.066        -143.913
       -98.532
 88  3 23  6 52  2.0800000  0  4G 6G 9G11G13
  -1199141.436 8  37289848.656 8  24498404.860    24498406.249       -4034.370
     -3137.048
 -16613117.244 9 -16056347.572 8  21494508.287    21494509.680       -2410.433
     -1858.704
  -1634387.712 9  -4305470.513 9  23019099.738    23019102.645       -2169.703
     -1699.389
 -41467925.598 9  17256756.001 8  21325196.145    21325199.399        -124.440
      -123.629
 88  3 23  6 52 32.0800000  0  4G 6G 9G11G13
  -1077825.542 8  37384380.498 8  24521489.522    24521492.597       -4033.972
     -3162.008
 -16541294.777 9 -16000382.030 7  21508175.779    21508177.528       -2378.886
     -1861.644
  -1569077.061 9  -4254579.111 9  23031527.125    23031530.558       -2178.140
     -1688.677
 -41463376.121 9  17260301.055 8  21326062.386    21326064.535        -136.904
      -115.415
 88  3 23  6 53  2.0800000  0  4G 6G 9G11G13
   -956336.987 9  37479046.872 9  24544608.728    24544611.035       -4065.423
     -3160.480
 -16468913.846 9 -15943981.333 8  21521949.224    21521951.133       -2404.819
     -1879.384
  -1503696.757 9  -4203633.442 8  23043968.893    23043972.421       -2174.352
     -1694.244
 -41458510.589 9  17264092.391 8  21326988.782    21326990.589        -163.769
      -140.258
 88  3 23  6 53 32.0800000  0  4G 6G 9G11G13
   -834678.861 9  37573845.390 8  24567759.891    24567762.663       -4044.681
     -3149.003
 -16395976.714 9 -15887147.230 7  21535829.049    21535828.888       -2442.824
     -1890.997
  -1438248.345 8  -4152634.704 9  23056423.267    23056427.075       -2177.637
     -1701.539
 -41453330.366 9  17268128.926 7  21327973.840    21327975.976        -172.876
      -142.780
 88  3 23  6 54  2.0800000  0  4G 6G 9G11G13
   -712853.704 9  37668774.079 8  24590942.549    24590944.550       -4058.286
     -3164.009
 -16322485.086 9 -15829881.031 7  21549814.935    21549815.409       -2453.662
     -1909.788
  -1372732.775 9  -4101583.621 9  23068890.933    23068894.325       -2192.533
     -1705.174
 -41447836.812 9  17272409.615 7  21329020.117    21329022.080        -190.005
      -146.863
 88  3 23  6 54 32.0800000  0  4G 6G 9G11G13
   -590865.398 9  37763829.892 9  24614155.541    24614157.751       -4080.829
     -3166.389
 -16248442.518 9 -15772185.530 7  21563903.762    21563906.223       -2481.739
     -1921.159
  -1307152.108 9  -4050481.815 8  23081370.842    23081373.877       -2191.664
     -1702.751
 -41442032.232 9  17276932.662 8  21330123.600    21330126.535        -191.735
      -143.004
 88  3 23  6 55  2.0800000  0  4G 6G 9G11G13
   -468717.974 9  37859009.694 8  24637400.307    24637402.073       -4086.937
     -3181.122
 -16173852.244 9 -15714063.252 7  21578098.359    21578098.543       -2484.522
     -1962.760
  -1241509.089 9  -3999331.420 9  23093862.007    23093865.028       -2184.431
     -1712.805
 -41435919.410 9  17281695.914 7  21331287.210    21331289.630        -214.303
      -158.340
 88  3 23  6 55 32.0800000  0  4G 6G 9G11G13
   -346413.406 9  37954311.935 7  24660673.482    24660675.760       -4070.518
     -3194.183
 -16098715.553 9 -15655515.202 7  21592397.253    21592396.611       -2485.798
     -1947.543
  -1175803.847 9  -3948132.528 8  23106364.821    23106368.835       -2198.331
     -1712.538
 -41429498.851 9  17286698.955 7  21332508.201    21332510.864        -207.054
      -162.441
 88  3 23  6 56  2.0800000  0  4G 6G 9G11G13
   -223954.336 9  38049734.582 7  24683975.893    24683979.082       -4073.899
     -3163.239
 -16023034.274 9 -15596542.792 7  21606797.175    21606799.635       -2526.523
     -1967.980
  -1110037.709 9  -3896886.203 9  23118880.648    23118883.517       -2194.670
     -1702.856
 -41422771.774 9  17291940.835 9  21333788.310    21333791.589        -226.751
      -170.301
 88  3 23  6 56 32.0800000  0  4G 6G 9G11G13
   -101344.333 9  38145274.854 7  24707308.719    24707310.051       -4079.537
     -3190.921
 -15946811.715 9 -15537148.604 7  21621302.973    21621303.048       -2545.582
     -1992.245
  -1044212.487 8  -3845593.841 9  23131405.811    23131409.693       -2171.242
     -1713.842
 -41415740.260 9  17297419.945 8  21335126.574    21335130.458        -241.854
      -205.334
 88  3 23  6 57  2.0800000  0  4G 6G 9G11G13
     21413.521 9  38240930.336 8  24730666.611    24730668.485       -4101.180
     -3195.364
 -15870050.097 9 -15477334.388 8  21635909.161    21635910.905       -2575.837
     -2007.232
   -978329.732 9  -3794256.632 8  23143943.003    23143945.901       -2209.702
     -1713.967
 -41408406.297 9  17303134.748 7  21336523.628    21336525.230        -246.487
      -179.659
 88  3 23  6 57 32.0800000  0  4G 6G 9G11G13
    144317.113 8  38336699.369 8  24754057.469    24754057.481       -4097.998
     -3201.137
 -15792751.125 9 -15417101.433 7  21650617.569    21650620.353       -2569.011
     -2019.697
   -912389.924 8  -3742874.962 9  23156491.680    23156493.926       -2209.598
     -1717.304
 -41400770.692 9  17309084.578 8  21337976.963    21337977.394        -270.107
      -202.594
 88  3 23  6 58  2.0800000  0  4G 6G 9G11G13
    267362.761 8  38432579.119 8  24777470.199    24777472.433       -4103.556
     -3201.149
 -15714917.789 9 -15356452.096 7  21665430.220    21665431.516       -2615.740
     -2029.832
   -846395.112 9  -3691450.459 9  23169049.952    23169053.117       -2200.835
     -1725.555
 -41392835.254 9  17315268.049 8  21339486.107    21339488.671        -262.635
      -211.623
 88  3 23  6 58 32.0800000  0  3G 9G11G13
 -15636552.635 9 -15295388.350 7  21680341.836    21680344.050       -2621.498
     -2032.386
   -780346.674 8  -3639984.147 8  23181618.312    23181620.493       -2215.922
     -1710.748
 -41384602.171 9  17321683.442 7  21341052.712    21341054.319        -273.329
      -228.145
 88  3 23  6 59  2.0800000  0  4G 3G 9G11G13
 -81798868.462 9 103657408.952 8  23748328.800    23748331.415        2121.362
      1638.768
 -15557657.640 9 -15233911.749 7  21695356.090    21695356.756       -2633.428
     -2070.253
   -714245.569 8  -3588476.807 8  23194196.655    23194200.039       -2198.020
     -1706.094
 -41376072.778 9  17328329.741 8  21342676.040    21342676.687        -279.964
      -224.591
 88  3 23  6 59 32.0800000  0  4G 3G 9G11G13
 -81862608.661 8 103607740.777 8  23736198.883    23736199.872        2113.452
      1662.212
 -15478236.446 9 -15172025.112 7  21710469.279    21710470.213       -2653.906
     -2061.454
   -648093.792 9  -3536929.978 8  23206783.960    23206787.649       -2208.498
     -1719.230
 -41367249.014 9  17335205.399 7  21344355.634    21344356.021        -306.000
      -230.991
 88  3 23  7  0  2.0800000  0  4G 3G 9G11G13
 -81926117.850 9 103558253.107 8  23724112.857    23724115.779        2114.034
      1652.202
 -15398290.780 9 -15109729.806 8  21725682.537    21725682.923       -2671.234
     -2085.414
   -581892.236 9  -3485344.358 9  23219382.636    23219385.611       -2225.850
     -1723.542
 -41358132.289 9  17342309.341 8  21346090.339    21346089.983        -319.389
      -234.670
 88  3 23  7  0 32.0800000  0  4G 3G 9G11G13
 -81989396.221 9 103508945.299 8  23712071.451    23712073.575        2123.858
      1634.089
 -15317823.482 9 -15047028.031 8  21740994.898    21740996.967       -2670.931
     -2100.035
   -515642.592 9  -3433721.267 9  23231989.812    23231992.232       -2194.399
     -1721.883
 -41348723.851 9  17349640.592 7  21347880.515    21347882.022        -312.292
      -258.531
 88  3 23  7  1  2.0800000  0  4G 3G 9G11G13
 -82052443.420 9 103459817.640 8  23700074.436    23700076.842        2098.723
      1625.632
 -15236836.444 9 -14983921.265 8  21756405.991    21756407.256       -2702.701
     -2099.234
   -449345.662 9  -3382061.319 8  23244606.643    23244607.930       -2206.377
     -1728.147
 -41339025.278 9  17357197.917 8  21349725.657    21349726.475        -328.097
      -248.085
 88  3 23  7  1 32.0800000  0  4G 3G 9G11G13
 -82115260.625 9 103410869.191 8  23688120.643    23688122.094        2093.372
      1622.643
 -15155333.155 9 -14920412.232 7  21771915.348    21771917.072       -2710.157
     -2128.780
   -383003.557 9  -3330366.175 9  23257231.238    23257233.297       -2203.355
     -1726.245
 -41329039.092 9  17364979.366 8  21351626.413    21351628.432        -342.714
      -266.186
 88  3 23  7  2  2.0800000  0  4G 3G 9G11G13
 -82177846.881 9 103362100.695 9  23676210.542    23676212.849        2095.788
      1636.096
 -15073315.300 9 -14856502.229 9  21787523.562    21787525.299       -2738.458
     -2133.820
   -316616.301 9  -3278635.849 8  23269864.329    23269865.583       -2227.190
     -1721.050
 -41318766.068 9  17372984.312 8  21353581.194    21353583.959        -337.196
      -271.897
 88  3 23  7  2 32.0800000  0  4G 3G 9G11G13
 -82240202.265 8 103313512.111 9  23664345.649    23664347.917        2062.679
      1602.442
 -14990785.352 9 -14792193.190 8  21803229.383    21803229.833       -2751.480
     -2149.702
   -250185.045 9  -3226871.256 9  23282505.216    23282507.339       -2222.397
     -1736.181
 -41308207.239 9  17381211.980 7  21355589.982    21355592.542        -371.438
      -269.653
 88  3 23  7  3  2.0800000  0  4G 3G 9G11G13
 -82302328.300 8 103265102.239 8  23652522.656    23652524.467        2069.936
      1607.158
 -14907746.817 9 -14727487.865 8  21819030.359    21819031.586       -2792.492
     -2161.322
   -183712.247 9  -3175074.291 9  23295154.294    23295157.120       -2218.179
     -1722.250
 -41297365.285 9  17389660.267 7  21357652.682    21357655.191        -357.921
      -299.523
 88  3 23  7  3 32.0800000  0  4G 3G 9G11G13
 -82364225.595 8 103216870.608 9  23640743.289    23640747.020        2050.008
      1594.768
 -14824202.957 9 -14662388.790 7  21834927.818    21834929.308       -2779.582
     -2179.721
   -117199.751 9  -3123246.399 8  23307810.939    23307814.036       -2229.279
     -1729.191
 -41286242.501 9  17398327.365 7  21359770.581    21359771.309        -372.347
      -264.452
 88  3 23  7  4  2.0800000  0  4G 3G 9G11G13
 -82425893.795 9 103168817.504 8  23629008.381    23629011.351        2059.090
      1598.745
 -14740155.910 9 -14596897.587 9  21850921.756    21850923.599       -2810.147
     -2186.202
    -50648.289 9  -3071388.138 9  23320474.793    23320478.941       -2226.504
     -1724.828
 -41274840.290 9  17407212.212 7  21361940.170    21361942.848        -378.447
      -294.161
 88  3 23  7  4 32.0800000  0  4G 3G 9G11G13
 -82487331.890 9 103120943.690 9  23617317.553    23617318.690        2057.480
      1599.459
 -14655606.897 9 -14531015.265 8  21867010.903    21867011.413       -2817.930
     -2213.859
     15942.328 9  -3019499.344 8  23333147.045    23333149.881       -2214.359
     -1736.430
 -41263158.763 9  17416314.700 8  21364163.072    21364164.391        -390.855
      -309.683
 88  3 23  7  5  2.0800000  0  4G 3G 9G11G13
 -82548540.623 8 103073248.578 9  23605669.107    23605671.554        2039.785
      1589.890
 -14570559.558 9 -14464744.634 8  21883194.673    21883196.437       -2854.166
     -2217.942
     82570.408 9  -2967581.378 8  23345826.560    23345829.625       -2218.689
     -1741.251
 -41251200.374 9  17425632.931 8  21366438.491    21366440.723        -403.486
      -296.460
 88  3 23  7  5 32.0800000  0  4G 3G 9G11G13
 -82609522.035 9 103025730.601 8  23594065.549    23594067.807        2033.277
      1580.687
 -14485017.871 9 -14398088.798 7  21899472.631    21899474.379       -2871.956
     -2213.045
    149232.651 9  -2915636.788 9  23358509.831    23358514.473       -2225.412
     -1735.019
 -41238968.320 9  17435164.410 8  21368766.426    21368766.367        -411.301
      -303.550
 88  3 23  7  6  2.0800000  0  4G 3G 9G11G13
 -82670275.504 8 102978390.258 8  23582502.746    23582507.999        2027.967
      1569.235
 -14398984.164 8 -14331049.564 9  21915843.961    21915846.442       -2879.109
     -2247.830
    215929.156 9  -2863665.496 8  23371203.465    23371205.984       -2210.476
     -1720.181
 -41226463.035 9  17444908.769 7  21371144.944    21371147.450        -426.804
      -324.154
 88  3 23  7  6 32.0800000  0  4G 3G 9G11G13
 -82730800.218 9 102931228.171 9  23570986.388    23570989.569        2019.019
      1566.054
 -14312459.852 9 -14263628.053 9  21932308.144    21932310.612       -2885.553
     -2248.135
    282659.490 9  -2811667.852 8  23383902.837    23383903.898       -2226.345
     -1727.283
 -41213685.309 9  17454865.458 8  21373577.767    21373579.143        -431.293
      -345.188
 88  3 23  7  7  2.0800000  0  4G 3G 9G11G13
 -82791096.386 8 102884244.166 9  23559511.897    23559515.293        1974.371
      1556.808
 -14225447.676 9 -14195826.360 8  21948866.646    21948870.366       -2910.337
     -2279.129
    349422.547 9  -2759644.695 8  23396606.765    23396609.403       -2223.841
     -1734.565
 -41200637.130 9  17465032.868 7  21376059.571    21376062.165        -435.735
      -348.519
 88  3 23  7  7 32.0800000  0  4G 3G 9G11G13
 -82851166.033 8 102837436.669 8  23548081.684    23548084.972        2010.279
      1562.046
 -14137952.185 8 -14127648.080 8  21965516.782    21965518.514       -2915.608
     -2280.832
    416215.484 9  -2707598.257 8  23409317.328    23409319.794       -2232.309
     -1741.040
 -41187321.457 9  17475408.727 8  21378594.126    21378595.845        -451.285
      -350.495
 88  3 23  7  8  2.0800000  0  4G 3G 9G11G13
 -82911009.970 9 102790805.049 9  23536693.920    23536697.258        2015.941
      1547.394
 -14049976.461 9 -14059095.566 8  21982257.758    21982259.201       -2946.764
     -2293.259
    483036.833 9  -2655529.670 9  23422032.885    23422034.689       -2223.609
     -1731.800
 -41173740.396 9  17485991.376 7  21381178.817    21381180.507        -450.152
      -345.617
 88  3 23  7  8 32.0800000  0  4G 3G 9G11G13
 -82970625.991 8 102744351.025 9  23525348.501    23525352.300        1981.014
      1547.350
 -13961520.916 9 -13990169.177 8  21999090.091    21999092.086       -2949.427
     -2309.179
    549888.124 9  -2603437.762 8  23434753.604    23434756.187       -2219.582
     -1744.483
 -41159893.081 9  17496781.487 8  21383813.332    21383814.950        -461.006
      -352.222
 88  3 23  7  9  2.0800000  0  4G 3G 9G11G13
 -83030014.523 8 102698074.267 8  23514046.559    23514052.334        1977.234
      1533.388
 -13872588.398 9 -13920871.125 8  22016014.541    22016015.994       -2970.807
     -2338.371
    616767.924 9  -2551323.645 8  23447480.439    23447482.612       -2230.029
     -1736.374
 -41145781.533 9  17507777.501 7  21386499.562    21386499.950        -470.615
      -372.001
 88  3 23  7  9 32.0800000  0  4G 3G 9G11G13
 -83089177.573 9 102651973.202 9  23502789.079    23502792.624        1965.161
      1526.683
 -13783183.524 8 -13851205.006 7  22033026.920    22033028.239       -3003.238
     -2320.730
    683673.410 9  -2499189.506 8  23460213.155    23460215.327       -2239.566
     -1740.245
 -41131408.952 9  17518976.921 8  21389234.294    21389237.087        -485.279
      -389.213
 88  3 23  7 10  2.0800000  0  4G 3G 9G11G13
 -83148114.835 8 102606048.090 9  23491574.955    23491576.808        1984.259
      1539.266
 -13693308.616 9 -13781172.616 8  22050130.228    22050130.218       -3000.567
     -2338.993
    750603.804 9  -2447035.950 8  23472949.152    23472951.076       -2227.636
     -1751.815
 -41116776.397 9  17530378.906 8  21392018.596    21392019.730        -471.883
      -383.279
 88  3 23  7 10 32.0800000  0  4G 3G 9G11G13
 -83206826.830 8 102560298.495 8  23480401.617    23480403.660        1947.912
      1541.050
 -13602966.576 9 -13710776.234 8  22067320.979    22067322.115       -3018.756
     -2349.693
    817558.455 8  -2394863.505 8  23485689.664    23485692.303       -2219.016
     -1743.923
 -41101885.348 9  17541982.314 8  21394851.486    21394853.761        -506.372
      -377.021
 88  3 23  7 11  2.0800000  0  4G 3G 9G11G13
 -83265313.701 9 102514724.336 9  23469272.804    23469275.150        1934.603
      1533.214
 -13512160.457 8 -13640018.253 7  22084600.441    22084602.596       -3029.944
     -2371.572
    884536.063 9  -2342673.193 8  23498436.108    23498438.327       -2227.748
     -1735.218
 -41086737.477 8  17553785.857 8  21397734.603    21397736.453        -503.852
      -400.429
 88  3 23  7 11 32.0800000  0  4G 3G 9G11G13
 -83323575.645 9 102469325.432 9  23458186.587    23458187.251        1938.845
      1515.983
 -13420892.888 9 -13568900.667 7  22101969.648    22101970.563       -3050.104
     -2380.271
    951535.713 9  -2290465.688 9  23511186.047    23511187.145       -2233.633
     -1737.399
 -41071334.185 9  17565788.429 7  21400666.430    21400667.118        -516.116
      -395.563
 88  3 23  7 12  2.0800000  0  4G 3G 9G11G13
 -83381613.765 9 102424100.946 8  23447140.829    23447143.227        1931.357
      1499.262
 -13329166.582 9 -13497425.642 7  22119423.479    22119425.232       -3057.863
     -2395.793
   1018555.414 9  -2238242.561 8  23523939.619    23523940.620       -2244.167
     -1734.510
 -41055677.707 9  17577988.271 7  21403645.023    21403647.742        -529.872
      -401.808
 88  3 23  7 12 32.0800000  0  4G 3G 9G11G13
 -83439428.337 9 102379050.639 9  23436139.160    23436140.858        1913.080
      1499.896
 -13236985.271 9 -13425596.065 8  22136965.229    22136967.116       -3083.030
     -2402.199
   1085594.235 9  -2186004.531 9  23536696.635    23536698.502       -2224.542
     -1735.709
 -41039770.206 9  17590383.732 8  21406672.454    21406674.387        -547.806
      -412.067
 88  3 23  7 13  2.0800000  0  4G 3G 9G11G13
 -83497018.234 9 102334175.414 8  23425180.829    23425182.746        1912.689
      1502.468
 -13144350.828 9 -13353413.394 8  22154592.868    22154595.608       -3083.636
     -2414.844
   1152652.743 9  -2133751.149 9  23549455.811    23549458.872       -2233.761
     -1729.980
 -41023611.791 9  17602974.702 8  21409746.657    21409748.821        -542.153
      -429.633
 88  3 23  7 13 32.0800000  0  4G 3G 9G11G13
 -83554385.142 9 102289473.945 8  23414263.570    23414264.991        1900.329
      1497.820
 -13051266.405 9 -13280880.099 7  22172306.223    22172308.201       -3117.152
     -2418.355
   1219729.051 9  -2081483.911 8  23562220.436    23562223.156       -2238.394
     -1745.042
 -41007204.169 9  17615759.863 8  21412868.504    21412870.841        -533.094
      -428.764
 88  3 23  7 14  2.0800000  0  4G 3G 9G11G13
 -83611529.588 8 102244945.818 8  23403388.318    23403392.091        1893.232
      1483.479
 -12957735.990 9 -13207999.267 8  22190103.847    22190108.269       -3117.359
     -2438.382
   1286821.444 9  -2029204.146 9  23574987.898    23574990.534       -2241.735
     -1739.425
 -40990550.239 9  17628736.961 8  21416037.573    21416039.692        -550.390
      -420.804
 88  3 23  7 14 32.0800000  0  4G 3G 9G11G13
 -83668451.870 8 102200590.797 9  23392557.282    23392559.805        1888.639
      1475.028
 -12863761.762 9 -13134772.603 8  22207987.335    22207989.528       -3135.206
     -2436.288
   1353929.109 9  -1976912.448 9  23587756.972    23587760.297       -2232.820
     -1741.233
 -40973650.722 9  17641905.418 7  21419253.896    21419256.818        -562.495
      -450.021
 88  3 23  7 15  2.0800000  0  4G 3G 9G11G13
 -83725151.799 9 102156409.066 8  23381767.491    23381770.511        1882.403
      1480.154
 -12769346.574 9 -13061202.340 8  22225953.656    22225956.334       -3171.968
     -2452.941
   1421051.858 9  -1924609.010 9  23600530.492    23600533.648       -2237.134
     -1750.672
 -40956507.174 9  17655264.036 8  21422516.369    21422519.590        -568.899
      -440.545
 88  3 23  7 15 32.0800000  0  4G 3G 9G11G13
 -83781629.337 9 102112400.613 8  23371019.862    23371022.317        1892.769
      1469.684
 -12674492.798 9 -12987290.334 8  22244003.966    22244006.264       -3153.132
     -2473.055
   1488188.986 9  -1872294.354 9  23613306.154    23613308.164       -2233.617
     -1736.753
 -40939121.039 9  17668811.673 8  21425824.806    21425826.781        -584.496
      -444.913
 88  3 23  7 16  2.0800000  0  4G 3G 9G11G13
 -83837885.930 9 102068564.334 9  23360313.889    23360317.845        1855.051
      1452.012
 -12579204.813 8 -12913039.965 8  22262137.275    22262138.888       -3190.692
     -2475.739
   1555338.251 9  -1819970.238 9  23626085.196    23626086.939       -2230.348
     -1736.274
 -40921494.474 9  17682546.662 8  21429179.403    21429181.509        -587.463
      -465.282
 88  3 23  7 16 32.0800000  0  4G 3G 9G11G13
 -83893920.918 8 102024900.734 9  23349651.687    23349654.344        1861.853
      1461.352
 -12483484.690 9 -12838452.893 8  22280352.507    22280354.486       -3197.398
     -2484.973
   1622499.716 8  -1767636.639 9  23638865.225    23638867.907       -2253.633
     -1749.870
 -40903628.517 9  17696468.196 8  21432578.647    21432581.367        -595.979
      -462.871
 88  3 23  7 17  2.0800000  0  4G 3G 9G11G13
 -83949735.802 9 101981408.657 8  23339030.864    23339033.158        1869.014
      1448.793
 -12387336.020 9 -12763531.864 8  22298648.013    22298649.192       -3203.857
     -2503.322
   1689671.446 9  -1715295.039 8  23651647.731    23651650.043       -2227.581
     -1740.910
 -40885525.582 9  17710574.381 8  21436023.990    21436026.616        -580.469
      -488.093
 88  3 23  7 17 32.0800000  0  4G 3G 9G11G13
 -84005331.848 9 101938087.079 9  23328451.024    23328453.990        1846.901
      1443.182
 -12290762.607 9 -12688279.872 8  22317025.714    22317026.511       -3226.153
     -2499.544
   1756852.200 8  -1662946.412 9  23664431.098    23664434.642       -2244.375
     -1731.962
 -40867187.484 9  17724863.798 8  21439514.003    21439516.281        -616.290
      -475.690
 88  3 23  7 18  2.0800000  0  4G 3G 9G11G13
 -84060708.653 9 101894936.354 8  23317912.883    23317915.701        1859.644
      1434.682
 -12193766.379 8 -12612698.433 8  22335483.427    22335485.092       -3238.673
     -2511.108
   1824041.590 9  -1610591.058 8  23677217.948    23677219.335       -2237.684
     -1733.863
 -40848615.204 9  17739335.713 8  21443048.041    21443050.060        -618.507
      -482.469
 88  3 23  7 18 32.0800000  0  4G 3G 9G11G13
 -84115866.305 9 101851956.402 9  23307417.147    23307420.107        1824.860
      1433.576
 -12096350.856 9 -12536790.244 7  22354020.776    22354022.492       -3255.810
     -2537.722
   1891238.750 8  -1558229.667 8  23690004.502    23690008.463       -2227.732
     -1734.261
 -40829810.795 9  17753988.497 8  21446625.857    21446628.278        -633.020
      -499.458
 88  3 23  7 19  2.0800000  0  4G 3G 9G11G13
 -84170805.503 9 101809146.644 8  23296963.315    23296964.525        1838.336
      1425.989
 -11998519.343 9 -12460557.912 8  22372637.809    22372638.652       -3250.858
     -2534.286
   1958442.593 9  -1505863.065 9  23702793.423    23702796.552       -2233.091
     -1744.172
 -40810775.694 9  17768821.046 8  21450248.660    21450251.465        -642.287
      -491.479
 88  3 23  7 19 32.0800000  0  4G 3G 9G11G13
 -84225525.503 9 101766507.694 8  23286549.577    23286551.072        1816.710
      1423.392
 -11900273.888 9 -12384003.021 8  22391333.139    22391334.740       -3271.536
     -2547.701
   2025652.946 9  -1453491.388 8  23715582.632    23715585.286       -2225.069
     -1746.595
 -40791510.659 9  17783832.754 8  21453914.159    21453916.010        -630.022
      -505.498
 88  3 23  7 20  2.0800000  0  4G 3G 9G11G13
 -84280028.019 9 101724038.223 8  23276177.956    23276180.348        1818.289
      1405.813
 -11801618.476 9 -12307128.692 8  22410106.330    22410108.218       -3292.763
     -2569.244
   2092868.237 9  -1401115.860 8  23728373.648    23728375.928       -2234.223
     -1745.042
 -40772018.205 9  17799021.677 8  21457623.503    21457626.025        -657.605
      -509.667
 88  3 23  7 20 32.0800000  0  4G 3G 9G11G13
 -84334313.906 9 101681737.556 9  23265847.940    23265850.776        1805.012
      1411.778
 -11702556.212 9 -12229937.326 8  22428958.257    22428959.742       -3315.155
     -2573.669
   2160087.382 9  -1348737.323 9  23741164.802    23741167.909       -2239.542
     -1736.467
 -40752299.958 9  17814386.559 7  21461376.320    21461378.197        -651.274
      -510.568
 88  3 23  7 21  2.0800000  0  4G 3G 9G11G13
 -84388382.613 9 101639606.110 9  23255558.761    23255561.863        1804.039
      1401.960
 -11603089.628 9 -12152430.906 8  22447885.959    22447886.731       -3322.396
     -2591.229
   2227310.368 9  -1296355.809 9  23753956.395    23753960.160       -2235.850
     -1740.425
 -40732356.468 9  17829926.945 8  21465170.515    21465173.524        -656.178
      -520.249
 88  3 23  7 21 32.0800000  0  4G 3G 9G11G13
 -84442235.469 9 101597642.871 9  23245311.955    23245313.375        1779.358
      1389.340
 -11503222.888 9 -12074612.676 8  22466889.579    22466891.201       -3339.198
     -2603.619
   2294535.012 9  -1243972.992 8  23766749.835    23766752.538       -2237.509
     -1734.280
 -40712191.186 9  17845640.137 9  21469007.411    21469010.576        -688.203
      -533.205
 88  3 23  7 22  2.0800000  0  4G 3G 9G11G13
 -84495872.735 9 101555847.602 8  23235103.429    23235105.526        1778.114
      1394.292
 -11402958.624 9 -11996484.696 8  22485968.957    22485971.273       -3346.471
     -2607.298
   2361761.517 9  -1191588.724 9  23779543.045    23779545.069       -2230.842
     -1753.573
 -40691804.481 9  17861525.888 8  21472887.376    21472889.552        -683.426
      -518.683
 88  3 23  7 22 32.0800000  0  4G 3G 9G11G13
 -84549295.610 9 101514219.411 8  23224938.326    23224940.057        1790.793
      1394.852
 -11302300.480 9 -11918049.788 9  22505123.141    22505125.748       -3372.284
     -2609.050
   2428987.965 9  -1139204.500 9  23792335.139    23792338.298       -2235.029
     -1739.729
 -40671198.661 9  17877582.382 8  21476809.064    21476810.442        -692.740
      -550.523
 88  3 23  7 23  2.0800000  0  4G 3G 9G11G13
 -84602503.461 8 101472758.761 8  23214813.225    23214815.913        1761.137
      1383.400
 -11201251.021 9 -11839309.969 8  22524352.427    22524355.080       -3365.123
     -2628.561
   2496214.285 9  -1086820.373 9  23805128.023    23805130.526       -2253.705
     -1745.570
 -40650374.821 9  17893808.745 8  21480772.053    21480773.686        -697.995
      -538.723
 88  3 23  7 23 32.0800000  0  4G 3G 9G11G13
 -84655496.490 9 101431465.508 9  23204729.409    23204731.965        1755.164
      1376.179
 -11099812.962 9 -11760267.349 8  22543655.147    22543657.141       -3379.405
     -2633.694
   2563440.090 9  -1034436.635 9  23817920.416    23817923.217       -2230.635
     -1756.276
 -40629333.844 9  17910204.328 8  21484775.250    21484777.167        -708.370
      -536.902
 88  3 23  7 24  2.0800000  0  4G 3G 9G11G13
 -84708276.372 9 101390338.341 8  23194684.582    23194686.955        1760.531
      1370.052
 -10997990.559 9 -11680925.242 7  22563031.792    22563034.078       -3408.599
     -2640.001
   2630663.395 9   -982054.858 8  23830712.884    23830715.961       -2241.336
     -1748.155
 -40608078.162 9  17926767.196 8  21488820.506    21488821.482        -710.356
      -555.469
 88  3 23  7 24 32.0800000  0  4G 3G 9G11G13
 -84760843.010 9 101349377.345 8  23184682.265    23184683.823        1744.056
      1369.767
 -10895786.587 9 -11601285.793 9  22582479.963    22582482.041       -3412.586
     -2652.372
   2697883.956 9   -929675.233 9  23843503.906    23843507.005       -2250.938
     -1746.483
 -40586609.335 9  17943496.154 8  21492905.773    21492906.978        -712.660
      -553.735
 88  3 23  7 25  2.0800000  0  4G 3G 9G11G13
 -84813196.140 9 101308582.725 9  23174719.935    23174721.311        1735.515
      1367.418
 -10793203.244 8 -11521350.760 8  22602001.874    22602003.875       -3431.469
     -2670.858
   2765102.161 9   -877297.419 8  23856295.413    23856297.875       -2239.845
     -1743.812
 -40564928.148 9  17960390.590 8  21497031.453    21497033.902        -723.027
      -564.112
 88  3 23  7 25 32.0800000  0  4G 3G 9G11G13
 -84865337.540 8 101267953.089 8  23164797.241    23164799.344        1726.863
      1358.582
 -10690244.977 9 -11441123.547 8  22621594.356    22621595.761       -3445.384
     -2668.218
   2832315.940 9   -824923.042 8  23869087.539    23869088.521       -2240.068
     -1751.038
 -40543036.814 9  17977448.778 8  21501196.622    21501199.845        -731.089
      -576.683
 88  3 23  7 26  2.0800000  0  4G 3G 9G11G13
 -84917267.184 9 101227488.471 8  23154915.776    23154918.483        1733.370
      1355.065
 -10586914.746 9 -11360606.505 9  22641256.732    22641259.345       -3438.383
     -2697.018
   2899524.887 9   -772552.447 8  23881874.950    23881878.764       -2259.454
     -1753.151
 -40520936.235 9  17994670.015 8  21505402.544    21505405.980        -737.070
      -573.657
 88  3 23  7 26 32.0800000  0  4G 3G 9G11G13
 -84968986.277 9 101187187.904 9  23145073.830    23145075.657        1720.675
      1347.969
 -10483216.021 9 -11279802.328 8  22660990.833    22660991.678       -3475.336
     -2683.963
   2966727.795 9   -720186.570 9  23894663.920    23894665.940       -2229.790
     -1749.093
 -40498628.818 9  18012052.411 8  21509647.553    21509649.146        -729.175
      -582.381
 88  3 23  7 27  2.0800000  0  4G 3G 9G11G13
 -85020495.054 9 101147051.210 8  23135271.655    23135273.386        1717.349
      1336.796
 -10379152.081 9 -11198713.570 7  22680793.608    22680795.270       -3484.339
     -2697.690
   3033923.840 8   -667826.019 9  23907450.699    23907452.263       -2237.915
     -1735.479
 -40476116.253 9  18029594.673 8  21513932.060    21513933.866        -748.808
      -583.244
 88  3 23  7 27 32.0800000  0  4G 3G 9G11G13
 -85071793.249 9 101107078.614 8  23125509.473    23125511.846        1699.686
      1336.243
 -10274725.550 9 -11117342.257 8  22700664.385    22700666.294       -3481.205
     -2716.654
   3101112.971 9   -615470.880 8  23920235.914    23920238.739       -2236.616
     -1743.961
 -40453399.196 9  18047296.274 8  21518255.115    21518256.591        -756.280
      -588.862
 88  3 23  7 28  2.0800000  0  4G 3G 9G11G13
 -85122882.243 9 101067269.022 8  23115788.369    23115790.655        1698.410
      1346.794
 -10169940.161 9 -11035691.321 9  22720605.072    22720605.276       -3487.497
     -2706.488
   3168293.710 9   -563122.275 9  23933020.253    23933023.160       -2237.987
     -1736.138
 -40430480.077 9  18065155.335 8  21522616.205    21522618.056        -766.431
      -615.966
 88  3 23  7 28 32.0800000  0  3G 3G 9G13
 -85173762.137 9 101027622.375 9  23106105.503    23106108.664        1702.118
      1311.537
 -10064798.791 9 -10953762.992 8  22740612.542    22740614.644       -3506.739
     -2736.283
 -40407359.894 9  18083171.066 8  21527016.063    21527017.957        -755.857
      -606.733
 88  3 23  7 29  2.0800000  0  3G 3G 9G13
 -85224434.487 9 100988137.450 9  23096463.684    23096465.633        1677.549
      1311.301
  -9959305.589 9 -10871560.513 8  22760687.590    22760689.468       -3528.382
     -2737.936
 -40384040.718 9  18101341.862 8  21531453.856    21531455.902        -776.798
      -599.425
 88  3 23  7 29 32.0800000  0  3G 3G 9G13
 -85274898.638 9 100948814.738 9  23086860.181    23086862.704        1681.975
      1301.695
  -9853462.638 9 -10789085.490 9  22780828.368    22780831.199       -3533.685
     -2756.466
 -40360523.271 9  18119667.150 8  21535928.546    21535929.694        -785.339
      -614.854
 88  3 23  7 30  2.0800000  0  3G 3G 9G13
 -85325155.174 9 100909653.804 9  23077296.205    23077298.000        1663.036
      1302.931
  -9747273.732 9 -10706340.907 9  22801035.893    22801038.202       -3546.037
     -2756.870
 -40336809.218 9  18138145.635 8  21540440.650    21540442.757        -782.851
      -615.252
 88  3 23  7 30 32.0800000  0  3G 3G 9G13
 -85375204.749 9 100870654.158 8  23067773.455    23067775.555        1660.365
      1291.709
  -9640741.446 9 -10623328.753 8  22821308.299    22821310.208       -3548.278
     -2759.169
 -40312899.881 9  18156776.284 8  21544991.881    21544993.427        -808.488
      -624.902
 88  3 23  7 31  2.0800000  0  3G 3G 9G13
 -85425048.050 9 100831815.235 9  23058289.097    23058290.162        1677.151
      1287.179
  -9533869.619 9 -10540051.999 9  22841646.188    22841646.177       -3576.435
     -2771.261
 -40288796.629 9  18175558.044 9  21549578.786    21549577.742        -802.603
      -616.923
 88  3 23  7 31 32.0800000  0  3G 3G 9G13
 -85474686.807 9 100793135.700 9  23048842.526    23048844.812        1639.679
      1275.709
  -9426662.199 9 -10456513.768 8  22862046.026    22862048.887       -3576.427
     -2789.181
 -40264502.191 9  18194488.775 8  21554201.358    21554202.733        -819.309
      -636.969
 88  3 23  7 32  2.0800000  0  3G 3G 9G13
 -85524120.671 9 100754615.820 9  23039435.491    23039435.753        1653.252
      1280.176
  -9319121.888 9 -10372716.118 9  22882511.217    22882512.696       -3596.459
     -2802.299
 -40240017.241 9  18213567.961 8  21558860.527    21558862.661        -815.242
      -640.306
 88  3 23  7 32 32.0800000  0  3G 3G 9G13
 -85573350.808 9 100716254.686 8  23030066.732    23030069.317        1643.236
      1265.524
  -9211252.935 9 -10288662.404 8  22903036.660    22903037.874       -3597.232
     -2803.740
 -40215344.189 9  18232793.715 8  21563556.271    21563556.986        -836.095
      -638.330
 88  3 23  7 33  2.0800000  0  3G 3G 9G13
 -85622377.745 9 100678051.883 8  23020737.290    23020740.124        1635.899
      1276.578
  -9103058.132 9 -10204354.787 8  22923625.463    22923628.208       -3609.377
     -2810.843
 -40190484.179 9  18252165.158 9  21568285.896    21568287.542        -831.638
      -640.977
 88  3 23  7 33 32.0800000  0  3G 3G 9G13
 -85671200.795 9 100640007.954 8  23011444.994    23011447.714        1628.627
      1270.738
  -8994539.910 9 -10119795.148 9  22944276.443    22944278.824       -3621.163
     -2822.027
 -40165437.389 9  18271682.131 8  21573053.242    21573054.705        -842.993
      -666.807
 88  3 23  7 34  2.0800000  0  3G 3G 9G13
 -85719820.326 9 100602122.628 8  23002194.947    23002195.947        1621.187
      1250.791
  -8885700.929 9 -10034985.590 8  22964986.844    22964989.652       -3638.898
     -2823.133
 -40140205.161 9  18291343.615 8  21577852.982    21577855.189        -831.717
      -660.904
 88  3 23  7 34 32.0800000  0  3G 3G 9G13
 -85768237.715 9 100564394.803 8  22992979.764    22992982.279        1626.203
      1264.524
  -8776545.766 9  -9949929.618 7  22985759.312    22985761.220       -3647.853
     -2844.217
 -40114789.637 9  18311147.913 9  21582690.377    21582691.725        -842.642
      -655.324
 88  3 23  7 35  2.0800000  0  3G 3G 9G13
 -85816454.788 9 100526823.074 8  22983804.797    22983807.835        1610.565
      1272.092
  -8667078.632 9  -9864630.544 9  23006589.402    23006590.933       -3626.961
     -2841.296
 -40089193.803 9  18331092.734 9  21587561.211    21587561.125        -856.789
      -648.750
 88  3 23  7 35 32.0800000  0  3G 3G 9G13
 -85864471.882 9 100489407.171 9  22974668.845    22974670.973        1574.313
      1234.393
  -8557302.742 9  -9779090.923 8  23027479.492    23027482.911       -3671.617
     -2863.063
 -40063418.221 9  18351177.606 8  21592465.605    21592466.694        -851.247
      -661.762
 88  3 23  7 36  2.0800000  0  3G 3G 9G13
 -85912288.957 9 100452147.116 9  22965568.153    22965569.849        1595.286
      1238.277
  -8447220.944 8  -9693312.916 8  23048427.684    23048430.302       -3675.524
     -2872.570
 -40037463.890 9  18371401.760 9  21597406.776    21597405.873        -882.139
      -664.782
 88  3 23  7 36 32.0800000  0  3G 3G 9G13
 -85959905.825 9 100415043.088 8  22956507.876    22956510.666        1565.526
      1219.921
  -8336835.355 9  -9607298.186 9  23069432.901    23069435.425       -3675.054
     -2863.448
 -40011331.507 9  18391764.662 9  21602377.336    21602379.270        -875.202
      -681.329
 88  3 23  7 37  2.0800000  0  3G 3G 9G13
 -86007323.182 8 100378094.512 9  22947483.849    22947487.375        1587.702
      1217.566
  -8226149.827 9  -9521049.750 9  23090495.838    23090498.235       -3689.248
     -2881.997
 -39985022.933 9  18412264.847 8  21607384.383    21607385.930        -878.607
      -683.771
 88  3 23  7 37 32.0800000  0  3G 3G 9G13
 -86054542.707 8 100341300.100 9  22938498.163    22938499.794        1577.136
      1227.956
  -8115168.526 9  -9434570.826 8  23111614.497    23111617.674       -3690.883
     -2888.751
 -39958540.272 9  18432900.694 9  21612423.457    21612424.773        -890.807
      -684.287
 88  3 23  7 38  2.0800000  0  3G 3G 9G13
 -86101564.634 9 100304659.651 9  22929550.617    22929553.955        1555.797
      1214.291
  -8003894.341 9  -9347863.681 9  23132789.826    23132791.957       -3709.376
     -2894.008
 -39931884.348 9  18453671.531 8  21617495.032    21617496.221        -880.688
      -680.254
 88  3 23  7 38 32.0800000  0  3G 3G 9G13
 -86148389.743 8 100268172.586 8  22920641.223    22920642.317        1561.523
      1223.252
  -7892331.208 9  -9260931.379 9  23154019.656    23154022.869       -3721.098
     -2911.686
 -39905057.500 9  18474575.578 8  21622600.983    21622602.645        -901.445
      -695.260
 88  3 23  7 39  2.0800000  0  3G 3G 9G13
 -86195018.971 8 100231838.138 9  22911765.697    22911769.402        1549.457
      1208.873
  -7780482.474 9  -9173776.520 8  23175303.870    23175306.307       -3734.495
     -2910.282
 -39878060.825 9  18495611.955 8  21627738.043    21627739.402        -907.960
      -693.974
 88  3 23  7 39 32.0800000  0  3G 3G 9G13
 -86241452.015 9 100195656.555 9  22902930.573    22902933.446        1538.875
      1195.706
  -7668350.493 8  -9086400.967 9  23196642.340    23196643.261       -3748.865
     -2922.138
 -39850895.013 9  18516780.111 8  21632907.952    21632909.042        -916.054
      -714.604
 88  3 23  7 40  2.0800000  0  3G 3G 9G13
 -86287690.636 9 100159626.487 9  22894132.205    22894135.067        1539.346
      1198.894
  -7555939.747 8  -8998808.211 9  23218031.686    23218035.106       -3750.292
     -2932.266
 -39823562.376 9  18538078.287 8  21638108.261    21638110.867        -909.874
      -713.050
 88  3 23  7 40 32.0800000  0  3G 3G 9G13
 -86333735.287 9 100123747.566 8  22885368.846    22885372.657        1547.065
      1197.079
  -7443253.699 9  -8911000.923 9  23239474.730    23239477.770       -3752.341
     -2931.222
 -39796064.064 9  18559505.534 8  21643341.898    21643343.545        -913.877
      -709.788
 88  3 23  7 41  2.0800000  0  3G 3G 9G13
 -86379585.220 8 100088020.383 9  22876645.509    22876647.607        1537.129
      1192.375
  -7330293.959 8  -8822980.361 8  23260971.551    23260973.864       -3786.982
     -2931.322
 -39768400.157 9  18581061.839 7  21648604.937    21648606.324        -919.284
      -705.314
 88  3 23  7 41 32.0800000  0  3G 3G 9G13
 -86425240.868 9 100052444.556 9  22867956.258    22867959.383        1531.324
      1185.540
  -7217063.933 9  -8734749.198 8  23282518.166    23282522.279       -3781.583
     -2951.597
 -39740571.432 9  18602746.570 9  21653900.506    21653904.259        -917.043
      -730.455
 88  3 23  7 42  2.0800000  0  3G 3G 9G13
 -86470704.460 9 100017018.405 8  22859305.583    22859307.579        1516.380
      1176.673
  -7103568.714 9  -8646311.363 8  23304116.742    23304118.742       -3795.578
     -2948.633
 -39712581.662 9  18624556.784 8  21659227.412    21659230.104        -931.253
      -725.801
 88  3 23  7 42 32.0800000  0  3G 3G 9G13
 -86515977.714 9  99981740.556 9  22850689.961    22850693.763        1504.027
      1157.174
  -6989812.483 8  -8557670.174 8  23325763.310    23325763.533       -3799.924
     -2935.280
 -39684432.785 8  18646490.972 8  21664582.995    21664587.336        -924.443
      -747.052
 88  3 23  7 43  2.0800000  0  3G 3G 9G13
 -86561060.377 9  99946611.229 8  22842111.151    22842111.753        1504.833
      1146.648
  -6875797.809 9  -8468827.594 9  23347459.003    23347462.028       -3809.805
     -2973.799
 -39656125.116 9  18668548.894 8  21669970.283    21669972.246        -935.264
      -727.628
 88  3 23  7 43 32.0800000  0  3G 3G 9G13
 -86605951.861 9  99911630.873 9  22833568.481    22833571.608        1490.256
      1156.037
  -6761527.113 8  -8379785.503 9  23369204.819    23369207.787       -3813.736
     -2971.581
 -39627659.414 9  18690729.960 8  21675388.199    21675389.202        -959.921
      -737.980
 88  3 23  7 44  2.0800000  0  3G 3G 9G13
 -86650652.176 9  99876799.473 8  22825062.942    22825065.068        1496.516
      1175.499
  -6647003.079 9  -8290546.023 8  23390997.421    23390999.084       -3814.613
     -2967.461
 -39599036.052 9  18713033.880 9  21680834.504    21680836.510        -955.591
      -753.887
 88  3 23  7 44 32.0800000  0  3G 3G 9G13
 -86695163.715 9  99842115.167 8  22816592.388    22816595.706        1487.257
      1144.504
  -6532230.684 9  -8201112.994 9  23412838.994    23412840.716       -3838.632
     -2982.896
 -39570257.850 9  18735458.451 9  21686309.848    21686312.470        -954.036
      -751.563
 88  3 23  7 45  2.0800000  0  3G 3G 9G13
 -86739487.075 9  99807577.494 8  22808157.600    22808159.522        1471.947
      1138.639
  -6417212.975 9  -8111488.818 9  23434724.564    23434729.251       -3831.917
     -3003.638
 -39541325.492 9  18758003.137 8  21691815.761    21691819.672        -960.264
      -762.357
 88  3 23  7 45 32.0800000  0  3G 3G 9G13
 -86783622.280 9  99773186.439 9  22799759.819    22799761.791        1460.719
      1134.295
  -6301952.889 8  -8021675.791 9  23456657.774    23456662.072       -3840.426
     -2993.870
 -39512240.217 9  18780666.985 9  21697350.809    21697353.829        -965.360
      -752.732
 88  3 23  7 46  2.0800000  0  3G 3G 9G13
 -86827569.798 9  99738941.625 9  22791395.865    22791398.505        1458.071
      1127.174
  -6186453.777 9  -7931676.516 9  23478637.291    23478640.131       -3852.156
     -3007.428
 -39483003.602 9  18803448.763 8  21702915.815    21702916.460        -979.737
      -757.554
 88  3 23  7 46 32.0800000  0  3G 3G 9G13
 -86871331.309 9  99704841.782 8  22783068.638    22783070.779        1449.539
      1124.515
  -6070719.863 9  -7841494.257 8  23500660.166    23500663.006       -3847.770
     -3010.143
 -39453617.628 9  18826346.917 8  21708506.950    21708508.440        -988.573
      -766.775
 88  3 23  7 47  2.0800000  0  3G 3G 9G13
 -86914908.108 9  99670885.847 8  22774776.798    22774778.265        1462.162
      1132.997
  -5954755.392 9  -7751132.339 8  23522727.222    23522730.496       -3856.136
     -3002.171
 -39424084.033 9  18849360.102 8  21714127.245    21714128.665        -980.367
      -774.505
 88  3 23  7 47 32.0800000  0  3G 3G 9G13
 -86958299.755 9  99637074.204 9  22766518.538    22766521.068        1458.263
      1131.785
  -5838562.361 9  -7660592.321 9  23544839.347    23544840.416       -3877.866
     -3008.043
 -39394403.362 8  18872487.897 8  21719774.813    21719777.204        -995.989
      -769.341
 88  3 23  7 48  2.0800000  0  3G 3G 9G13
 -87001505.886 9  99603407.111 8  22758297.359    22758299.628        1439.754
      1128.504
  -5722143.313 9  -7569876.181 8  23566993.693    23566996.290       -3890.130
     -3041.703
 -39364575.183 9  18895730.649 9  21725450.690    21725452.724        -989.817
      -771.423
 88  3 23  7 48 32.0800000  0  3G 3G 9G13
 -87044527.295 8  99569883.960 9  22750109.854    22750112.333        1447.481
      1117.356
  -5605501.672 9  -7478986.603 8  23589188.706    23589191.171       -3889.285
     -3024.174
 -39334600.853 9  18919087.266 8  21731155.692    21731156.367       -1007.472
      -775.176
 88  3 23  7 49  2.0800000  0  3G 3G 9G13
 -87087366.257 9  99536502.973 7  22741959.302    22741961.059        1433.303
      1116.076
  -5488642.603 9  -7387927.597 8  23611426.465    23611429.755       -3901.749
     -3041.989
 -39304483.759 9  18942555.139 8  21736887.113    21736887.645       -1005.168
      -781.197
 88  3 23  7 49 32.0800000  0  3G 3G 9G13
 -87130023.064 8  99503263.907 9  22733840.604    22733844.530        1420.416
      1096.478
  -5371569.490 8  -7296701.814 8  23633703.260    23633708.267       -3897.124
     -3045.748
 -39274225.149 8  18966133.271 9  21742644.721    21742645.868       -1010.351
      -788.467
 88  3 23  7 50  2.0800000  0  3G 3G 9G13
 -87172497.611 8  99470166.875 9  22725758.232    22725760.275        1412.498
      1097.553
  -5254284.689 8  -7205311.112 9  23656023.275    23656026.559       -3912.642
     -3061.302
 -39243825.535 9  18989821.282 8  21748428.569    21748431.033       -1000.287
      -789.722
 88  3 23  7 50 32.0800000  0  3G 3G 9G13
 -87214790.202 8  99437211.628 9  22717710.458    22717712.321        1408.152
      1100.672
  -5136790.879 9  -7113757.497 9  23678382.630    23678384.223       -3923.001
     -3051.012
 -39213284.952 9  19013619.124 9  21754241.866    21754242.080       -1031.013
      -786.765
 88  3 23  7 51  2.0800000  0  3G 3G 9G13
 -87256903.412 9  99404396.156 8  22709696.738    22709699.489        1409.507
      1099.299
  -5019093.630 9  -7022045.370 9  23700778.748    23700780.462       -3925.863
     -3058.338
 -39182606.788 9  19037524.198 9  21760078.652    21760080.716       -1016.914
      -802.380
 88  3 23  7 51 32.0800000  0  3G 3G 9G13
 -87298836.610 9  99371720.952 9  22701717.477    22701717.876        1400.018
      1102.139
  -4901195.247 9  -6930176.517 9  23723214.640    23723216.431       -3944.699
     -3056.629
 -39151791.365 9  19061536.212 8  21765942.399    21765942.888       -1022.273
      -795.495
 88  3 23  7 52  2.0800000  0  3G 3G 9G13
 -87340589.503 9  99339186.237 9  22693771.808    22693774.177        1390.847
      1075.563
  -4783097.994 9  -6838152.710 8  23745686.881    23745689.246       -3936.780
     -3062.973
 -39120838.527 9  19085655.307 8  21771832.621    21771832.921       -1039.840
      -793.699
 88  3 23  7 52 32.0800000  0  3G 3G 9G13
 -87382164.792 9  99306789.914 8  22685860.798    22685862.317        1386.222
      1068.435
  -4664806.784 9  -6745977.775 8  23768197.096    23768199.570       -3947.593
     -3071.455
 -39089751.480 9  19109878.979 8  21777748.596    21777751.031       -1033.915
      -807.730
 88  3 23  7 53  2.0800000  0  3G 3G 9G13
 -87423562.387 9  99274532.065 9  22677983.148    22677985.148        1367.522
      1087.543
  -4546324.831 9  -6653654.194 8  23790743.088    23790746.588       -3928.814
     -3076.215
 -39058530.387 9  19134207.087 8  21783689.294    21783692.761       -1038.325
      -818.542
 88  3 23  7 53 32.0800000  0  3G 3G 9G13
 -87464782.157 9  99242412.781 9  22670139.137    22670140.572        1363.846
      1078.309
  -4427654.376 9  -6561183.720 8  23813326.384    23813328.887       -3958.542
     -3087.020
 -39027176.205 9  19158638.920 8  21789655.640    21789658.218       -1055.191
      -824.700
 88  3 23  7 54  2.0800000  0  3G 3G 9G13
 -87505825.809 9  99210430.715 8  22662328.789    22662330.483        1376.055
      1061.289
  -4308799.991 9  -6468569.917 9  23835943.257    23835945.509       -3962.888
     -3090.649
 -38995690.439 9  19183173.284 8  21795646.449    21795650.158       -1044.114
      -822.065
 88  3 23  7 54 32.0800000  0  3G 3G 9G13
 -87546694.469 9  99178585.028 8  22654551.097    22654552.251        1346.494
      1058.698
  -4189765.313 9  -6375815.634 8  23858596.432    23858598.979       -3978.319
     -3109.974
 -38964074.725 9  19207808.908 8  21801661.958    21801667.300       -1059.880
      -840.240
 88  3 23  7 55  2.0800000  0  3G 3G 9G13
 -87587388.128 9  99146875.692 8  22646805.855    22646809.447        1355.074
      1057.605
  -4070553.198 9  -6282923.086 8  23881280.041    23881282.451       -3972.266
     -3102.238
 -38932329.854 9  19232545.182 8  21807702.479    21807706.486       -1058.373
      -819.896
 88  3 23  7 55 32.0800000  0  3G 3G 9G13
 -87627907.316 9  99115302.315 8  22639096.366    22639098.311        1338.719
      1055.455
  -3951167.039 8  -6189894.921 8  23903997.358    23904001.054       -3975.416
     -3099.361
 -38900456.862 9  19257381.266 7  21813770.325    21813771.012       -1068.659
      -818.331
 88  3 23  7 56  2.0800000  0  3G 3G 9G13
 -87668252.961 9  99083864.169 8  22631419.263    22631421.086        1347.204
      1041.387
  -3831610.200 9  -6096733.784 9  23926749.577    23926752.602       -3978.382
     -3099.914
 -38868457.090 9  19282316.162 9  21819859.412    21819861.359       -1078.348
      -835.350
 88  3 23  7 56 32.0800000  0  3G 3G 9G13
 -87708425.914 9  99052560.588 8  22623773.983    22623777.570        1352.650
      1035.291
  -3711886.426 8  -6003442.559 8  23949531.624    23949534.650       -4014.411
     -3096.124
 -38836331.549 9  19307349.048 8  21825972.221    21825972.003       -1076.586
      -808.612
 88  3 23  7 57  2.0800000  0  3G 3G 9G13
 -87748425.805 9  99021391.865 8  22616163.056    22616164.364        1341.646
      1035.185
  -3591997.822 8  -5910022.886 8  23972345.556    23972349.195       -4010.902
     -3118.437
 -38804080.926 8  19332479.397 8  21832109.895    21832111.755       -1094.959
      -836.736
 88  3 23  7 57 32.0800000  0  3G 3G 9G13
 -87788253.815 9  98990357.069 8  22608583.167    22608586.306        1339.636
      1035.832
  -3471948.638 8  -5816478.081 9  23995190.000    23995192.092       -4005.041
     -3110.434
 -38771706.558 9  19357706.169 8  21838269.579    21838273.187       -1081.538
      -843.204
 88  3 23  7 58  2.0800000  0  3G 3G 9G13
 -87827911.397 9  98959455.073 9  22601036.438    22601040.244        1303.265
      1040.753
  -3351743.182 9  -5722811.518 8  24018066.064    24018066.782       -4017.361
     -3113.267
 -38739210.887 9  19383027.474 8  21844454.764    21844455.581       -1090.908
      -845.578
 88  3 23  7 58 32.0800000  0  3G 3G 9G13
 -87867397.970 9  98928686.323 9  22593522.637    22593525.769        1316.048
      1012.890
  -3231383.228 9  -5629024.550 8  24040969.761    24040971.010       -4024.777
     -3125.540
 -38706592.906 9  19408444.076 9  21850660.397    21850664.768       -1077.375
      -856.458
 88  3 23  7 59  2.0800000  0  3G 3G 9G13
 -87906714.954 9  98898049.742 8  22586041.476    22586044.118        1310.881
      1043.562
  -3110873.071 9  -5535120.546 9  24063901.877    24063904.020       -4032.002
     -3128.044
 -38673854.684 8  19433954.385 8  21856890.084    21856892.003       -1089.217
      -843.198
 88  3 23  7 59 32.0800000  0  3G 3G 9G13
 -87945864.712 9  98867543.448 9  22578591.604    22578594.663        1297.029
      1006.012
  -2990217.456 9  -5441103.191 9  24086860.131    24086865.555       -4019.187
     -3145.430
 -38640998.536 9  19459556.594 8  21863142.864    21863147.061       -1090.772
      -869.302
 88  3 23  8  0  2.0800000  0  3G 3G 9G13
 -87984845.393 8  98837168.907 9  22571174.953    22571176.285        1294.150
      1023.895
  -2869417.406 8  -5346973.295 8  24109848.468    24109850.562       -4030.742
     -3136.084
 -38608023.229 8  19485251.620 8  21869416.871    21869419.535       -1085.079
      -842.912
 88  3 23  8  0 32.0800000  0  3G 3G 9G13
 -88023656.883 9  98806926.207 8  22563788.080    22563790.731        1282.731
      1018.725
  -2748475.722 9  -5252733.014 9  24132864.241    24132866.012       -4043.932
     -3141.391
 -38574929.387 9  19511039.021 9  21875715.296    21875717.489       -1105.294
      -868.501
 88  3 23  8  1  2.0800000  0  3G 3G 9G13
 -88062302.244 8  98776812.953 9  22556434.184    22556437.158        1288.170
      1013.773
  -2627397.437 8  -5158386.326 9  24155903.184    24155905.758       -4024.698
     -3133.232
 -38541720.020 9  19536916.444 8  21882034.784    21882035.987       -1103.826
      -855.290
 88  3 23  8  1 32.0800000  0  3G 3G 9G13
 -88100782.126 9  98746828.636 8  22549112.114    22549114.225        1285.235
       995.498
  -2506186.435 9  -5063936.201 9  24178970.651    24178971.324       -4055.750
     -3136.849
 -38508396.523 8  19562882.812 8  21888377.106    21888378.810       -1121.617
      -875.261
 88  3 23  8  2  2.0800000  0  3G 3G 9G13
 -88139096.290 9  98716973.454 9  22541820.271    22541822.612        1268.090
       984.127
  -2384845.539 9  -4969384.884 9  24202058.664    24202063.258       -4033.286
     -3157.336
 -38474959.299 9  19588937.776 9  21894740.431    21894740.529       -1129.057
      -851.040
 88  3 23  8  2 32.0800000  0  3G 3G 9G13
 -88177245.369 9  98687246.906 8  22534560.874    22534564.025        1266.942
       989.402
  -2263377.998 8  -4874734.862 8  24225174.322    24225176.532       -4040.096
     -3154.620
 -38441408.714 9  19615081.080 8  21901121.843    21901125.137       -1098.763
      -865.176
 88  3 23  8  3  2.0800000  0  3G 3G 9G13
 -88215230.441 9  98657648.151 9  22527334.174    22527336.039        1257.907
       996.691
  -2141786.988 8  -4779988.641 8  24248313.026    24248315.351       -4061.842
     -3170.198
 -38407746.438 9  19641311.429 7  21907529.905    21907530.607       -1116.777
      -867.867
 88  3 23  8  3 32.0800000  0  3G 3G 9G13
 -88253052.092 9  98628176.750 8  22520134.750    22520138.403        1280.562
       973.315
  -2020075.771 8  -4685148.769 8  24271473.217    24271475.269       -4059.083
     -3158.174
 -38373972.472 9  19667628.799 8  21913955.843    21913959.009       -1131.713
      -891.007
 88  3 23  8  4  2.0800000  0  3G 3G 9G13
 -88290709.857 9  98598833.051 9  22512970.819    22512971.705        1242.668
       978.814
  -1898247.035 8  -4590217.292 9  24294656.212    24294659.201       -4046.316
     -3156.360
 -38340087.943 9  19694032.336 8  21920404.054    21920406.130       -1132.406
      -879.549
 88  3 23  8  4 32.0800000  0  3G 3G 9G13
 -88328206.485 9  98569614.917 9  22505833.714    22505836.078        1252.006
       979.056
  -1776305.600 9  -4495198.011 9  24317860.871    24317863.473       -4070.064
     -3168.769
 -38306095.273 9  19720520.138 7  21926873.235    21926875.212       -1136.569
      -883.662
 88  3 23  8  5  2.0800000  0  3G 3G 9G13
 -88365542.398 9  98540522.016 9  22498729.568    22498731.944        1250.363
       963.429
  -1654255.006 9  -4400093.675 9  24341087.026    24341089.300       -4064.466
     -3178.388
 -38271995.297 9  19747091.551 8  21933363.944    21933362.239       -1148.315
      -875.100
 88  3 23  8  5 32.0800000  0  3G 3G 9G13
 -88402717.238 9  98511554.610 7  22491655.145    22491657.461        1243.808
       965.746
  -1532097.163 9  -4304905.765 8  24364332.789    24364334.100       -4078.556
     -3161.542
 -38237788.013 9  19773746.585 8  21939871.270    21939873.964       -1132.151
      -894.878
 88  3 23  8  6  2.0800000  0  3G 3G 9G13
 -88439731.340 9  98482712.474 8  22484612.469    22484614.198        1237.724
       960.999
  -1409835.689 9  -4209637.106 8  24387598.025    24387601.331       -4058.605
     -3170.527
 -38203474.112 9  19800484.686 8  21946399.284    21946402.596       -1122.271
      -892.871
 88  3 23  8  6 32.0800000  0  3G 3G 9G13
 -88476585.230 9  98453995.159 8  22477598.662    22477600.189        1226.480
       965.678
  -1287473.632 9  -4114290.069 7  24410883.938    24410885.273       -4086.108
     -3171.963
 -38169054.584 9  19827305.086 9  21952951.267    21952953.328       -1158.706
      -894.126
 88  3 23  8  7  2.0800000  0  3G 3G 9G13
 -88513280.733 9  98425401.275 9  22470616.592    22470617.788        1220.826
       971.935
  -1165015.547 9  -4018868.200 7  24434187.957    24434187.609       -4097.822
     -3172.044
 -38134531.511 9  19854206.186 8  21959520.239    21959521.616       -1143.323
      -900.210
 88  3 23  8  7 32.0800000  0  3G 3G 9G13
 -88549818.813 9  98396930.066 9  22463661.747    22463664.269        1220.005
       953.194
  -1042464.647 9  -3923373.980 8  24457506.772    24457510.047       -4087.193
     -3195.625
 -38099905.622 9  19881187.406 8  21966109.533    21966110.965       -1161.018
      -895.363
 88  3 23  8  8  2.0800000  0  3G 3G 9G13
 -88586200.257 9  98368580.893 9  22456738.246    22456741.270        1225.754
       948.429
   -919824.536 9  -3827810.283 8  24480844.385    24480844.709       -4090.358
     -3159.747
 -38065177.940 9  19908247.922 8  21972716.334    21972719.986       -1145.405
      -891.914
 88  3 23  8  8 32.0800000  0  3G 3G 9G13
 -88622424.137 9  98340354.509 8  22449845.543    22449847.513        1207.780
       949.441
   -797096.854 8  -3732178.357 8  24504199.766    24504200.637       -4097.591
     -3189.511
 -38030347.747 9  19935388.319 8  21979344.895    21979348.132       -1163.156
      -912.003
 88  3 23  8  9  2.0800000  0  3G 3G 9G13
 -88658490.324 9  98312251.014 8  22442982.438    22442983.313        1192.900
       932.117
   -674284.423 8  -3636480.378 8  24527569.631    24527571.467       -4093.500
     -3181.880
 -37995415.408 9  19962608.320 8  21985994.518    21985994.544       -1178.833
      -889.472
 88  3 23  8  9 32.0800000  0  3G 3G 9G13
 -88694401.725 9  98284268.114 8  22436148.945    22436151.113        1209.782
       937.424
   -551392.481 8  -3540720.452 9  24550955.354    24550956.839       -4108.141
     -3187.354
 -37960383.974 9  19989905.534 8  21992658.501    21992662.998       -1156.369
      -919.323
 88  3 23  8 10  2.0800000  0  3G 3G 9G13
 -88730159.164 8  98256405.184 8  22429344.660    22429347.042        1179.439
       923.399
   -428425.058 9  -3444901.699 8  24574354.420    24574356.767       -4081.890
     -3194.736
 -37925255.262 9  20017278.554 8  21999343.200    21999345.607       -1169.734
      -911.879
 88  3 23  8 10 32.0800000  0  3G 3G 9G13
 -88765762.614 9  98228662.250 9  22422570.312    22422571.614        1180.667
       920.305
   -305384.127 9  -3349025.684 8  24597768.824    24597771.720       -4115.342
     -3200.658
 -37890028.616 8  20044727.880 8  22006047.710    22006050.103       -1165.699
      -915.756
 88  3 23  8 11  2.0800000  0  3G 3G 9G13
 -88801212.522 9  98201038.967 9  22415824.846    22415825.635        1194.551
       918.267
   -182272.968 8  -3253094.942 8  24621195.664    24621197.635       -4110.366
     -3193.637
 -37854704.968 8  20072252.792 8  22012768.701    22012772.653       -1175.149
      -918.186
 88  3 23  8 11 32.0800000  0  3G 3G 9G13
 -88836508.498 9  98173535.623 9  22409107.458    22409109.110        1174.958
       922.163
    -59094.127 9  -3157111.447 8  24644635.327    24644637.712       -4111.307
     -3188.523
 -37819284.034 9  20099853.519 9  22019510.444    22019511.689       -1196.959
      -922.517
 88  3 23  8 12  2.0800000  0  3G 3G 9G13
 -88871651.527 9  98146151.468 9  22402419.952    22402421.704        1161.888
       911.357
     64148.758 9  -3061078.043 8  24668087.736    24668089.957       -4114.170
     -3195.917
 -37783767.094 8  20127529.056 8  22026269.409    22026271.517       -1174.655
      -926.270
 88  3 23  8 12 32.0800000  0  3G 3G 9G13
 -88906643.256 9  98118885.197 9  22395760.260    22395763.204        1181.449
       904.572
    187451.598 9  -2964997.967 9  24691552.222    24691554.224       -4113.069
     -3206.592
 -37748155.945 9  20155278.000 8  22033044.861    22033046.407       -1188.586
      -917.068
 88  3 23  8 13  2.0800000  0  3G 3G 9G13
 -88941485.081 9  98091735.729 8  22389129.284    22389133.185        1146.617
       899.470
    310810.596 9  -2868874.080 8  24715025.736    24715030.500       -4105.980
     -3214.167
 -37712452.461 9  20183098.902 8  22039839.744    22039841.691       -1207.724
      -928.762
 88  3 23  8 13 32.0800000  0  3G 3G 9G13
 -88976176.210 9  98064703.682 9  22382528.329    22382531.101        1181.560
       902.645
    434223.767 9  -2772707.989 8  24738511.856    24738513.018       -4120.111
     -3192.736
 -37676655.562 8  20210992.590 9  22046652.025    22046652.971       -1205.396
      -936.989
 88  3 23  8 14  2.0800000  0  3G 3G 9G13
 -89010717.034 8  98037788.769 9  22375956.899    22375958.274        1168.012
       897.351
    557688.397 9  -2676501.760 8  24762005.903    24762008.222       -4113.867
     -3216.348
 -37640765.951 9  20238958.520 8  22053480.899    22053480.815       -1187.876
      -913.725
 88  3 23  8 14 32.0800000  0  3G 3G 9G13
 -89045108.318 9  98010990.385 9  22369412.223    22369415.186        1147.797
       882.699
    681200.716 9  -2580258.385 7  24785510.486    24785510.559       -4137.559
     -3200.366
 -37604784.085 9  20266996.331 8  22060328.785    22060329.487       -1201.074
      -927.420
 88  3 23  8 15  2.0800000  0  3G 3G 9G13
 -89079351.184 9  97984307.646 8  22362895.706    22362899.384        1138.906
       886.558
    804756.523 9  -2483981.113 8  24809021.873    24809023.873       -4119.337
     -3202.062
 -37568712.003 9  20295104.432 8  22067192.550    22067195.588       -1195.595
      -948.826
 88  3 23  8 15 32.0800000  0  3G 3G 9G13
 -89113446.360 9  97957739.997 8  22356408.074    22356408.510        1126.761
       896.997
    928352.655 9  -2387672.454 8  24832541.655    24832543.440       -4131.985
     -3206.406
 -37532550.464 8  20323282.244 9  22074074.088    22074075.706       -1214.909
      -944.278
 88  3 23  8 16  2.0800000  0  3G 3G 9G13
 -89147393.648 9  97931287.576 9  22349947.348    22349950.324        1127.104
       877.107
   1051986.969 9  -2291334.034 8  24856069.379    24856071.572       -4127.391
     -3210.631
 -37496298.791 9  20351530.311 8  22080971.995    22080973.096       -1213.139
      -925.916
 88  3 23  8 16 32.0800000  0  3G 3G 9G13
 -89181194.337 9  97904949.392 9  22343516.725    22343517.771        1129.081
       881.052
   1175655.400 9  -2194969.032 8  24879601.410    24879603.769       -4130.222
     -3208.935
 -37459958.756 9  20379847.215 9  22087886.529    22087891.370       -1203.251
      -959.794
 88  3 23  8 17  2.0800000  0  3G 3G 9G13
 -89214849.766 9  97878724.397 8  22337110.791    22337113.109        1112.176
       864.934
   1299354.270 8  -2098580.307 8  24903140.169    24903141.707       -4117.647
     -3215.789
 -37423531.696 8  20408231.932 9  22094817.801    22094820.965       -1202.198
      -938.611
 88  3 23  8 17 32.0800000  0  3G 3G 9G13
 -89248359.522 9  97852612.899 8  22330734.872    22330736.206        1126.178
       880.394
   1423081.429 9  -2002169.530 8  24926685.298    24926686.299       -4118.109
     -3211.657
 -37387017.210 9  20436684.779 8  22101767.081    22101771.219       -1219.766
      -957.252
 88  3 23  8 18  2.0800000  0  3G 3G 9G13
 -89281723.586 9  97826614.932 8  22324384.168    22324388.124        1110.979
       872.701
   1546833.880 8  -1905739.099 9  24950232.155    24950236.612       -4108.947
     -3213.048
 -37350416.286 9  20465204.968 9  22108732.118    22108735.469       -1235.977
      -958.582
 88  3 23  8 18 32.0800000  0  3G 3G 9G13
 -89314943.720 9  97800729.121 9  22318063.556    22318066.140        1105.740
       858.217
   1670606.959 8  -1809292.605 9  24973788.892    24973790.371       -4132.814
     -3215.640
 -37313730.781 9  20493791.069 8  22115713.160    22115714.807       -1222.844
      -951.908
 88  3 23  8 19  2.0800000  0  3G 3G 9G13
 -89348020.082 8  97774955.347 9  22311769.630    22311772.622        1093.189
       864.828
   1794398.885 8  -1712831.386 9  24997344.987    24997345.205       -4123.795
     -3202.056
 -37276959.932 9  20522443.674 9  22122710.312    22122712.616       -1218.553
      -938.431
 88  3 23  8 19 32.0800000  0  3G 3G 9G13
 -89380953.676 9  97749292.821 8  22305502.943    22305504.234        1099.767
       860.230
   1918205.393 9  -1616358.782 8  25020905.192    25020904.318       -4122.527
     -3214.086
 -37240105.209 9  20551161.619 9  22129723.598    22129726.250       -1212.286
      -955.096
 88  3 23  8 20  2.0800000  0  3G 3G 9G13
 -89413744.624 9  97723741.445 9  22299262.625    22299264.965        1092.559
       870.980
   2042024.044 9  -1519876.719 8  25044465.755    25044468.335       -4129.297
     -3211.010
 -37203166.947 9  20579944.681 7  22136752.549    22136754.339       -1232.979
      -951.883
 88  3 23  8 20 32.0800000  0  3G 3G 9G13
 -89446393.460 9  97698300.812 8  22293050.221    22293052.839        1093.492
       852.444
   2165851.878 9  -1423387.502 8  25068031.468    25068033.447       -4138.890
     -3217.883
 -37166145.119 9  20608792.853 8  22143799.561    22143799.459       -1244.542
      -950.939
 88  3 23  8 21  2.0800000  0  3G 3G 9G13
 -89478900.914 9  97672970.331 9  22286863.439    22286866.196        1077.224
       849.449
   2289685.247 9  -1326893.967 8  25091593.748    25091598.756       -4119.321
     -3211.576
 -37129041.171 8  20637705.003 8  22150859.378    22150860.911       -1237.477
      -961.378
 88  3 23  8 21 32.0800000  0  3G 3G 9G13
 -89511267.777 9  97647749.412 8  22280703.897    22280707.045        1082.575
       841.396
   2413520.626 9  -1230398.870 8  25115158.142    25115161.415       -4124.704
     -3200.845
 -37091856.333 8  20666680.209 9  22157934.289    22157938.614       -1228.585
      -965.299
 88  3 23  8 22  2.0800000  0  3G 3G 9G13
 -89543494.772 9  97622637.474 8  22274571.432    22274574.161        1057.312
       822.332
   2537354.874 9  -1133904.666 8  25138724.176    25138726.578       -4143.085
     -3219.324
 -37054590.542 9  20695718.476 8  22165025.706    22165027.955       -1225.316
      -956.320
 88  3 23  8 22 32.0800000  0  3G 3G 9G13
 -89575581.751 9  97597634.624 9  22268466.304    22268467.711        1055.350
       824.967
   2661185.325 9  -1037413.382 7  25162287.186    25162290.468       -4128.197
     -3219.877
 -37017244.143 9  20724819.553 8  22172134.297    22172135.115       -1244.677
      -966.946
 88  3 23  8 23  2.0800000  0  3G 3G 9G13
 -89607529.392 8  97572740.363 9  22262386.582    22262388.950        1062.615
       847.094
   2785008.817 9   -940927.552 8  25185852.538    25185854.977       -4132.702
     -3221.679
 -36979817.958 9  20753982.814 8  22179253.845    22179259.385       -1237.907
      -967.803
 88  3 23  8 23 32.0800000  0  3G 3G 9G13
 -89639338.694 9  97547953.901 9  22256334.141    22256335.919        1053.309
       823.643
   2908821.868 9   -844449.858 9  25209410.931    25209413.864       -4118.444
     -3218.224
 -36942312.668 9  20783207.705 9  22186392.173    22186394.691       -1267.747
      -970.792
 88  3 23  8 24  2.0800000  0  3G 3G 9G13
 -89671009.908 9  97523275.055 9  22250305.809    22250308.691        1055.701
       827.092
   3032621.591 9   -747982.574 8  25232972.350    25232973.113       -4130.812
     -3218.343
 -36904728.844 8  20812493.790 8  22193542.283    22193546.278       -1251.743
      -973.756
 88  3 23  8 24 32.0800000  0  3G 3G 9G13
 -89702543.675 9  97498703.294 8  22244305.829    22244308.176        1051.435
       819.281
   3156404.714 9   -651528.220 8  25256525.273    25256527.648       -4119.608
     -3212.825
 -36867067.632 9  20841840.192 9  22200709.887    22200714.213       -1245.969
      -989.309
 88  3 23  8 25  2.0800000  0  3G 3G 9G13
 -89733941.157 9  97474237.725 8  22238332.117    22238333.337        1043.668
       814.540
   3280167.659 8   -555089.580 9  25280076.517    25280078.036       -4138.906
     -3205.766
 -36829329.407 9  20871246.600 8  22207892.509    22207893.824       -1279.613
      -972.644
 88  3 23  8 25 32.0800000  0  3G 3G 9G13
 -89765202.012 9  97449878.631 8  22232383.563    22232383.550        1038.580
       823.935
   3403908.024 9   -458668.506 7  25303624.292    25303625.330       -4128.587
     -3212.259
 -36791514.228 8  20900712.980 9  22215088.385    22215090.161       -1254.031
      -975.682
 88  3 23  8 26  2.0800000  0  3G 3G 9G13
 -89796326.222 9  97425626.005 7  22226460.924    22226460.908        1027.871
       790.797
   3527623.128 8   -362267.167 7  25327164.817    25327169.507       -4110.374
     -3221.126
 -36753622.031 8  20930239.350 8  22222298.395    22222301.946       -1276.240
      -995.256
 88  3 23  8 26 32.0800000  0  3G 3G 9G13
 -89827315.300 9  97401478.677 7  22220562.793    22220564.869        1039.425
       781.632
   3651309.242 8   -265888.398 7  25350702.880    25350704.514       -4120.797
     -3213.552
 -36715654.362 9  20959824.517 8  22229523.657    22229524.117       -1256.160
      -970.065
 88  3 23  8 27  2.0800000  0  3G 3G 9G13
 -89858170.058 9  97377436.000 8  22214691.016    22214692.346        1036.284
       795.607
   3774963.135 7   -169534.775 7  25374232.353    25374235.291       -4122.535
     -3224.357
 -36677612.011 9  20989467.914 8  22236763.694    22236764.497       -1269.111
      -988.837
 88  3 23  8 27 32.0800000  0  3G 3G 9G13
 -89888891.298 9  97353497.390 7  22208844.937    22208846.339        1008.286
       808.140
   3898580.914 8    -73209.266 8  25397756.525    25397759.349       -4136.171
     -3206.406
 -36639495.678 9  21019168.933 9  22244014.881    22244017.918       -1259.566
      -989.427
